<?xml version="1.0" encoding="UTF-8" standalone="no" ?>
<gpx xmlns="http://www.topografix.com/GPX/1/1" xmlns:xsi="http://www.w3.org/2001/XMLSchema-instance" xsi:schemaLocation="http://www.topografix.com/GPX/1/1 http://www.topografix.com/GPX/1/1/gpx.xsd" version="1.1" creator="VisuGPX - https://www.visugpx.com">
  <metadata>
    <name>Rudy Mountain (Musculo squelettée)</name>
    <desc><![CDATA[Ben, comment dire, c'était ...gras et aussi beaucoup chemins ( ouffff!!!)
Spectral IV]]></desc>
  </metadata>
  <trk>
    <name><![CDATA[Rudy Mountain (Musculo squelettée)_1]]></name>
    <trkseg>
      <trkpt lat="47.38975" lon="6.76459">
        <ele>372.4</ele>
        <time>2024-03-17T07:22:44Z</time>
      </trkpt>
      <trkpt lat="47.38975" lon="6.76459">
        <ele>372.2</ele>
        <time>2024-03-17T07:22:46Z</time>
      </trkpt>
      <trkpt lat="47.38975" lon="6.76459">
        <ele>372.4</ele>
        <time>2024-03-17T07:22:47Z</time>
      </trkpt>
      <trkpt lat="47.38975" lon="6.76459">
        <ele>372.2</ele>
        <time>2024-03-17T07:22:52Z</time>
      </trkpt>
      <trkpt lat="47.38975" lon="6.76455">
        <ele>372.2</ele>
        <time>2024-03-17T07:22:53Z</time>
      </trkpt>
      <trkpt lat="47.38976" lon="6.76452">
        <ele>372.4</ele>
        <time>2024-03-17T07:22:54Z</time>
      </trkpt>
      <trkpt lat="47.38983" lon="6.76446">
        <ele>372.4</ele>
        <time>2024-03-17T07:22:57Z</time>
      </trkpt>
      <trkpt lat="47.39009" lon="6.76427">
        <ele>372.4</ele>
        <time>2024-03-17T07:23:07Z</time>
      </trkpt>
      <trkpt lat="47.39011" lon="6.76425">
        <ele>372.4</ele>
        <time>2024-03-17T07:23:08Z</time>
      </trkpt>
      <trkpt lat="47.39022" lon="6.76417">
        <ele>372.4</ele>
        <time>2024-03-17T07:23:13Z</time>
      </trkpt>
      <trkpt lat="47.39022" lon="6.76411">
        <ele>372.4</ele>
        <time>2024-03-17T07:23:15Z</time>
      </trkpt>
      <trkpt lat="47.39019" lon="6.764">
        <ele>372.4</ele>
        <time>2024-03-17T07:23:18Z</time>
      </trkpt>
      <trkpt lat="47.3901" lon="6.7637">
        <ele>372.8</ele>
        <time>2024-03-17T07:23:26Z</time>
      </trkpt>
      <trkpt lat="47.39007" lon="6.76362">
        <ele>373</ele>
        <time>2024-03-17T07:23:28Z</time>
      </trkpt>
      <trkpt lat="47.39003" lon="6.76351">
        <ele>373</ele>
        <time>2024-03-17T07:23:31Z</time>
      </trkpt>
      <trkpt lat="47.39002" lon="6.76347">
        <ele>373.2</ele>
        <time>2024-03-17T07:23:32Z</time>
      </trkpt>
      <trkpt lat="47.39001" lon="6.76342">
        <ele>373.2</ele>
        <time>2024-03-17T07:23:33Z</time>
      </trkpt>
      <trkpt lat="47.38999" lon="6.76338">
        <ele>373.2</ele>
        <time>2024-03-17T07:23:34Z</time>
      </trkpt>
      <trkpt lat="47.38997" lon="6.7633">
        <ele>373.2</ele>
        <time>2024-03-17T07:23:36Z</time>
      </trkpt>
      <trkpt lat="47.38995" lon="6.76322">
        <ele>373.2</ele>
        <time>2024-03-17T07:23:38Z</time>
      </trkpt>
      <trkpt lat="47.3899" lon="6.7631">
        <ele>373.2</ele>
        <time>2024-03-17T07:23:41Z</time>
      </trkpt>
      <trkpt lat="47.38988" lon="6.76301">
        <ele>373.4</ele>
        <time>2024-03-17T07:23:43Z</time>
      </trkpt>
      <trkpt lat="47.38986" lon="6.76297">
        <ele>373.4</ele>
        <time>2024-03-17T07:23:44Z</time>
      </trkpt>
      <trkpt lat="47.38983" lon="6.76285">
        <ele>373.4</ele>
        <time>2024-03-17T07:23:47Z</time>
      </trkpt>
      <trkpt lat="47.38981" lon="6.76281">
        <ele>373.6</ele>
        <time>2024-03-17T07:23:48Z</time>
      </trkpt>
      <trkpt lat="47.38978" lon="6.76268">
        <ele>374.2</ele>
        <time>2024-03-17T07:23:51Z</time>
      </trkpt>
      <trkpt lat="47.38975" lon="6.76255">
        <ele>374.4</ele>
        <time>2024-03-17T07:23:54Z</time>
      </trkpt>
      <trkpt lat="47.3897" lon="6.76243">
        <ele>374.6</ele>
        <time>2024-03-17T07:23:57Z</time>
      </trkpt>
      <trkpt lat="47.38969" lon="6.76239">
        <ele>374.6</ele>
        <time>2024-03-17T07:23:58Z</time>
      </trkpt>
      <trkpt lat="47.38967" lon="6.76235">
        <ele>374.6</ele>
        <time>2024-03-17T07:23:59Z</time>
      </trkpt>
      <trkpt lat="47.38956" lon="6.76196">
        <ele>374.8</ele>
        <time>2024-03-17T07:24:08Z</time>
      </trkpt>
      <trkpt lat="47.38942" lon="6.76151">
        <ele>375</ele>
        <time>2024-03-17T07:24:18Z</time>
      </trkpt>
      <trkpt lat="47.38939" lon="6.76142">
        <ele>375</ele>
        <time>2024-03-17T07:24:20Z</time>
      </trkpt>
      <trkpt lat="47.38934" lon="6.7613">
        <ele>375.2</ele>
        <time>2024-03-17T07:24:23Z</time>
      </trkpt>
      <trkpt lat="47.3893" lon="6.76122">
        <ele>375.2</ele>
        <time>2024-03-17T07:24:25Z</time>
      </trkpt>
      <trkpt lat="47.38925" lon="6.76115">
        <ele>375.4</ele>
        <time>2024-03-17T07:24:27Z</time>
      </trkpt>
      <trkpt lat="47.38923" lon="6.76111">
        <ele>375.4</ele>
        <time>2024-03-17T07:24:28Z</time>
      </trkpt>
      <trkpt lat="47.38921" lon="6.76108">
        <ele>375.4</ele>
        <time>2024-03-17T07:24:29Z</time>
      </trkpt>
      <trkpt lat="47.38918" lon="6.76105">
        <ele>375.4</ele>
        <time>2024-03-17T07:24:30Z</time>
      </trkpt>
      <trkpt lat="47.38913" lon="6.76099">
        <ele>375.6</ele>
        <time>2024-03-17T07:24:32Z</time>
      </trkpt>
      <trkpt lat="47.38907" lon="6.76094">
        <ele>375.8</ele>
        <time>2024-03-17T07:24:34Z</time>
      </trkpt>
      <trkpt lat="47.38901" lon="6.76089">
        <ele>376</ele>
        <time>2024-03-17T07:24:36Z</time>
      </trkpt>
      <trkpt lat="47.38895" lon="6.76085">
        <ele>376</ele>
        <time>2024-03-17T07:24:38Z</time>
      </trkpt>
      <trkpt lat="47.38878" lon="6.76078">
        <ele>376.4</ele>
        <time>2024-03-17T07:24:44Z</time>
      </trkpt>
      <trkpt lat="47.38868" lon="6.76073">
        <ele>376.8</ele>
        <time>2024-03-17T07:24:48Z</time>
      </trkpt>
      <trkpt lat="47.3886" lon="6.76065">
        <ele>377.4</ele>
        <time>2024-03-17T07:24:52Z</time>
      </trkpt>
      <trkpt lat="47.38858" lon="6.76062">
        <ele>377.6</ele>
        <time>2024-03-17T07:24:53Z</time>
      </trkpt>
      <trkpt lat="47.38854" lon="6.76056">
        <ele>378</ele>
        <time>2024-03-17T07:24:55Z</time>
      </trkpt>
      <trkpt lat="47.3885" lon="6.76051">
        <ele>378.6</ele>
        <time>2024-03-17T07:24:57Z</time>
      </trkpt>
      <trkpt lat="47.38848" lon="6.76048">
        <ele>379</ele>
        <time>2024-03-17T07:24:58Z</time>
      </trkpt>
      <trkpt lat="47.38841" lon="6.76036">
        <ele>379.6</ele>
        <time>2024-03-17T07:25:02Z</time>
      </trkpt>
      <trkpt lat="47.38839" lon="6.76033">
        <ele>379.8</ele>
        <time>2024-03-17T07:25:03Z</time>
      </trkpt>
      <trkpt lat="47.38834" lon="6.76022">
        <ele>380</ele>
        <time>2024-03-17T07:25:07Z</time>
      </trkpt>
      <trkpt lat="47.38833" lon="6.76019">
        <ele>380.2</ele>
        <time>2024-03-17T07:25:08Z</time>
      </trkpt>
      <trkpt lat="47.38831" lon="6.76014">
        <ele>380.6</ele>
        <time>2024-03-17T07:25:10Z</time>
      </trkpt>
      <trkpt lat="47.3883" lon="6.7601">
        <ele>380.6</ele>
        <time>2024-03-17T07:25:11Z</time>
      </trkpt>
      <trkpt lat="47.3883" lon="6.76007">
        <ele>381.2</ele>
        <time>2024-03-17T07:25:12Z</time>
      </trkpt>
      <trkpt lat="47.38828" lon="6.75992">
        <ele>382.2</ele>
        <time>2024-03-17T07:25:16Z</time>
      </trkpt>
      <trkpt lat="47.38827" lon="6.75988">
        <ele>382.4</ele>
        <time>2024-03-17T07:25:17Z</time>
      </trkpt>
      <trkpt lat="47.38827" lon="6.75984">
        <ele>382.6</ele>
        <time>2024-03-17T07:25:18Z</time>
      </trkpt>
      <trkpt lat="47.3882" lon="6.75946">
        <ele>383</ele>
        <time>2024-03-17T07:25:28Z</time>
      </trkpt>
      <trkpt lat="47.38816" lon="6.75921">
        <ele>383</ele>
        <time>2024-03-17T07:25:34Z</time>
      </trkpt>
      <trkpt lat="47.38813" lon="6.75904">
        <ele>383</ele>
        <time>2024-03-17T07:25:38Z</time>
      </trkpt>
      <trkpt lat="47.38811" lon="6.7589">
        <ele>383</ele>
        <time>2024-03-17T07:25:42Z</time>
      </trkpt>
      <trkpt lat="47.3881" lon="6.75886">
        <ele>383</ele>
        <time>2024-03-17T07:25:43Z</time>
      </trkpt>
      <trkpt lat="47.38809" lon="6.75869">
        <ele>383.2</ele>
        <time>2024-03-17T07:25:48Z</time>
      </trkpt>
      <trkpt lat="47.38806" lon="6.75841">
        <ele>383.4</ele>
        <time>2024-03-17T07:25:55Z</time>
      </trkpt>
      <trkpt lat="47.38805" lon="6.7583">
        <ele>383.6</ele>
        <time>2024-03-17T07:25:58Z</time>
      </trkpt>
      <trkpt lat="47.38801" lon="6.75792">
        <ele>383.6</ele>
        <time>2024-03-17T07:26:08Z</time>
      </trkpt>
      <trkpt lat="47.38794" lon="6.7576">
        <ele>383.8</ele>
        <time>2024-03-17T07:26:18Z</time>
      </trkpt>
      <trkpt lat="47.38792" lon="6.7575">
        <ele>384.6</ele>
        <time>2024-03-17T07:26:21Z</time>
      </trkpt>
      <trkpt lat="47.3879" lon="6.75739">
        <ele>385.6</ele>
        <time>2024-03-17T07:26:25Z</time>
      </trkpt>
      <trkpt lat="47.38788" lon="6.75725">
        <ele>386.4</ele>
        <time>2024-03-17T07:26:28Z</time>
      </trkpt>
      <trkpt lat="47.3878" lon="6.75699">
        <ele>386.8</ele>
        <time>2024-03-17T07:26:33Z</time>
      </trkpt>
      <trkpt lat="47.38774" lon="6.75681">
        <ele>387</ele>
        <time>2024-03-17T07:26:38Z</time>
      </trkpt>
      <trkpt lat="47.38773" lon="6.7567">
        <ele>387.8</ele>
        <time>2024-03-17T07:26:41Z</time>
      </trkpt>
      <trkpt lat="47.38777" lon="6.75633">
        <ele>388.2</ele>
        <time>2024-03-17T07:26:48Z</time>
      </trkpt>
      <trkpt lat="47.3878" lon="6.75598">
        <ele>387.8</ele>
        <time>2024-03-17T07:26:54Z</time>
      </trkpt>
      <trkpt lat="47.38783" lon="6.75576">
        <ele>387</ele>
        <time>2024-03-17T07:26:58Z</time>
      </trkpt>
      <trkpt lat="47.38786" lon="6.75565">
        <ele>386.6</ele>
        <time>2024-03-17T07:27:00Z</time>
      </trkpt>
      <trkpt lat="47.38792" lon="6.75541">
        <ele>386.2</ele>
        <time>2024-03-17T07:27:05Z</time>
      </trkpt>
      <trkpt lat="47.38798" lon="6.75525">
        <ele>386</ele>
        <time>2024-03-17T07:27:08Z</time>
      </trkpt>
      <trkpt lat="47.38806" lon="6.75512">
        <ele>385.4</ele>
        <time>2024-03-17T07:27:11Z</time>
      </trkpt>
      <trkpt lat="47.38819" lon="6.75501">
        <ele>384.2</ele>
        <time>2024-03-17T07:27:15Z</time>
      </trkpt>
      <trkpt lat="47.38831" lon="6.75498">
        <ele>383.6</ele>
        <time>2024-03-17T07:27:18Z</time>
      </trkpt>
      <trkpt lat="47.38839" lon="6.75495">
        <ele>383</ele>
        <time>2024-03-17T07:27:20Z</time>
      </trkpt>
      <trkpt lat="47.38854" lon="6.7549">
        <ele>381.8</ele>
        <time>2024-03-17T07:27:23Z</time>
      </trkpt>
      <trkpt lat="47.38862" lon="6.75482">
        <ele>381.2</ele>
        <time>2024-03-17T07:27:25Z</time>
      </trkpt>
      <trkpt lat="47.38864" lon="6.75477">
        <ele>380.8</ele>
        <time>2024-03-17T07:27:26Z</time>
      </trkpt>
      <trkpt lat="47.38868" lon="6.75467">
        <ele>380.2</ele>
        <time>2024-03-17T07:27:28Z</time>
      </trkpt>
      <trkpt lat="47.38878" lon="6.75435">
        <ele>379.8</ele>
        <time>2024-03-17T07:27:34Z</time>
      </trkpt>
      <trkpt lat="47.38879" lon="6.75404">
        <ele>380</ele>
        <time>2024-03-17T07:27:39Z</time>
      </trkpt>
      <trkpt lat="47.38886" lon="6.75373">
        <ele>380</ele>
        <time>2024-03-17T07:27:45Z</time>
      </trkpt>
      <trkpt lat="47.38902" lon="6.75365">
        <ele>380.6</ele>
        <time>2024-03-17T07:27:49Z</time>
      </trkpt>
      <trkpt lat="47.38919" lon="6.7536">
        <ele>380.8</ele>
        <time>2024-03-17T07:27:53Z</time>
      </trkpt>
      <trkpt lat="47.38943" lon="6.7536">
        <ele>381</ele>
        <time>2024-03-17T07:27:59Z</time>
      </trkpt>
      <trkpt lat="47.38972" lon="6.75361">
        <ele>381</ele>
        <time>2024-03-17T07:28:09Z</time>
      </trkpt>
      <trkpt lat="47.38973" lon="6.75361">
        <ele>381.2</ele>
        <time>2024-03-17T07:28:19Z</time>
      </trkpt>
      <trkpt lat="47.38975" lon="6.75357">
        <ele>381.2</ele>
        <time>2024-03-17T07:28:21Z</time>
      </trkpt>
      <trkpt lat="47.3898" lon="6.75327">
        <ele>381.2</ele>
        <time>2024-03-17T07:28:28Z</time>
      </trkpt>
      <trkpt lat="47.38981" lon="6.75321">
        <ele>381.2</ele>
        <time>2024-03-17T07:28:29Z</time>
      </trkpt>
      <trkpt lat="47.38991" lon="6.75274">
        <ele>381.2</ele>
        <time>2024-03-17T07:28:38Z</time>
      </trkpt>
      <trkpt lat="47.38992" lon="6.75269">
        <ele>381.4</ele>
        <time>2024-03-17T07:28:39Z</time>
      </trkpt>
      <trkpt lat="47.38998" lon="6.75248">
        <ele>381.8</ele>
        <time>2024-03-17T07:28:43Z</time>
      </trkpt>
      <trkpt lat="47.39008" lon="6.75222">
        <ele>382.8</ele>
        <time>2024-03-17T07:28:49Z</time>
      </trkpt>
      <trkpt lat="47.39009" lon="6.75218">
        <ele>383</ele>
        <time>2024-03-17T07:28:50Z</time>
      </trkpt>
      <trkpt lat="47.39018" lon="6.75198">
        <ele>384</ele>
        <time>2024-03-17T07:28:55Z</time>
      </trkpt>
      <trkpt lat="47.39025" lon="6.75184">
        <ele>384.6</ele>
        <time>2024-03-17T07:28:59Z</time>
      </trkpt>
      <trkpt lat="47.39034" lon="6.75166">
        <ele>385.2</ele>
        <time>2024-03-17T07:29:05Z</time>
      </trkpt>
      <trkpt lat="47.39038" lon="6.75153">
        <ele>386</ele>
        <time>2024-03-17T07:29:09Z</time>
      </trkpt>
      <trkpt lat="47.39039" lon="6.7515">
        <ele>386.4</ele>
        <time>2024-03-17T07:29:10Z</time>
      </trkpt>
      <trkpt lat="47.39044" lon="6.75132">
        <ele>387.6</ele>
        <time>2024-03-17T07:29:15Z</time>
      </trkpt>
      <trkpt lat="47.39048" lon="6.75119">
        <ele>388.4</ele>
        <time>2024-03-17T07:29:19Z</time>
      </trkpt>
      <trkpt lat="47.3905" lon="6.75112">
        <ele>388.6</ele>
        <time>2024-03-17T07:29:21Z</time>
      </trkpt>
      <trkpt lat="47.39055" lon="6.75092">
        <ele>389.8</ele>
        <time>2024-03-17T07:29:27Z</time>
      </trkpt>
      <trkpt lat="47.39056" lon="6.75086">
        <ele>390.4</ele>
        <time>2024-03-17T07:29:29Z</time>
      </trkpt>
      <trkpt lat="47.39058" lon="6.75077">
        <ele>390.8</ele>
        <time>2024-03-17T07:29:32Z</time>
      </trkpt>
      <trkpt lat="47.39062" lon="6.75063">
        <ele>391.6</ele>
        <time>2024-03-17T07:29:37Z</time>
      </trkpt>
      <trkpt lat="47.39066" lon="6.75063">
        <ele>391.6</ele>
        <time>2024-03-17T07:29:39Z</time>
      </trkpt>
      <trkpt lat="47.39069" lon="6.75068">
        <ele>391.8</ele>
        <time>2024-03-17T07:29:41Z</time>
      </trkpt>
      <trkpt lat="47.39071" lon="6.75092">
        <ele>393</ele>
        <time>2024-03-17T07:29:49Z</time>
      </trkpt>
      <trkpt lat="47.39068" lon="6.75103">
        <ele>393.8</ele>
        <time>2024-03-17T07:29:53Z</time>
      </trkpt>
      <trkpt lat="47.39068" lon="6.75105">
        <ele>394</ele>
        <time>2024-03-17T07:29:54Z</time>
      </trkpt>
      <trkpt lat="47.39066" lon="6.75119">
        <ele>394.8</ele>
        <time>2024-03-17T07:29:59Z</time>
      </trkpt>
      <trkpt lat="47.39065" lon="6.75122">
        <ele>395.2</ele>
        <time>2024-03-17T07:30:00Z</time>
      </trkpt>
      <trkpt lat="47.39065" lon="6.75136">
        <ele>396.2</ele>
        <time>2024-03-17T07:30:06Z</time>
      </trkpt>
      <trkpt lat="47.39064" lon="6.75144">
        <ele>396.8</ele>
        <time>2024-03-17T07:30:09Z</time>
      </trkpt>
      <trkpt lat="47.39064" lon="6.75151">
        <ele>397.4</ele>
        <time>2024-03-17T07:30:12Z</time>
      </trkpt>
      <trkpt lat="47.39064" lon="6.75168">
        <ele>398.4</ele>
        <time>2024-03-17T07:30:19Z</time>
      </trkpt>
      <trkpt lat="47.39061" lon="6.75184">
        <ele>399.4</ele>
        <time>2024-03-17T07:30:26Z</time>
      </trkpt>
      <trkpt lat="47.39059" lon="6.75192">
        <ele>400</ele>
        <time>2024-03-17T07:30:29Z</time>
      </trkpt>
      <trkpt lat="47.39058" lon="6.75196">
        <ele>400.4</ele>
        <time>2024-03-17T07:30:31Z</time>
      </trkpt>
      <trkpt lat="47.39052" lon="6.75213">
        <ele>401.6</ele>
        <time>2024-03-17T07:30:38Z</time>
      </trkpt>
      <trkpt lat="47.39051" lon="6.75216">
        <ele>401.8</ele>
        <time>2024-03-17T07:30:39Z</time>
      </trkpt>
      <trkpt lat="47.39046" lon="6.7523">
        <ele>402.6</ele>
        <time>2024-03-17T07:30:44Z</time>
      </trkpt>
      <trkpt lat="47.39042" lon="6.75248">
        <ele>403.2</ele>
        <time>2024-03-17T07:30:49Z</time>
      </trkpt>
      <trkpt lat="47.39043" lon="6.75259">
        <ele>403.6</ele>
        <time>2024-03-17T07:30:53Z</time>
      </trkpt>
      <trkpt lat="47.39043" lon="6.75264">
        <ele>403.6</ele>
        <time>2024-03-17T07:30:55Z</time>
      </trkpt>
      <trkpt lat="47.39048" lon="6.75276">
        <ele>403.8</ele>
        <time>2024-03-17T07:30:59Z</time>
      </trkpt>
      <trkpt lat="47.39053" lon="6.75285">
        <ele>404</ele>
        <time>2024-03-17T07:31:02Z</time>
      </trkpt>
      <trkpt lat="47.39058" lon="6.75294">
        <ele>404.2</ele>
        <time>2024-03-17T07:31:05Z</time>
      </trkpt>
      <trkpt lat="47.39069" lon="6.753">
        <ele>404.2</ele>
        <time>2024-03-17T07:31:09Z</time>
      </trkpt>
      <trkpt lat="47.39083" lon="6.75296">
        <ele>404</ele>
        <time>2024-03-17T07:31:15Z</time>
      </trkpt>
      <trkpt lat="47.39093" lon="6.75292">
        <ele>404</ele>
        <time>2024-03-17T07:31:19Z</time>
      </trkpt>
      <trkpt lat="47.39113" lon="6.75281">
        <ele>404.6</ele>
        <time>2024-03-17T07:31:29Z</time>
      </trkpt>
      <trkpt lat="47.39126" lon="6.75276">
        <ele>405.8</ele>
        <time>2024-03-17T07:31:36Z</time>
      </trkpt>
      <trkpt lat="47.39131" lon="6.75275">
        <ele>406</ele>
        <time>2024-03-17T07:31:39Z</time>
      </trkpt>
      <trkpt lat="47.39134" lon="6.75276">
        <ele>406.8</ele>
        <time>2024-03-17T07:31:43Z</time>
      </trkpt>
      <trkpt lat="47.39148" lon="6.75269">
        <ele>407.8</ele>
        <time>2024-03-17T07:31:49Z</time>
      </trkpt>
      <trkpt lat="47.39159" lon="6.7526">
        <ele>409</ele>
        <time>2024-03-17T07:31:55Z</time>
      </trkpt>
      <trkpt lat="47.39165" lon="6.75258">
        <ele>409.4</ele>
        <time>2024-03-17T07:31:59Z</time>
      </trkpt>
      <trkpt lat="47.39174" lon="6.75253">
        <ele>410</ele>
        <time>2024-03-17T07:32:03Z</time>
      </trkpt>
      <trkpt lat="47.39185" lon="6.75247">
        <ele>410.8</ele>
        <time>2024-03-17T07:32:09Z</time>
      </trkpt>
      <trkpt lat="47.39189" lon="6.75246">
        <ele>411.2</ele>
        <time>2024-03-17T07:32:11Z</time>
      </trkpt>
      <trkpt lat="47.39202" lon="6.75243">
        <ele>412</ele>
        <time>2024-03-17T07:32:19Z</time>
      </trkpt>
      <trkpt lat="47.39206" lon="6.7524">
        <ele>412.2</ele>
        <time>2024-03-17T07:32:21Z</time>
      </trkpt>
      <trkpt lat="47.39218" lon="6.75236">
        <ele>413.4</ele>
        <time>2024-03-17T07:32:27Z</time>
      </trkpt>
      <trkpt lat="47.39222" lon="6.75235">
        <ele>413.8</ele>
        <time>2024-03-17T07:32:29Z</time>
      </trkpt>
      <trkpt lat="47.39227" lon="6.75234">
        <ele>414.4</ele>
        <time>2024-03-17T07:32:32Z</time>
      </trkpt>
      <trkpt lat="47.39241" lon="6.75229">
        <ele>415.6</ele>
        <time>2024-03-17T07:32:39Z</time>
      </trkpt>
      <trkpt lat="47.39266" lon="6.75223">
        <ele>416.6</ele>
        <time>2024-03-17T07:32:49Z</time>
      </trkpt>
      <trkpt lat="47.39268" lon="6.75223">
        <ele>416.6</ele>
        <time>2024-03-17T07:32:50Z</time>
      </trkpt>
      <trkpt lat="47.39286" lon="6.75221">
        <ele>417.2</ele>
        <time>2024-03-17T07:32:59Z</time>
      </trkpt>
      <trkpt lat="47.39296" lon="6.7522">
        <ele>417.6</ele>
        <time>2024-03-17T07:33:04Z</time>
      </trkpt>
      <trkpt lat="47.39304" lon="6.7522">
        <ele>417.8</ele>
        <time>2024-03-17T07:33:09Z</time>
      </trkpt>
      <trkpt lat="47.39331" lon="6.7522">
        <ele>418.4</ele>
        <time>2024-03-17T07:33:19Z</time>
      </trkpt>
      <trkpt lat="47.39345" lon="6.75219">
        <ele>418.6</ele>
        <time>2024-03-17T07:33:25Z</time>
      </trkpt>
      <trkpt lat="47.39355" lon="6.75215">
        <ele>419</ele>
        <time>2024-03-17T07:33:29Z</time>
      </trkpt>
      <trkpt lat="47.39358" lon="6.75214">
        <ele>419</ele>
        <time>2024-03-17T07:33:31Z</time>
      </trkpt>
      <trkpt lat="47.3937" lon="6.75214">
        <ele>419.8</ele>
        <time>2024-03-17T07:33:39Z</time>
      </trkpt>
      <trkpt lat="47.3939" lon="6.7521">
        <ele>420.6</ele>
        <time>2024-03-17T07:33:49Z</time>
      </trkpt>
      <trkpt lat="47.39392" lon="6.7521">
        <ele>420.8</ele>
        <time>2024-03-17T07:33:50Z</time>
      </trkpt>
      <trkpt lat="47.39407" lon="6.75215">
        <ele>421.8</ele>
        <time>2024-03-17T07:33:59Z</time>
      </trkpt>
      <trkpt lat="47.39409" lon="6.75215">
        <ele>422</ele>
        <time>2024-03-17T07:34:00Z</time>
      </trkpt>
      <trkpt lat="47.39419" lon="6.7522">
        <ele>423</ele>
        <time>2024-03-17T07:34:07Z</time>
      </trkpt>
      <trkpt lat="47.39422" lon="6.75223">
        <ele>423.2</ele>
        <time>2024-03-17T07:34:09Z</time>
      </trkpt>
      <trkpt lat="47.39436" lon="6.75226">
        <ele>424</ele>
        <time>2024-03-17T07:34:16Z</time>
      </trkpt>
      <trkpt lat="47.39443" lon="6.75229">
        <ele>424.6</ele>
        <time>2024-03-17T07:34:19Z</time>
      </trkpt>
      <trkpt lat="47.39471" lon="6.75229">
        <ele>425</ele>
        <time>2024-03-17T07:34:29Z</time>
      </trkpt>
      <trkpt lat="47.39488" lon="6.75232">
        <ele>425</ele>
        <time>2024-03-17T07:34:36Z</time>
      </trkpt>
      <trkpt lat="47.39497" lon="6.75232">
        <ele>425.2</ele>
        <time>2024-03-17T07:34:39Z</time>
      </trkpt>
      <trkpt lat="47.39525" lon="6.75231">
        <ele>425</ele>
        <time>2024-03-17T07:34:49Z</time>
      </trkpt>
      <trkpt lat="47.3955" lon="6.75222">
        <ele>425</ele>
        <time>2024-03-17T07:35:00Z</time>
      </trkpt>
      <trkpt lat="47.39582" lon="6.75209">
        <ele>425</ele>
        <time>2024-03-17T07:35:10Z</time>
      </trkpt>
      <trkpt lat="47.39608" lon="6.75196">
        <ele>425</ele>
        <time>2024-03-17T07:35:20Z</time>
      </trkpt>
      <trkpt lat="47.39628" lon="6.75187">
        <ele>425.4</ele>
        <time>2024-03-17T07:35:30Z</time>
      </trkpt>
      <trkpt lat="47.39651" lon="6.75177">
        <ele>425.4</ele>
        <time>2024-03-17T07:35:40Z</time>
      </trkpt>
      <trkpt lat="47.39674" lon="6.75167">
        <ele>425.4</ele>
        <time>2024-03-17T07:35:50Z</time>
      </trkpt>
      <trkpt lat="47.39706" lon="6.75155">
        <ele>425.4</ele>
        <time>2024-03-17T07:36:00Z</time>
      </trkpt>
      <trkpt lat="47.39732" lon="6.75145">
        <ele>425.2</ele>
        <time>2024-03-17T07:36:10Z</time>
      </trkpt>
      <trkpt lat="47.39749" lon="6.75137">
        <ele>425.2</ele>
        <time>2024-03-17T07:36:18Z</time>
      </trkpt>
      <trkpt lat="47.39756" lon="6.75133">
        <ele>425.2</ele>
        <time>2024-03-17T07:36:20Z</time>
      </trkpt>
      <trkpt lat="47.3978" lon="6.75123">
        <ele>425.2</ele>
        <time>2024-03-17T07:36:30Z</time>
      </trkpt>
      <trkpt lat="47.39816" lon="6.75117">
        <ele>425.4</ele>
        <time>2024-03-17T07:36:41Z</time>
      </trkpt>
      <trkpt lat="47.3986" lon="6.751">
        <ele>425.6</ele>
        <time>2024-03-17T07:36:51Z</time>
      </trkpt>
      <trkpt lat="47.39898" lon="6.75086">
        <ele>425.6</ele>
        <time>2024-03-17T07:37:01Z</time>
      </trkpt>
      <trkpt lat="47.39922" lon="6.75076">
        <ele>426</ele>
        <time>2024-03-17T07:37:11Z</time>
      </trkpt>
      <trkpt lat="47.39924" lon="6.75074">
        <ele>426.2</ele>
        <time>2024-03-17T07:37:12Z</time>
      </trkpt>
      <trkpt lat="47.39932" lon="6.75062">
        <ele>427.2</ele>
        <time>2024-03-17T07:37:18Z</time>
      </trkpt>
      <trkpt lat="47.39933" lon="6.75056">
        <ele>428</ele>
        <time>2024-03-17T07:37:21Z</time>
      </trkpt>
      <trkpt lat="47.39934" lon="6.75054">
        <ele>428.2</ele>
        <time>2024-03-17T07:37:23Z</time>
      </trkpt>
      <trkpt lat="47.39937" lon="6.75043">
        <ele>429.4</ele>
        <time>2024-03-17T07:37:29Z</time>
      </trkpt>
      <trkpt lat="47.39938" lon="6.75038">
        <ele>429.6</ele>
        <time>2024-03-17T07:37:31Z</time>
      </trkpt>
      <trkpt lat="47.39942" lon="6.75028">
        <ele>430.4</ele>
        <time>2024-03-17T07:37:36Z</time>
      </trkpt>
      <trkpt lat="47.3995" lon="6.75022">
        <ele>431.2</ele>
        <time>2024-03-17T07:37:41Z</time>
      </trkpt>
      <trkpt lat="47.39955" lon="6.7502">
        <ele>431.6</ele>
        <time>2024-03-17T07:37:43Z</time>
      </trkpt>
      <trkpt lat="47.39964" lon="6.75017">
        <ele>432.6</ele>
        <time>2024-03-17T07:37:48Z</time>
      </trkpt>
      <trkpt lat="47.39973" lon="6.75012">
        <ele>433</ele>
        <time>2024-03-17T07:37:51Z</time>
      </trkpt>
      <trkpt lat="47.3998" lon="6.75009">
        <ele>433.6</ele>
        <time>2024-03-17T07:37:53Z</time>
      </trkpt>
      <trkpt lat="47.39995" lon="6.74998">
        <ele>434.8</ele>
        <time>2024-03-17T07:37:59Z</time>
      </trkpt>
      <trkpt lat="47.39999" lon="6.74995">
        <ele>435</ele>
        <time>2024-03-17T07:38:01Z</time>
      </trkpt>
      <trkpt lat="47.40017" lon="6.74979">
        <ele>435.6</ele>
        <time>2024-03-17T07:38:11Z</time>
      </trkpt>
      <trkpt lat="47.40037" lon="6.74962">
        <ele>435.6</ele>
        <time>2024-03-17T07:38:21Z</time>
      </trkpt>
      <trkpt lat="47.40045" lon="6.74952">
        <ele>435.8</ele>
        <time>2024-03-17T07:38:27Z</time>
      </trkpt>
      <trkpt lat="47.40048" lon="6.74947">
        <ele>436</ele>
        <time>2024-03-17T07:38:31Z</time>
      </trkpt>
      <trkpt lat="47.4005" lon="6.74944">
        <ele>436.2</ele>
        <time>2024-03-17T07:38:35Z</time>
      </trkpt>
      <trkpt lat="47.40051" lon="6.74942">
        <ele>436.4</ele>
        <time>2024-03-17T07:38:40Z</time>
      </trkpt>
      <trkpt lat="47.40061" lon="6.74937">
        <ele>436.6</ele>
        <time>2024-03-17T07:38:45Z</time>
      </trkpt>
      <trkpt lat="47.4007" lon="6.74935">
        <ele>436.8</ele>
        <time>2024-03-17T07:38:48Z</time>
      </trkpt>
      <trkpt lat="47.40074" lon="6.74935">
        <ele>437</ele>
        <time>2024-03-17T07:38:50Z</time>
      </trkpt>
      <trkpt lat="47.40096" lon="6.74931">
        <ele>437.8</ele>
        <time>2024-03-17T07:39:00Z</time>
      </trkpt>
      <trkpt lat="47.40117" lon="6.74943">
        <ele>438.8</ele>
        <time>2024-03-17T07:39:10Z</time>
      </trkpt>
      <trkpt lat="47.40118" lon="6.74944">
        <ele>439</ele>
        <time>2024-03-17T07:39:11Z</time>
      </trkpt>
      <trkpt lat="47.40114" lon="6.74957">
        <ele>439.2</ele>
        <time>2024-03-17T07:39:16Z</time>
      </trkpt>
      <trkpt lat="47.40111" lon="6.74966">
        <ele>439.4</ele>
        <time>2024-03-17T07:39:20Z</time>
      </trkpt>
      <trkpt lat="47.40101" lon="6.74993">
        <ele>440</ele>
        <time>2024-03-17T07:39:31Z</time>
      </trkpt>
      <trkpt lat="47.40092" lon="6.75018">
        <ele>440.4</ele>
        <time>2024-03-17T07:39:41Z</time>
      </trkpt>
      <trkpt lat="47.4007" lon="6.7506">
        <ele>440.6</ele>
        <time>2024-03-17T07:39:52Z</time>
      </trkpt>
      <trkpt lat="47.40045" lon="6.75103">
        <ele>440.8</ele>
        <time>2024-03-17T07:40:03Z</time>
      </trkpt>
      <trkpt lat="47.40043" lon="6.75156">
        <ele>440.2</ele>
        <time>2024-03-17T07:40:13Z</time>
      </trkpt>
      <trkpt lat="47.40052" lon="6.75194">
        <ele>440</ele>
        <time>2024-03-17T07:40:20Z</time>
      </trkpt>
      <trkpt lat="47.40057" lon="6.75207">
        <ele>440</ele>
        <time>2024-03-17T07:40:23Z</time>
      </trkpt>
      <trkpt lat="47.40062" lon="6.75221">
        <ele>440</ele>
        <time>2024-03-17T07:40:26Z</time>
      </trkpt>
      <trkpt lat="47.40078" lon="6.75249">
        <ele>439.8</ele>
        <time>2024-03-17T07:40:33Z</time>
      </trkpt>
      <trkpt lat="47.40102" lon="6.75275">
        <ele>439.2</ele>
        <time>2024-03-17T07:40:41Z</time>
      </trkpt>
      <trkpt lat="47.40109" lon="6.75281">
        <ele>439.2</ele>
        <time>2024-03-17T07:40:43Z</time>
      </trkpt>
      <trkpt lat="47.40115" lon="6.75287">
        <ele>439</ele>
        <time>2024-03-17T07:40:46Z</time>
      </trkpt>
      <trkpt lat="47.40135" lon="6.75291">
        <ele>438.4</ele>
        <time>2024-03-17T07:40:50Z</time>
      </trkpt>
      <trkpt lat="47.40147" lon="6.75299">
        <ele>438.2</ele>
        <time>2024-03-17T07:40:53Z</time>
      </trkpt>
      <trkpt lat="47.40149" lon="6.75302">
        <ele>438.2</ele>
        <time>2024-03-17T07:40:55Z</time>
      </trkpt>
      <trkpt lat="47.40142" lon="6.75306">
        <ele>438.2</ele>
        <time>2024-03-17T07:40:58Z</time>
      </trkpt>
      <trkpt lat="47.40123" lon="6.75311">
        <ele>438.2</ele>
        <time>2024-03-17T07:41:03Z</time>
      </trkpt>
      <trkpt lat="47.40095" lon="6.75316">
        <ele>438</ele>
        <time>2024-03-17T07:41:11Z</time>
      </trkpt>
      <trkpt lat="47.40088" lon="6.75314">
        <ele>437.8</ele>
        <time>2024-03-17T07:41:13Z</time>
      </trkpt>
      <trkpt lat="47.40054" lon="6.75308">
        <ele>437.8</ele>
        <time>2024-03-17T07:41:23Z</time>
      </trkpt>
      <trkpt lat="47.40021" lon="6.75292">
        <ele>437.8</ele>
        <time>2024-03-17T07:41:33Z</time>
      </trkpt>
      <trkpt lat="47.39994" lon="6.75273">
        <ele>437.8</ele>
        <time>2024-03-17T07:41:41Z</time>
      </trkpt>
      <trkpt lat="47.39987" lon="6.75268">
        <ele>437.8</ele>
        <time>2024-03-17T07:41:43Z</time>
      </trkpt>
      <trkpt lat="47.39949" lon="6.75239">
        <ele>437.8</ele>
        <time>2024-03-17T07:41:53Z</time>
      </trkpt>
      <trkpt lat="47.39912" lon="6.75225">
        <ele>437.8</ele>
        <time>2024-03-17T07:42:03Z</time>
      </trkpt>
      <trkpt lat="47.39877" lon="6.7523">
        <ele>438</ele>
        <time>2024-03-17T07:42:13Z</time>
      </trkpt>
      <trkpt lat="47.39825" lon="6.7525">
        <ele>437.4</ele>
        <time>2024-03-17T07:42:23Z</time>
      </trkpt>
      <trkpt lat="47.39812" lon="6.75255">
        <ele>436.8</ele>
        <time>2024-03-17T07:42:25Z</time>
      </trkpt>
      <trkpt lat="47.3979" lon="6.75266">
        <ele>434.8</ele>
        <time>2024-03-17T07:42:28Z</time>
      </trkpt>
      <trkpt lat="47.39783" lon="6.75269">
        <ele>433.8</ele>
        <time>2024-03-17T07:42:29Z</time>
      </trkpt>
      <trkpt lat="47.39767" lon="6.75274">
        <ele>432.2</ele>
        <time>2024-03-17T07:42:31Z</time>
      </trkpt>
      <trkpt lat="47.39752" lon="6.7528">
        <ele>431.2</ele>
        <time>2024-03-17T07:42:33Z</time>
      </trkpt>
      <trkpt lat="47.39717" lon="6.75298">
        <ele>429</ele>
        <time>2024-03-17T07:42:38Z</time>
      </trkpt>
      <trkpt lat="47.39704" lon="6.75305">
        <ele>428</ele>
        <time>2024-03-17T07:42:40Z</time>
      </trkpt>
      <trkpt lat="47.3969" lon="6.75312">
        <ele>426.8</ele>
        <time>2024-03-17T07:42:42Z</time>
      </trkpt>
      <trkpt lat="47.39682" lon="6.75316">
        <ele>426.2</ele>
        <time>2024-03-17T07:42:43Z</time>
      </trkpt>
      <trkpt lat="47.39669" lon="6.75325">
        <ele>425.4</ele>
        <time>2024-03-17T07:42:45Z</time>
      </trkpt>
      <trkpt lat="47.39651" lon="6.75341">
        <ele>424</ele>
        <time>2024-03-17T07:42:48Z</time>
      </trkpt>
      <trkpt lat="47.39642" lon="6.75353">
        <ele>423</ele>
        <time>2024-03-17T07:42:50Z</time>
      </trkpt>
      <trkpt lat="47.39633" lon="6.75363">
        <ele>422</ele>
        <time>2024-03-17T07:42:52Z</time>
      </trkpt>
      <trkpt lat="47.39628" lon="6.75367">
        <ele>421.8</ele>
        <time>2024-03-17T07:42:53Z</time>
      </trkpt>
      <trkpt lat="47.39599" lon="6.75388">
        <ele>421.6</ele>
        <time>2024-03-17T07:43:03Z</time>
      </trkpt>
      <trkpt lat="47.39576" lon="6.754">
        <ele>422.8</ele>
        <time>2024-03-17T07:43:11Z</time>
      </trkpt>
      <trkpt lat="47.39569" lon="6.75403">
        <ele>423.6</ele>
        <time>2024-03-17T07:43:14Z</time>
      </trkpt>
      <trkpt lat="47.39567" lon="6.75405">
        <ele>423.8</ele>
        <time>2024-03-17T07:43:15Z</time>
      </trkpt>
      <trkpt lat="47.39546" lon="6.75415">
        <ele>425</ele>
        <time>2024-03-17T07:43:24Z</time>
      </trkpt>
      <trkpt lat="47.3953" lon="6.75425">
        <ele>426.2</ele>
        <time>2024-03-17T07:43:31Z</time>
      </trkpt>
      <trkpt lat="47.39521" lon="6.75428">
        <ele>426.4</ele>
        <time>2024-03-17T07:43:35Z</time>
      </trkpt>
      <trkpt lat="47.39502" lon="6.75435">
        <ele>427.2</ele>
        <time>2024-03-17T07:43:43Z</time>
      </trkpt>
      <trkpt lat="47.39497" lon="6.75438">
        <ele>427.6</ele>
        <time>2024-03-17T07:43:45Z</time>
      </trkpt>
      <trkpt lat="47.39484" lon="6.75445">
        <ele>428.2</ele>
        <time>2024-03-17T07:43:51Z</time>
      </trkpt>
      <trkpt lat="47.39476" lon="6.7545">
        <ele>428.6</ele>
        <time>2024-03-17T07:43:55Z</time>
      </trkpt>
      <trkpt lat="47.39466" lon="6.75454">
        <ele>429.4</ele>
        <time>2024-03-17T07:44:00Z</time>
      </trkpt>
      <trkpt lat="47.39455" lon="6.75457">
        <ele>430</ele>
        <time>2024-03-17T07:44:05Z</time>
      </trkpt>
      <trkpt lat="47.39448" lon="6.75459">
        <ele>430.4</ele>
        <time>2024-03-17T07:44:09Z</time>
      </trkpt>
      <trkpt lat="47.39435" lon="6.75463">
        <ele>431.4</ele>
        <time>2024-03-17T07:44:15Z</time>
      </trkpt>
      <trkpt lat="47.39433" lon="6.75464">
        <ele>431.6</ele>
        <time>2024-03-17T07:44:16Z</time>
      </trkpt>
      <trkpt lat="47.39419" lon="6.75468">
        <ele>432.4</ele>
        <time>2024-03-17T07:44:25Z</time>
      </trkpt>
      <trkpt lat="47.39414" lon="6.7547">
        <ele>432.6</ele>
        <time>2024-03-17T07:44:27Z</time>
      </trkpt>
      <trkpt lat="47.39398" lon="6.75473">
        <ele>433.6</ele>
        <time>2024-03-17T07:44:35Z</time>
      </trkpt>
      <trkpt lat="47.39392" lon="6.75476">
        <ele>434</ele>
        <time>2024-03-17T07:44:39Z</time>
      </trkpt>
      <trkpt lat="47.39387" lon="6.75477">
        <ele>434.8</ele>
        <time>2024-03-17T07:44:42Z</time>
      </trkpt>
      <trkpt lat="47.39381" lon="6.7548">
        <ele>435</ele>
        <time>2024-03-17T07:44:45Z</time>
      </trkpt>
      <trkpt lat="47.39363" lon="6.75484">
        <ele>435.8</ele>
        <time>2024-03-17T07:44:54Z</time>
      </trkpt>
      <trkpt lat="47.39361" lon="6.75485">
        <ele>435.8</ele>
        <time>2024-03-17T07:44:55Z</time>
      </trkpt>
      <trkpt lat="47.39359" lon="6.75485">
        <ele>436</ele>
        <time>2024-03-17T07:44:56Z</time>
      </trkpt>
      <trkpt lat="47.39357" lon="6.75486">
        <ele>436</ele>
        <time>2024-03-17T07:44:57Z</time>
      </trkpt>
      <trkpt lat="47.39355" lon="6.75486">
        <ele>436</ele>
        <time>2024-03-17T07:44:58Z</time>
      </trkpt>
      <trkpt lat="47.39353" lon="6.75486">
        <ele>436.2</ele>
        <time>2024-03-17T07:44:59Z</time>
      </trkpt>
      <trkpt lat="47.39341" lon="6.7549">
        <ele>437</ele>
        <time>2024-03-17T07:45:05Z</time>
      </trkpt>
      <trkpt lat="47.39327" lon="6.75494">
        <ele>438</ele>
        <time>2024-03-17T07:45:14Z</time>
      </trkpt>
      <trkpt lat="47.39326" lon="6.75494">
        <ele>438.2</ele>
        <time>2024-03-17T07:45:15Z</time>
      </trkpt>
      <trkpt lat="47.39312" lon="6.75501">
        <ele>438.8</ele>
        <time>2024-03-17T07:45:22Z</time>
      </trkpt>
      <trkpt lat="47.39306" lon="6.75504">
        <ele>439</ele>
        <time>2024-03-17T07:45:25Z</time>
      </trkpt>
      <trkpt lat="47.39303" lon="6.75505">
        <ele>439.2</ele>
        <time>2024-03-17T07:45:27Z</time>
      </trkpt>
      <trkpt lat="47.39289" lon="6.75511">
        <ele>440</ele>
        <time>2024-03-17T07:45:35Z</time>
      </trkpt>
      <trkpt lat="47.39287" lon="6.75511">
        <ele>440.2</ele>
        <time>2024-03-17T07:45:36Z</time>
      </trkpt>
      <trkpt lat="47.39269" lon="6.75517">
        <ele>441</ele>
        <time>2024-03-17T07:45:45Z</time>
      </trkpt>
      <trkpt lat="47.39261" lon="6.75519">
        <ele>441.4</ele>
        <time>2024-03-17T07:45:49Z</time>
      </trkpt>
      <trkpt lat="47.39251" lon="6.75524">
        <ele>442.2</ele>
        <time>2024-03-17T07:45:55Z</time>
      </trkpt>
      <trkpt lat="47.39247" lon="6.75526">
        <ele>442.4</ele>
        <time>2024-03-17T07:45:57Z</time>
      </trkpt>
      <trkpt lat="47.39237" lon="6.75539">
        <ele>443</ele>
        <time>2024-03-17T07:46:03Z</time>
      </trkpt>
      <trkpt lat="47.39235" lon="6.75545">
        <ele>443.4</ele>
        <time>2024-03-17T07:46:05Z</time>
      </trkpt>
      <trkpt lat="47.39235" lon="6.75548">
        <ele>443.4</ele>
        <time>2024-03-17T07:46:06Z</time>
      </trkpt>
      <trkpt lat="47.39228" lon="6.75579">
        <ele>444.2</ele>
        <time>2024-03-17T07:46:15Z</time>
      </trkpt>
      <trkpt lat="47.39221" lon="6.75621">
        <ele>443.6</ele>
        <time>2024-03-17T07:46:23Z</time>
      </trkpt>
      <trkpt lat="47.39219" lon="6.75633">
        <ele>443.2</ele>
        <time>2024-03-17T07:46:25Z</time>
      </trkpt>
      <trkpt lat="47.39217" lon="6.75654">
        <ele>442.2</ele>
        <time>2024-03-17T07:46:29Z</time>
      </trkpt>
      <trkpt lat="47.39218" lon="6.75688">
        <ele>441.2</ele>
        <time>2024-03-17T07:46:35Z</time>
      </trkpt>
      <trkpt lat="47.39219" lon="6.75705">
        <ele>441.2</ele>
        <time>2024-03-17T07:46:38Z</time>
      </trkpt>
      <trkpt lat="47.39222" lon="6.75741">
        <ele>440</ele>
        <time>2024-03-17T07:46:44Z</time>
      </trkpt>
      <trkpt lat="47.39222" lon="6.75748">
        <ele>439.6</ele>
        <time>2024-03-17T07:46:45Z</time>
      </trkpt>
      <trkpt lat="47.39224" lon="6.75783">
        <ele>438.8</ele>
        <time>2024-03-17T07:46:50Z</time>
      </trkpt>
      <trkpt lat="47.39227" lon="6.75818">
        <ele>438.2</ele>
        <time>2024-03-17T07:46:55Z</time>
      </trkpt>
      <trkpt lat="47.39228" lon="6.75832">
        <ele>437.4</ele>
        <time>2024-03-17T07:46:57Z</time>
      </trkpt>
      <trkpt lat="47.39233" lon="6.75879">
        <ele>436.2</ele>
        <time>2024-03-17T07:47:03Z</time>
      </trkpt>
      <trkpt lat="47.39236" lon="6.75892">
        <ele>435.6</ele>
        <time>2024-03-17T07:47:05Z</time>
      </trkpt>
      <trkpt lat="47.39237" lon="6.75906">
        <ele>435</ele>
        <time>2024-03-17T07:47:07Z</time>
      </trkpt>
      <trkpt lat="47.39242" lon="6.75955">
        <ele>434</ele>
        <time>2024-03-17T07:47:14Z</time>
      </trkpt>
      <trkpt lat="47.39243" lon="6.75962">
        <ele>433.6</ele>
        <time>2024-03-17T07:47:15Z</time>
      </trkpt>
      <trkpt lat="47.39245" lon="6.75988">
        <ele>432.8</ele>
        <time>2024-03-17T07:47:19Z</time>
      </trkpt>
      <trkpt lat="47.39249" lon="6.76027">
        <ele>432</ele>
        <time>2024-03-17T07:47:25Z</time>
      </trkpt>
      <trkpt lat="47.39251" lon="6.76033">
        <ele>431.8</ele>
        <time>2024-03-17T07:47:26Z</time>
      </trkpt>
      <trkpt lat="47.39252" lon="6.7604">
        <ele>431.8</ele>
        <time>2024-03-17T07:47:27Z</time>
      </trkpt>
      <trkpt lat="47.39254" lon="6.76046">
        <ele>431.6</ele>
        <time>2024-03-17T07:47:28Z</time>
      </trkpt>
      <trkpt lat="47.39275" lon="6.76083">
        <ele>431</ele>
        <time>2024-03-17T07:47:35Z</time>
      </trkpt>
      <trkpt lat="47.39288" lon="6.76101">
        <ele>430.6</ele>
        <time>2024-03-17T07:47:39Z</time>
      </trkpt>
      <trkpt lat="47.39299" lon="6.76117">
        <ele>429.2</ele>
        <time>2024-03-17T07:47:43Z</time>
      </trkpt>
      <trkpt lat="47.39304" lon="6.76127">
        <ele>428.6</ele>
        <time>2024-03-17T07:47:45Z</time>
      </trkpt>
      <trkpt lat="47.39322" lon="6.76153">
        <ele>428</ele>
        <time>2024-03-17T07:47:52Z</time>
      </trkpt>
      <trkpt lat="47.39333" lon="6.76163">
        <ele>427.8</ele>
        <time>2024-03-17T07:47:55Z</time>
      </trkpt>
      <trkpt lat="47.39351" lon="6.76177">
        <ele>426.8</ele>
        <time>2024-03-17T07:48:00Z</time>
      </trkpt>
      <trkpt lat="47.39373" lon="6.7619">
        <ele>426</ele>
        <time>2024-03-17T07:48:05Z</time>
      </trkpt>
      <trkpt lat="47.39387" lon="6.76197">
        <ele>425.8</ele>
        <time>2024-03-17T07:48:08Z</time>
      </trkpt>
      <trkpt lat="47.39415" lon="6.76212">
        <ele>424.6</ele>
        <time>2024-03-17T07:48:14Z</time>
      </trkpt>
      <trkpt lat="47.3942" lon="6.76215">
        <ele>424.6</ele>
        <time>2024-03-17T07:48:15Z</time>
      </trkpt>
      <trkpt lat="47.39448" lon="6.76228">
        <ele>423.6</ele>
        <time>2024-03-17T07:48:20Z</time>
      </trkpt>
      <trkpt lat="47.39483" lon="6.76237">
        <ele>422.8</ele>
        <time>2024-03-17T07:48:25Z</time>
      </trkpt>
      <trkpt lat="47.39495" lon="6.76241">
        <ele>422.6</ele>
        <time>2024-03-17T07:48:27Z</time>
      </trkpt>
      <trkpt lat="47.39521" lon="6.76248">
        <ele>421.2</ele>
        <time>2024-03-17T07:48:32Z</time>
      </trkpt>
      <trkpt lat="47.39531" lon="6.76244">
        <ele>420.6</ele>
        <time>2024-03-17T07:48:35Z</time>
      </trkpt>
      <trkpt lat="47.3954" lon="6.76224">
        <ele>420.2</ele>
        <time>2024-03-17T07:48:40Z</time>
      </trkpt>
      <trkpt lat="47.39547" lon="6.76197">
        <ele>419.8</ele>
        <time>2024-03-17T07:48:45Z</time>
      </trkpt>
      <trkpt lat="47.39551" lon="6.76182">
        <ele>419.2</ele>
        <time>2024-03-17T07:48:48Z</time>
      </trkpt>
      <trkpt lat="47.39554" lon="6.76162">
        <ele>418</ele>
        <time>2024-03-17T07:48:53Z</time>
      </trkpt>
      <trkpt lat="47.39556" lon="6.76153">
        <ele>417.6</ele>
        <time>2024-03-17T07:48:55Z</time>
      </trkpt>
      <trkpt lat="47.39558" lon="6.76144">
        <ele>416.8</ele>
        <time>2024-03-17T07:48:58Z</time>
      </trkpt>
      <trkpt lat="47.39559" lon="6.76143">
        <ele>416.8</ele>
        <time>2024-03-17T07:48:59Z</time>
      </trkpt>
      <trkpt lat="47.39572" lon="6.76141">
        <ele>416.2</ele>
        <time>2024-03-17T07:49:04Z</time>
      </trkpt>
      <trkpt lat="47.39595" lon="6.76146">
        <ele>416</ele>
        <time>2024-03-17T07:49:10Z</time>
      </trkpt>
      <trkpt lat="47.39597" lon="6.76147">
        <ele>415.8</ele>
        <time>2024-03-17T07:49:11Z</time>
      </trkpt>
      <trkpt lat="47.39607" lon="6.76151">
        <ele>415.4</ele>
        <time>2024-03-17T07:49:15Z</time>
      </trkpt>
      <trkpt lat="47.39631" lon="6.76159">
        <ele>415.2</ele>
        <time>2024-03-17T07:49:25Z</time>
      </trkpt>
      <trkpt lat="47.39654" lon="6.76162">
        <ele>415</ele>
        <time>2024-03-17T07:49:35Z</time>
      </trkpt>
      <trkpt lat="47.39674" lon="6.76167">
        <ele>415.4</ele>
        <time>2024-03-17T07:49:45Z</time>
      </trkpt>
      <trkpt lat="47.39694" lon="6.76172">
        <ele>415.4</ele>
        <time>2024-03-17T07:49:55Z</time>
      </trkpt>
      <trkpt lat="47.39715" lon="6.76167">
        <ele>415.4</ele>
        <time>2024-03-17T07:50:03Z</time>
      </trkpt>
      <trkpt lat="47.3972" lon="6.76166">
        <ele>415.4</ele>
        <time>2024-03-17T07:50:05Z</time>
      </trkpt>
      <trkpt lat="47.39746" lon="6.7617">
        <ele>415.2</ele>
        <time>2024-03-17T07:50:15Z</time>
      </trkpt>
      <trkpt lat="47.39777" lon="6.76172">
        <ele>415</ele>
        <time>2024-03-17T07:50:25Z</time>
      </trkpt>
      <trkpt lat="47.39801" lon="6.76167">
        <ele>415</ele>
        <time>2024-03-17T07:50:35Z</time>
      </trkpt>
      <trkpt lat="47.39817" lon="6.76188">
        <ele>415</ele>
        <time>2024-03-17T07:50:45Z</time>
      </trkpt>
      <trkpt lat="47.39834" lon="6.76224">
        <ele>415.2</ele>
        <time>2024-03-17T07:50:56Z</time>
      </trkpt>
      <trkpt lat="47.39856" lon="6.7626">
        <ele>415.2</ele>
        <time>2024-03-17T07:51:06Z</time>
      </trkpt>
      <trkpt lat="47.39872" lon="6.76282">
        <ele>415.2</ele>
        <time>2024-03-17T07:51:16Z</time>
      </trkpt>
      <trkpt lat="47.39888" lon="6.76294">
        <ele>415</ele>
        <time>2024-03-17T07:51:24Z</time>
      </trkpt>
      <trkpt lat="47.39892" lon="6.76297">
        <ele>415</ele>
        <time>2024-03-17T07:51:26Z</time>
      </trkpt>
      <trkpt lat="47.39913" lon="6.76313">
        <ele>415</ele>
        <time>2024-03-17T07:51:36Z</time>
      </trkpt>
      <trkpt lat="47.39935" lon="6.76326">
        <ele>415.2</ele>
        <time>2024-03-17T07:51:46Z</time>
      </trkpt>
      <trkpt lat="47.39958" lon="6.76331">
        <ele>415.2</ele>
        <time>2024-03-17T07:51:56Z</time>
      </trkpt>
      <trkpt lat="47.39973" lon="6.76336">
        <ele>415.2</ele>
        <time>2024-03-17T07:52:06Z</time>
      </trkpt>
      <trkpt lat="47.39988" lon="6.7634">
        <ele>415.2</ele>
        <time>2024-03-17T07:52:16Z</time>
      </trkpt>
      <trkpt lat="47.4001" lon="6.76344">
        <ele>415</ele>
        <time>2024-03-17T07:52:26Z</time>
      </trkpt>
      <trkpt lat="47.40024" lon="6.7636">
        <ele>414.8</ele>
        <time>2024-03-17T07:52:34Z</time>
      </trkpt>
      <trkpt lat="47.40027" lon="6.76364">
        <ele>414.8</ele>
        <time>2024-03-17T07:52:36Z</time>
      </trkpt>
      <trkpt lat="47.40046" lon="6.76383">
        <ele>414.8</ele>
        <time>2024-03-17T07:52:46Z</time>
      </trkpt>
      <trkpt lat="47.40062" lon="6.76394">
        <ele>416</ele>
        <time>2024-03-17T07:52:56Z</time>
      </trkpt>
      <trkpt lat="47.40069" lon="6.76396">
        <ele>417</ele>
        <time>2024-03-17T07:53:04Z</time>
      </trkpt>
      <trkpt lat="47.40071" lon="6.76397">
        <ele>417.4</ele>
        <time>2024-03-17T07:53:06Z</time>
      </trkpt>
      <trkpt lat="47.40078" lon="6.76399">
        <ele>418</ele>
        <time>2024-03-17T07:53:16Z</time>
      </trkpt>
      <trkpt lat="47.40079" lon="6.76399">
        <ele>418</ele>
        <time>2024-03-17T07:53:17Z</time>
      </trkpt>
      <trkpt lat="47.40085" lon="6.76395">
        <ele>418.6</ele>
        <time>2024-03-17T07:53:26Z</time>
      </trkpt>
      <trkpt lat="47.40088" lon="6.76395">
        <ele>419</ele>
        <time>2024-03-17T07:53:29Z</time>
      </trkpt>
      <trkpt lat="47.4009" lon="6.76393">
        <ele>419.6</ele>
        <time>2024-03-17T07:53:36Z</time>
      </trkpt>
      <trkpt lat="47.40089" lon="6.76399">
        <ele>419.6</ele>
        <time>2024-03-17T07:53:46Z</time>
      </trkpt>
      <trkpt lat="47.4009" lon="6.76401">
        <ele>419.6</ele>
        <time>2024-03-17T07:53:48Z</time>
      </trkpt>
      <trkpt lat="47.401" lon="6.76404">
        <ele>419.8</ele>
        <time>2024-03-17T07:53:56Z</time>
      </trkpt>
      <trkpt lat="47.40101" lon="6.76403">
        <ele>420</ele>
        <time>2024-03-17T07:53:57Z</time>
      </trkpt>
      <trkpt lat="47.40103" lon="6.76401">
        <ele>420</ele>
        <time>2024-03-17T07:53:58Z</time>
      </trkpt>
      <trkpt lat="47.40105" lon="6.764">
        <ele>420.2</ele>
        <time>2024-03-17T07:54:00Z</time>
      </trkpt>
      <trkpt lat="47.40106" lon="6.76401">
        <ele>420.4</ele>
        <time>2024-03-17T07:54:01Z</time>
      </trkpt>
      <trkpt lat="47.40108" lon="6.76401">
        <ele>420.6</ele>
        <time>2024-03-17T07:54:02Z</time>
      </trkpt>
      <trkpt lat="47.40109" lon="6.764">
        <ele>421</ele>
        <time>2024-03-17T07:54:03Z</time>
      </trkpt>
      <trkpt lat="47.40111" lon="6.764">
        <ele>421.2</ele>
        <time>2024-03-17T07:54:04Z</time>
      </trkpt>
      <trkpt lat="47.40114" lon="6.764">
        <ele>421.6</ele>
        <time>2024-03-17T07:54:06Z</time>
      </trkpt>
      <trkpt lat="47.40116" lon="6.76401">
        <ele>422.2</ele>
        <time>2024-03-17T07:54:08Z</time>
      </trkpt>
      <trkpt lat="47.40126" lon="6.76406">
        <ele>423.2</ele>
        <time>2024-03-17T07:54:16Z</time>
      </trkpt>
      <trkpt lat="47.40127" lon="6.76407">
        <ele>423.2</ele>
        <time>2024-03-17T07:54:17Z</time>
      </trkpt>
      <trkpt lat="47.40136" lon="6.76414">
        <ele>424.2</ele>
        <time>2024-03-17T07:54:26Z</time>
      </trkpt>
      <trkpt lat="47.40137" lon="6.76414">
        <ele>424.2</ele>
        <time>2024-03-17T07:54:27Z</time>
      </trkpt>
      <trkpt lat="47.40144" lon="6.76417">
        <ele>425.4</ele>
        <time>2024-03-17T07:54:32Z</time>
      </trkpt>
      <trkpt lat="47.40148" lon="6.76424">
        <ele>426.2</ele>
        <time>2024-03-17T07:54:36Z</time>
      </trkpt>
      <trkpt lat="47.40151" lon="6.76425">
        <ele>426.4</ele>
        <time>2024-03-17T07:54:38Z</time>
      </trkpt>
      <trkpt lat="47.40155" lon="6.76429">
        <ele>426.8</ele>
        <time>2024-03-17T07:54:42Z</time>
      </trkpt>
      <trkpt lat="47.4016" lon="6.76431">
        <ele>427.4</ele>
        <time>2024-03-17T07:54:46Z</time>
      </trkpt>
      <trkpt lat="47.4016" lon="6.76432">
        <ele>427.6</ele>
        <time>2024-03-17T07:54:47Z</time>
      </trkpt>
      <trkpt lat="47.40172" lon="6.76435">
        <ele>428.8</ele>
        <time>2024-03-17T07:54:55Z</time>
      </trkpt>
      <trkpt lat="47.40174" lon="6.76435">
        <ele>429</ele>
        <time>2024-03-17T07:54:56Z</time>
      </trkpt>
      <trkpt lat="47.40178" lon="6.76438">
        <ele>429.8</ele>
        <time>2024-03-17T07:55:00Z</time>
      </trkpt>
      <trkpt lat="47.40186" lon="6.76441">
        <ele>430.2</ele>
        <time>2024-03-17T07:55:06Z</time>
      </trkpt>
      <trkpt lat="47.40187" lon="6.76442">
        <ele>430.4</ele>
        <time>2024-03-17T07:55:07Z</time>
      </trkpt>
      <trkpt lat="47.4019" lon="6.76445">
        <ele>431</ele>
        <time>2024-03-17T07:55:09Z</time>
      </trkpt>
      <trkpt lat="47.40195" lon="6.76452">
        <ele>431.6</ele>
        <time>2024-03-17T07:55:14Z</time>
      </trkpt>
      <trkpt lat="47.40197" lon="6.76454">
        <ele>432</ele>
        <time>2024-03-17T07:55:16Z</time>
      </trkpt>
      <trkpt lat="47.40203" lon="6.76457">
        <ele>432.6</ele>
        <time>2024-03-17T07:55:20Z</time>
      </trkpt>
      <trkpt lat="47.40208" lon="6.76462">
        <ele>433.2</ele>
        <time>2024-03-17T07:55:24Z</time>
      </trkpt>
      <trkpt lat="47.40211" lon="6.76463">
        <ele>433.6</ele>
        <time>2024-03-17T07:55:26Z</time>
      </trkpt>
      <trkpt lat="47.40217" lon="6.76466">
        <ele>434.2</ele>
        <time>2024-03-17T07:55:30Z</time>
      </trkpt>
      <trkpt lat="47.40228" lon="6.76471">
        <ele>435</ele>
        <time>2024-03-17T07:55:36Z</time>
      </trkpt>
      <trkpt lat="47.40236" lon="6.76477">
        <ele>435.2</ele>
        <time>2024-03-17T07:55:41Z</time>
      </trkpt>
      <trkpt lat="47.40243" lon="6.76483">
        <ele>435.8</ele>
        <time>2024-03-17T07:55:46Z</time>
      </trkpt>
      <trkpt lat="47.40247" lon="6.76485">
        <ele>436</ele>
        <time>2024-03-17T07:55:48Z</time>
      </trkpt>
      <trkpt lat="47.40255" lon="6.76489">
        <ele>436.2</ele>
        <time>2024-03-17T07:55:52Z</time>
      </trkpt>
      <trkpt lat="47.40263" lon="6.76493">
        <ele>436.4</ele>
        <time>2024-03-17T07:55:56Z</time>
      </trkpt>
      <trkpt lat="47.40284" lon="6.76504">
        <ele>436.8</ele>
        <time>2024-03-17T07:56:06Z</time>
      </trkpt>
      <trkpt lat="47.40307" lon="6.76521">
        <ele>436.8</ele>
        <time>2024-03-17T07:56:16Z</time>
      </trkpt>
      <trkpt lat="47.40332" lon="6.76539">
        <ele>436.8</ele>
        <time>2024-03-17T07:56:26Z</time>
      </trkpt>
      <trkpt lat="47.40351" lon="6.76547">
        <ele>437</ele>
        <time>2024-03-17T07:56:36Z</time>
      </trkpt>
      <trkpt lat="47.40352" lon="6.76548">
        <ele>437</ele>
        <time>2024-03-17T07:56:37Z</time>
      </trkpt>
      <trkpt lat="47.40354" lon="6.7655">
        <ele>437.4</ele>
        <time>2024-03-17T07:56:39Z</time>
      </trkpt>
      <trkpt lat="47.4036" lon="6.76555">
        <ele>438</ele>
        <time>2024-03-17T07:56:46Z</time>
      </trkpt>
      <trkpt lat="47.40362" lon="6.76553">
        <ele>438.4</ele>
        <time>2024-03-17T07:56:53Z</time>
      </trkpt>
      <trkpt lat="47.40362" lon="6.76554">
        <ele>438.4</ele>
        <time>2024-03-17T07:56:56Z</time>
      </trkpt>
      <trkpt lat="47.40365" lon="6.76555">
        <ele>438.6</ele>
        <time>2024-03-17T07:57:01Z</time>
      </trkpt>
      <trkpt lat="47.40366" lon="6.76556">
        <ele>438.6</ele>
        <time>2024-03-17T07:57:06Z</time>
      </trkpt>
      <trkpt lat="47.4037" lon="6.76559">
        <ele>438.6</ele>
        <time>2024-03-17T07:57:12Z</time>
      </trkpt>
      <trkpt lat="47.40378" lon="6.76561">
        <ele>438.6</ele>
        <time>2024-03-17T07:57:16Z</time>
      </trkpt>
      <trkpt lat="47.40391" lon="6.7656">
        <ele>438.8</ele>
        <time>2024-03-17T07:57:22Z</time>
      </trkpt>
      <trkpt lat="47.404" lon="6.76553">
        <ele>438.8</ele>
        <time>2024-03-17T07:57:26Z</time>
      </trkpt>
      <trkpt lat="47.40413" lon="6.76541">
        <ele>439.4</ele>
        <time>2024-03-17T07:57:35Z</time>
      </trkpt>
      <trkpt lat="47.40414" lon="6.76541">
        <ele>439.4</ele>
        <time>2024-03-17T07:57:36Z</time>
      </trkpt>
      <trkpt lat="47.40422" lon="6.76544">
        <ele>440.6</ele>
        <time>2024-03-17T07:57:41Z</time>
      </trkpt>
      <trkpt lat="47.4043" lon="6.76551">
        <ele>441.4</ele>
        <time>2024-03-17T07:57:46Z</time>
      </trkpt>
      <trkpt lat="47.40434" lon="6.76552">
        <ele>441.6</ele>
        <time>2024-03-17T07:57:48Z</time>
      </trkpt>
      <trkpt lat="47.40439" lon="6.76553">
        <ele>442.2</ele>
        <time>2024-03-17T07:57:51Z</time>
      </trkpt>
      <trkpt lat="47.40441" lon="6.76553">
        <ele>443</ele>
        <time>2024-03-17T07:57:53Z</time>
      </trkpt>
      <trkpt lat="47.40445" lon="6.76555">
        <ele>443.8</ele>
        <time>2024-03-17T07:57:56Z</time>
      </trkpt>
      <trkpt lat="47.40447" lon="6.76555">
        <ele>444</ele>
        <time>2024-03-17T07:57:57Z</time>
      </trkpt>
      <trkpt lat="47.4046" lon="6.7656">
        <ele>445</ele>
        <time>2024-03-17T07:58:03Z</time>
      </trkpt>
      <trkpt lat="47.40466" lon="6.76561">
        <ele>445.4</ele>
        <time>2024-03-17T07:58:06Z</time>
      </trkpt>
      <trkpt lat="47.40472" lon="6.76564">
        <ele>446.2</ele>
        <time>2024-03-17T07:58:10Z</time>
      </trkpt>
      <trkpt lat="47.40478" lon="6.76569">
        <ele>447.2</ele>
        <time>2024-03-17T07:58:15Z</time>
      </trkpt>
      <trkpt lat="47.40479" lon="6.7657">
        <ele>447.4</ele>
        <time>2024-03-17T07:58:16Z</time>
      </trkpt>
      <trkpt lat="47.40481" lon="6.76573">
        <ele>448.4</ele>
        <time>2024-03-17T07:58:21Z</time>
      </trkpt>
      <trkpt lat="47.40482" lon="6.76572">
        <ele>449</ele>
        <time>2024-03-17T07:58:26Z</time>
      </trkpt>
      <trkpt lat="47.40489" lon="6.7657">
        <ele>449.4</ele>
        <time>2024-03-17T07:58:36Z</time>
      </trkpt>
      <trkpt lat="47.4049" lon="6.7657">
        <ele>449.4</ele>
        <time>2024-03-17T07:58:37Z</time>
      </trkpt>
      <trkpt lat="47.40501" lon="6.76576">
        <ele>449.4</ele>
        <time>2024-03-17T07:58:44Z</time>
      </trkpt>
      <trkpt lat="47.40503" lon="6.76578">
        <ele>449.4</ele>
        <time>2024-03-17T07:58:46Z</time>
      </trkpt>
      <trkpt lat="47.40513" lon="6.76585">
        <ele>450.2</ele>
        <time>2024-03-17T07:58:56Z</time>
      </trkpt>
      <trkpt lat="47.40517" lon="6.76586">
        <ele>450.6</ele>
        <time>2024-03-17T07:58:58Z</time>
      </trkpt>
      <trkpt lat="47.40524" lon="6.76595">
        <ele>451.6</ele>
        <time>2024-03-17T07:59:04Z</time>
      </trkpt>
      <trkpt lat="47.40526" lon="6.76596">
        <ele>451.6</ele>
        <time>2024-03-17T07:59:05Z</time>
      </trkpt>
      <trkpt lat="47.40527" lon="6.76596">
        <ele>452</ele>
        <time>2024-03-17T07:59:06Z</time>
      </trkpt>
      <trkpt lat="47.4053" lon="6.76598">
        <ele>452.4</ele>
        <time>2024-03-17T07:59:08Z</time>
      </trkpt>
      <trkpt lat="47.40531" lon="6.76597">
        <ele>452.6</ele>
        <time>2024-03-17T07:59:09Z</time>
      </trkpt>
      <trkpt lat="47.40533" lon="6.76597">
        <ele>452.8</ele>
        <time>2024-03-17T07:59:11Z</time>
      </trkpt>
      <trkpt lat="47.40538" lon="6.76597">
        <ele>453.6</ele>
        <time>2024-03-17T07:59:15Z</time>
      </trkpt>
      <trkpt lat="47.4054" lon="6.76597">
        <ele>453.8</ele>
        <time>2024-03-17T07:59:16Z</time>
      </trkpt>
      <trkpt lat="47.40545" lon="6.76599">
        <ele>454.6</ele>
        <time>2024-03-17T07:59:19Z</time>
      </trkpt>
      <trkpt lat="47.40559" lon="6.76605">
        <ele>455.4</ele>
        <time>2024-03-17T07:59:26Z</time>
      </trkpt>
      <trkpt lat="47.40562" lon="6.76607">
        <ele>455.8</ele>
        <time>2024-03-17T07:59:28Z</time>
      </trkpt>
      <trkpt lat="47.40581" lon="6.76605">
        <ele>456.4</ele>
        <time>2024-03-17T07:59:36Z</time>
      </trkpt>
      <trkpt lat="47.40595" lon="6.76604">
        <ele>456.8</ele>
        <time>2024-03-17T07:59:40Z</time>
      </trkpt>
      <trkpt lat="47.40617" lon="6.76598">
        <ele>456.8</ele>
        <time>2024-03-17T07:59:46Z</time>
      </trkpt>
      <trkpt lat="47.40643" lon="6.76587">
        <ele>456.2</ele>
        <time>2024-03-17T07:59:56Z</time>
      </trkpt>
      <trkpt lat="47.4066" lon="6.76567">
        <ele>455.6</ele>
        <time>2024-03-17T08:00:02Z</time>
      </trkpt>
      <trkpt lat="47.4068" lon="6.76556">
        <ele>455.6</ele>
        <time>2024-03-17T08:00:06Z</time>
      </trkpt>
      <trkpt lat="47.40688" lon="6.7655">
        <ele>455.4</ele>
        <time>2024-03-17T08:00:08Z</time>
      </trkpt>
      <trkpt lat="47.40694" lon="6.76545">
        <ele>454.4</ele>
        <time>2024-03-17T08:00:10Z</time>
      </trkpt>
      <trkpt lat="47.40712" lon="6.76531">
        <ele>453.6</ele>
        <time>2024-03-17T08:00:16Z</time>
      </trkpt>
      <trkpt lat="47.40715" lon="6.7653">
        <ele>453.2</ele>
        <time>2024-03-17T08:00:17Z</time>
      </trkpt>
      <trkpt lat="47.40722" lon="6.76535">
        <ele>452</ele>
        <time>2024-03-17T08:00:20Z</time>
      </trkpt>
      <trkpt lat="47.40739" lon="6.76566">
        <ele>451.4</ele>
        <time>2024-03-17T08:00:26Z</time>
      </trkpt>
      <trkpt lat="47.40746" lon="6.76575">
        <ele>450.6</ele>
        <time>2024-03-17T08:00:28Z</time>
      </trkpt>
      <trkpt lat="47.40752" lon="6.76582">
        <ele>448.4</ele>
        <time>2024-03-17T08:00:30Z</time>
      </trkpt>
      <trkpt lat="47.40756" lon="6.76585">
        <ele>447.2</ele>
        <time>2024-03-17T08:00:31Z</time>
      </trkpt>
      <trkpt lat="47.4076" lon="6.76588">
        <ele>446</ele>
        <time>2024-03-17T08:00:32Z</time>
      </trkpt>
      <trkpt lat="47.40766" lon="6.76593">
        <ele>444.8</ele>
        <time>2024-03-17T08:00:34Z</time>
      </trkpt>
      <trkpt lat="47.40774" lon="6.76598">
        <ele>444</ele>
        <time>2024-03-17T08:00:36Z</time>
      </trkpt>
      <trkpt lat="47.40777" lon="6.76601">
        <ele>443.8</ele>
        <time>2024-03-17T08:00:37Z</time>
      </trkpt>
      <trkpt lat="47.40791" lon="6.7661">
        <ele>442.8</ele>
        <time>2024-03-17T08:00:42Z</time>
      </trkpt>
      <trkpt lat="47.40793" lon="6.76612">
        <ele>442</ele>
        <time>2024-03-17T08:00:43Z</time>
      </trkpt>
      <trkpt lat="47.40794" lon="6.76615">
        <ele>441.6</ele>
        <time>2024-03-17T08:00:44Z</time>
      </trkpt>
      <trkpt lat="47.40795" lon="6.76619">
        <ele>441</ele>
        <time>2024-03-17T08:00:46Z</time>
      </trkpt>
      <trkpt lat="47.4079" lon="6.76626">
        <ele>440.6</ele>
        <time>2024-03-17T08:00:50Z</time>
      </trkpt>
      <trkpt lat="47.40785" lon="6.76632">
        <ele>439.2</ele>
        <time>2024-03-17T08:00:53Z</time>
      </trkpt>
      <trkpt lat="47.40783" lon="6.76636">
        <ele>437.6</ele>
        <time>2024-03-17T08:00:55Z</time>
      </trkpt>
      <trkpt lat="47.40783" lon="6.76637">
        <ele>437</ele>
        <time>2024-03-17T08:00:56Z</time>
      </trkpt>
      <trkpt lat="47.40783" lon="6.76638">
        <ele>435.8</ele>
        <time>2024-03-17T08:00:58Z</time>
      </trkpt>
      <trkpt lat="47.40783" lon="6.76638">
        <ele>434.8</ele>
        <time>2024-03-17T08:00:59Z</time>
      </trkpt>
      <trkpt lat="47.40782" lon="6.7664">
        <ele>434</ele>
        <time>2024-03-17T08:01:00Z</time>
      </trkpt>
      <trkpt lat="47.40781" lon="6.76643">
        <ele>432.6</ele>
        <time>2024-03-17T08:01:02Z</time>
      </trkpt>
      <trkpt lat="47.40781" lon="6.76646">
        <ele>431.4</ele>
        <time>2024-03-17T08:01:04Z</time>
      </trkpt>
      <trkpt lat="47.4078" lon="6.76648">
        <ele>431</ele>
        <time>2024-03-17T08:01:05Z</time>
      </trkpt>
      <trkpt lat="47.4078" lon="6.7665">
        <ele>430.4</ele>
        <time>2024-03-17T08:01:06Z</time>
      </trkpt>
      <trkpt lat="47.4078" lon="6.76652">
        <ele>430</ele>
        <time>2024-03-17T08:01:07Z</time>
      </trkpt>
      <trkpt lat="47.40778" lon="6.7666">
        <ele>428.8</ele>
        <time>2024-03-17T08:01:10Z</time>
      </trkpt>
      <trkpt lat="47.40775" lon="6.76669">
        <ele>427.8</ele>
        <time>2024-03-17T08:01:13Z</time>
      </trkpt>
      <trkpt lat="47.40773" lon="6.76677">
        <ele>426.4</ele>
        <time>2024-03-17T08:01:16Z</time>
      </trkpt>
      <trkpt lat="47.4077" lon="6.76687">
        <ele>425</ele>
        <time>2024-03-17T08:01:19Z</time>
      </trkpt>
      <trkpt lat="47.40768" lon="6.76693">
        <ele>423.8</ele>
        <time>2024-03-17T08:01:21Z</time>
      </trkpt>
      <trkpt lat="47.40766" lon="6.76703">
        <ele>422.2</ele>
        <time>2024-03-17T08:01:24Z</time>
      </trkpt>
      <trkpt lat="47.40764" lon="6.76709">
        <ele>421.4</ele>
        <time>2024-03-17T08:01:26Z</time>
      </trkpt>
      <trkpt lat="47.40763" lon="6.76712">
        <ele>421</ele>
        <time>2024-03-17T08:01:27Z</time>
      </trkpt>
      <trkpt lat="47.40761" lon="6.76718">
        <ele>419.8</ele>
        <time>2024-03-17T08:01:30Z</time>
      </trkpt>
      <trkpt lat="47.40761" lon="6.76721">
        <ele>419.4</ele>
        <time>2024-03-17T08:01:31Z</time>
      </trkpt>
      <trkpt lat="47.40759" lon="6.76726">
        <ele>418.4</ele>
        <time>2024-03-17T08:01:33Z</time>
      </trkpt>
      <trkpt lat="47.40759" lon="6.76731">
        <ele>418</ele>
        <time>2024-03-17T08:01:34Z</time>
      </trkpt>
      <trkpt lat="47.40758" lon="6.76737">
        <ele>417.6</ele>
        <time>2024-03-17T08:01:35Z</time>
      </trkpt>
      <trkpt lat="47.40757" lon="6.76744">
        <ele>417.2</ele>
        <time>2024-03-17T08:01:36Z</time>
      </trkpt>
      <trkpt lat="47.40756" lon="6.76766">
        <ele>416.2</ele>
        <time>2024-03-17T08:01:39Z</time>
      </trkpt>
      <trkpt lat="47.40755" lon="6.76779">
        <ele>414.8</ele>
        <time>2024-03-17T08:01:41Z</time>
      </trkpt>
      <trkpt lat="47.40754" lon="6.76792">
        <ele>413.4</ele>
        <time>2024-03-17T08:01:43Z</time>
      </trkpt>
      <trkpt lat="47.40755" lon="6.76802">
        <ele>412.4</ele>
        <time>2024-03-17T08:01:45Z</time>
      </trkpt>
      <trkpt lat="47.40755" lon="6.76806">
        <ele>412.2</ele>
        <time>2024-03-17T08:01:46Z</time>
      </trkpt>
      <trkpt lat="47.4076" lon="6.76817">
        <ele>411.4</ele>
        <time>2024-03-17T08:01:50Z</time>
      </trkpt>
      <trkpt lat="47.4077" lon="6.76834">
        <ele>411.2</ele>
        <time>2024-03-17T08:01:56Z</time>
      </trkpt>
      <trkpt lat="47.40783" lon="6.76854">
        <ele>411.6</ele>
        <time>2024-03-17T08:02:04Z</time>
      </trkpt>
      <trkpt lat="47.40786" lon="6.76858">
        <ele>412.2</ele>
        <time>2024-03-17T08:02:06Z</time>
      </trkpt>
      <trkpt lat="47.40786" lon="6.7686">
        <ele>412.8</ele>
        <time>2024-03-17T08:02:07Z</time>
      </trkpt>
      <trkpt lat="47.40793" lon="6.76869">
        <ele>414</ele>
        <time>2024-03-17T08:02:11Z</time>
      </trkpt>
      <trkpt lat="47.40804" lon="6.76878">
        <ele>414.8</ele>
        <time>2024-03-17T08:02:16Z</time>
      </trkpt>
      <trkpt lat="47.40806" lon="6.76879">
        <ele>415</ele>
        <time>2024-03-17T08:02:17Z</time>
      </trkpt>
      <trkpt lat="47.40818" lon="6.76895">
        <ele>416</ele>
        <time>2024-03-17T08:02:24Z</time>
      </trkpt>
      <trkpt lat="47.40823" lon="6.769">
        <ele>416.4</ele>
        <time>2024-03-17T08:02:26Z</time>
      </trkpt>
      <trkpt lat="47.40831" lon="6.7691">
        <ele>417</ele>
        <time>2024-03-17T08:02:30Z</time>
      </trkpt>
      <trkpt lat="47.40845" lon="6.76928">
        <ele>417.4</ele>
        <time>2024-03-17T08:02:36Z</time>
      </trkpt>
      <trkpt lat="47.40867" lon="6.76967">
        <ele>417.8</ele>
        <time>2024-03-17T08:02:46Z</time>
      </trkpt>
      <trkpt lat="47.40891" lon="6.77015">
        <ele>417.6</ele>
        <time>2024-03-17T08:02:56Z</time>
      </trkpt>
      <trkpt lat="47.40917" lon="6.7707">
        <ele>416.2</ele>
        <time>2024-03-17T08:03:06Z</time>
      </trkpt>
      <trkpt lat="47.40921" lon="6.77076">
        <ele>416</ele>
        <time>2024-03-17T08:03:07Z</time>
      </trkpt>
      <trkpt lat="47.40942" lon="6.77112">
        <ele>415.4</ele>
        <time>2024-03-17T08:03:14Z</time>
      </trkpt>
      <trkpt lat="47.40947" lon="6.77122">
        <ele>415.2</ele>
        <time>2024-03-17T08:03:16Z</time>
      </trkpt>
      <trkpt lat="47.4095" lon="6.77127">
        <ele>414.8</ele>
        <time>2024-03-17T08:03:17Z</time>
      </trkpt>
      <trkpt lat="47.40958" lon="6.77138">
        <ele>413.6</ele>
        <time>2024-03-17T08:03:20Z</time>
      </trkpt>
      <trkpt lat="47.40967" lon="6.7715">
        <ele>412.6</ele>
        <time>2024-03-17T08:03:23Z</time>
      </trkpt>
      <trkpt lat="47.40975" lon="6.77159">
        <ele>411.2</ele>
        <time>2024-03-17T08:03:25Z</time>
      </trkpt>
      <trkpt lat="47.40979" lon="6.77164">
        <ele>410.6</ele>
        <time>2024-03-17T08:03:26Z</time>
      </trkpt>
      <trkpt lat="47.40987" lon="6.77173">
        <ele>409.8</ele>
        <time>2024-03-17T08:03:28Z</time>
      </trkpt>
      <trkpt lat="47.40992" lon="6.77177">
        <ele>409.6</ele>
        <time>2024-03-17T08:03:29Z</time>
      </trkpt>
      <trkpt lat="47.41002" lon="6.77185">
        <ele>408</ele>
        <time>2024-03-17T08:03:31Z</time>
      </trkpt>
      <trkpt lat="47.41013" lon="6.77194">
        <ele>406.8</ele>
        <time>2024-03-17T08:03:33Z</time>
      </trkpt>
      <trkpt lat="47.4103" lon="6.77206">
        <ele>405.6</ele>
        <time>2024-03-17T08:03:36Z</time>
      </trkpt>
      <trkpt lat="47.41057" lon="6.7722">
        <ele>404.4</ele>
        <time>2024-03-17T08:03:43Z</time>
      </trkpt>
      <trkpt lat="47.41072" lon="6.77224">
        <ele>404</ele>
        <time>2024-03-17T08:03:46Z</time>
      </trkpt>
      <trkpt lat="47.41086" lon="6.77228">
        <ele>403.8</ele>
        <time>2024-03-17T08:03:49Z</time>
      </trkpt>
      <trkpt lat="47.41095" lon="6.77235">
        <ele>403.6</ele>
        <time>2024-03-17T08:03:51Z</time>
      </trkpt>
      <trkpt lat="47.41106" lon="6.77247">
        <ele>403.4</ele>
        <time>2024-03-17T08:03:54Z</time>
      </trkpt>
      <trkpt lat="47.41113" lon="6.77257">
        <ele>402.8</ele>
        <time>2024-03-17T08:03:56Z</time>
      </trkpt>
      <trkpt lat="47.41139" lon="6.77295">
        <ele>402.4</ele>
        <time>2024-03-17T08:04:01Z</time>
      </trkpt>
      <trkpt lat="47.41158" lon="6.77321">
        <ele>402</ele>
        <time>2024-03-17T08:04:06Z</time>
      </trkpt>
      <trkpt lat="47.41176" lon="6.77348">
        <ele>401.2</ele>
        <time>2024-03-17T08:04:11Z</time>
      </trkpt>
      <trkpt lat="47.4119" lon="6.77375">
        <ele>400</ele>
        <time>2024-03-17T08:04:16Z</time>
      </trkpt>
      <trkpt lat="47.41193" lon="6.7738">
        <ele>399.6</ele>
        <time>2024-03-17T08:04:17Z</time>
      </trkpt>
      <trkpt lat="47.41196" lon="6.77385">
        <ele>399.2</ele>
        <time>2024-03-17T08:04:18Z</time>
      </trkpt>
      <trkpt lat="47.41199" lon="6.77391">
        <ele>398.8</ele>
        <time>2024-03-17T08:04:19Z</time>
      </trkpt>
      <trkpt lat="47.41212" lon="6.77412">
        <ele>397.4</ele>
        <time>2024-03-17T08:04:23Z</time>
      </trkpt>
      <trkpt lat="47.41218" lon="6.77426">
        <ele>395.8</ele>
        <time>2024-03-17T08:04:26Z</time>
      </trkpt>
      <trkpt lat="47.41221" lon="6.77433">
        <ele>394.6</ele>
        <time>2024-03-17T08:04:28Z</time>
      </trkpt>
      <trkpt lat="47.41225" lon="6.77439">
        <ele>393.4</ele>
        <time>2024-03-17T08:04:30Z</time>
      </trkpt>
      <trkpt lat="47.41229" lon="6.77445">
        <ele>392.4</ele>
        <time>2024-03-17T08:04:32Z</time>
      </trkpt>
      <trkpt lat="47.41234" lon="6.77456">
        <ele>391.2</ele>
        <time>2024-03-17T08:04:35Z</time>
      </trkpt>
      <trkpt lat="47.41236" lon="6.77459">
        <ele>390.8</ele>
        <time>2024-03-17T08:04:36Z</time>
      </trkpt>
      <trkpt lat="47.41241" lon="6.77466">
        <ele>390.2</ele>
        <time>2024-03-17T08:04:38Z</time>
      </trkpt>
      <trkpt lat="47.41247" lon="6.77475">
        <ele>388.8</ele>
        <time>2024-03-17T08:04:41Z</time>
      </trkpt>
      <trkpt lat="47.41251" lon="6.77487">
        <ele>387.4</ele>
        <time>2024-03-17T08:04:44Z</time>
      </trkpt>
      <trkpt lat="47.41253" lon="6.77494">
        <ele>386.4</ele>
        <time>2024-03-17T08:04:46Z</time>
      </trkpt>
      <trkpt lat="47.41255" lon="6.77497">
        <ele>385.8</ele>
        <time>2024-03-17T08:04:47Z</time>
      </trkpt>
      <trkpt lat="47.41259" lon="6.77503">
        <ele>384.8</ele>
        <time>2024-03-17T08:04:49Z</time>
      </trkpt>
      <trkpt lat="47.41267" lon="6.77513">
        <ele>383.4</ele>
        <time>2024-03-17T08:04:51Z</time>
      </trkpt>
      <trkpt lat="47.41277" lon="6.77524">
        <ele>381.6</ele>
        <time>2024-03-17T08:04:53Z</time>
      </trkpt>
      <trkpt lat="47.41287" lon="6.77532">
        <ele>380.6</ele>
        <time>2024-03-17T08:04:55Z</time>
      </trkpt>
      <trkpt lat="47.41291" lon="6.77537">
        <ele>379.8</ele>
        <time>2024-03-17T08:04:56Z</time>
      </trkpt>
      <trkpt lat="47.41296" lon="6.7754">
        <ele>379</ele>
        <time>2024-03-17T08:04:57Z</time>
      </trkpt>
      <trkpt lat="47.41301" lon="6.77544">
        <ele>377.8</ele>
        <time>2024-03-17T08:04:58Z</time>
      </trkpt>
      <trkpt lat="47.4131" lon="6.77552">
        <ele>376</ele>
        <time>2024-03-17T08:05:00Z</time>
      </trkpt>
      <trkpt lat="47.4132" lon="6.77559">
        <ele>374.6</ele>
        <time>2024-03-17T08:05:02Z</time>
      </trkpt>
      <trkpt lat="47.41337" lon="6.77571">
        <ele>373.4</ele>
        <time>2024-03-17T08:05:05Z</time>
      </trkpt>
      <trkpt lat="47.41343" lon="6.77573">
        <ele>373.2</ele>
        <time>2024-03-17T08:05:06Z</time>
      </trkpt>
      <trkpt lat="47.4136" lon="6.7758">
        <ele>372</ele>
        <time>2024-03-17T08:05:09Z</time>
      </trkpt>
      <trkpt lat="47.41378" lon="6.77588">
        <ele>370.4</ele>
        <time>2024-03-17T08:05:12Z</time>
      </trkpt>
      <trkpt lat="47.41397" lon="6.77594">
        <ele>369</ele>
        <time>2024-03-17T08:05:15Z</time>
      </trkpt>
      <trkpt lat="47.41404" lon="6.77595">
        <ele>368.6</ele>
        <time>2024-03-17T08:05:16Z</time>
      </trkpt>
      <trkpt lat="47.41416" lon="6.77596">
        <ele>367.8</ele>
        <time>2024-03-17T08:05:18Z</time>
      </trkpt>
      <trkpt lat="47.41432" lon="6.77596">
        <ele>366.6</ele>
        <time>2024-03-17T08:05:21Z</time>
      </trkpt>
      <trkpt lat="47.41443" lon="6.776">
        <ele>366.4</ele>
        <time>2024-03-17T08:05:23Z</time>
      </trkpt>
      <trkpt lat="47.41453" lon="6.77605">
        <ele>366.2</ele>
        <time>2024-03-17T08:05:25Z</time>
      </trkpt>
      <trkpt lat="47.41457" lon="6.77609">
        <ele>366.2</ele>
        <time>2024-03-17T08:05:26Z</time>
      </trkpt>
      <trkpt lat="47.41469" lon="6.77617">
        <ele>366</ele>
        <time>2024-03-17T08:05:29Z</time>
      </trkpt>
      <trkpt lat="47.41473" lon="6.77617">
        <ele>366</ele>
        <time>2024-03-17T08:05:30Z</time>
      </trkpt>
      <trkpt lat="47.41483" lon="6.7761">
        <ele>366</ele>
        <time>2024-03-17T08:05:33Z</time>
      </trkpt>
      <trkpt lat="47.41492" lon="6.77608">
        <ele>366</ele>
        <time>2024-03-17T08:05:35Z</time>
      </trkpt>
      <trkpt lat="47.41497" lon="6.77607">
        <ele>366</ele>
        <time>2024-03-17T08:05:36Z</time>
      </trkpt>
      <trkpt lat="47.41514" lon="6.77606">
        <ele>365.6</ele>
        <time>2024-03-17T08:05:40Z</time>
      </trkpt>
      <trkpt lat="47.41534" lon="6.77603">
        <ele>365.6</ele>
        <time>2024-03-17T08:05:46Z</time>
      </trkpt>
      <trkpt lat="47.41568" lon="6.77599">
        <ele>365.6</ele>
        <time>2024-03-17T08:05:54Z</time>
      </trkpt>
      <trkpt lat="47.41575" lon="6.77598">
        <ele>365.6</ele>
        <time>2024-03-17T08:05:56Z</time>
      </trkpt>
      <trkpt lat="47.41608" lon="6.77609">
        <ele>366.2</ele>
        <time>2024-03-17T08:06:06Z</time>
      </trkpt>
      <trkpt lat="47.4164" lon="6.77633">
        <ele>366.4</ele>
        <time>2024-03-17T08:06:16Z</time>
      </trkpt>
      <trkpt lat="47.41659" lon="6.77652">
        <ele>366.6</ele>
        <time>2024-03-17T08:06:23Z</time>
      </trkpt>
      <trkpt lat="47.41666" lon="6.7766">
        <ele>366.8</ele>
        <time>2024-03-17T08:06:26Z</time>
      </trkpt>
      <trkpt lat="47.4169" lon="6.77679">
        <ele>367.6</ele>
        <time>2024-03-17T08:06:36Z</time>
      </trkpt>
      <trkpt lat="47.41693" lon="6.77679">
        <ele>367.8</ele>
        <time>2024-03-17T08:06:37Z</time>
      </trkpt>
      <trkpt lat="47.41701" lon="6.77678">
        <ele>368.4</ele>
        <time>2024-03-17T08:06:40Z</time>
      </trkpt>
      <trkpt lat="47.41716" lon="6.77671">
        <ele>368.8</ele>
        <time>2024-03-17T08:06:45Z</time>
      </trkpt>
      <trkpt lat="47.41719" lon="6.77669">
        <ele>369</ele>
        <time>2024-03-17T08:06:46Z</time>
      </trkpt>
      <trkpt lat="47.41739" lon="6.77657">
        <ele>370</ele>
        <time>2024-03-17T08:06:54Z</time>
      </trkpt>
      <trkpt lat="47.41745" lon="6.77654">
        <ele>370.4</ele>
        <time>2024-03-17T08:06:56Z</time>
      </trkpt>
      <trkpt lat="47.41756" lon="6.77649">
        <ele>371</ele>
        <time>2024-03-17T08:07:00Z</time>
      </trkpt>
      <trkpt lat="47.4177" lon="6.77642">
        <ele>372</ele>
        <time>2024-03-17T08:07:06Z</time>
      </trkpt>
      <trkpt lat="47.41775" lon="6.77639">
        <ele>372.2</ele>
        <time>2024-03-17T08:07:08Z</time>
      </trkpt>
      <trkpt lat="47.41785" lon="6.77633">
        <ele>373</ele>
        <time>2024-03-17T08:07:12Z</time>
      </trkpt>
      <trkpt lat="47.41787" lon="6.77631">
        <ele>373.2</ele>
        <time>2024-03-17T08:07:13Z</time>
      </trkpt>
      <trkpt lat="47.41793" lon="6.77627">
        <ele>373.6</ele>
        <time>2024-03-17T08:07:16Z</time>
      </trkpt>
      <trkpt lat="47.41801" lon="6.77623">
        <ele>374.2</ele>
        <time>2024-03-17T08:07:19Z</time>
      </trkpt>
      <trkpt lat="47.41815" lon="6.7761">
        <ele>375.4</ele>
        <time>2024-03-17T08:07:26Z</time>
      </trkpt>
      <trkpt lat="47.4183" lon="6.77586">
        <ele>376.6</ele>
        <time>2024-03-17T08:07:35Z</time>
      </trkpt>
      <trkpt lat="47.41832" lon="6.77584">
        <ele>376.8</ele>
        <time>2024-03-17T08:07:36Z</time>
      </trkpt>
      <trkpt lat="47.41841" lon="6.77556">
        <ele>377.6</ele>
        <time>2024-03-17T08:07:45Z</time>
      </trkpt>
      <trkpt lat="47.41842" lon="6.77553">
        <ele>377.8</ele>
        <time>2024-03-17T08:07:46Z</time>
      </trkpt>
      <trkpt lat="47.4185" lon="6.77531">
        <ele>378.8</ele>
        <time>2024-03-17T08:07:53Z</time>
      </trkpt>
      <trkpt lat="47.41854" lon="6.77522">
        <ele>379.2</ele>
        <time>2024-03-17T08:07:56Z</time>
      </trkpt>
      <trkpt lat="47.41862" lon="6.77503">
        <ele>379.8</ele>
        <time>2024-03-17T08:08:02Z</time>
      </trkpt>
      <trkpt lat="47.41869" lon="6.77492">
        <ele>380.4</ele>
        <time>2024-03-17T08:08:06Z</time>
      </trkpt>
      <trkpt lat="47.41873" lon="6.77498">
        <ele>380.6</ele>
        <time>2024-03-17T08:08:09Z</time>
      </trkpt>
      <trkpt lat="47.41873" lon="6.77505">
        <ele>380.8</ele>
        <time>2024-03-17T08:08:11Z</time>
      </trkpt>
      <trkpt lat="47.41872" lon="6.77521">
        <ele>381.8</ele>
        <time>2024-03-17T08:08:16Z</time>
      </trkpt>
      <trkpt lat="47.41872" lon="6.77524">
        <ele>382</ele>
        <time>2024-03-17T08:08:17Z</time>
      </trkpt>
      <trkpt lat="47.41871" lon="6.7754">
        <ele>383</ele>
        <time>2024-03-17T08:08:23Z</time>
      </trkpt>
      <trkpt lat="47.41871" lon="6.77548">
        <ele>383.8</ele>
        <time>2024-03-17T08:08:26Z</time>
      </trkpt>
      <trkpt lat="47.4187" lon="6.77553">
        <ele>384.2</ele>
        <time>2024-03-17T08:08:28Z</time>
      </trkpt>
      <trkpt lat="47.41869" lon="6.77572">
        <ele>385.2</ele>
        <time>2024-03-17T08:08:35Z</time>
      </trkpt>
      <trkpt lat="47.41869" lon="6.77575">
        <ele>385.4</ele>
        <time>2024-03-17T08:08:36Z</time>
      </trkpt>
      <trkpt lat="47.41868" lon="6.77589">
        <ele>386.4</ele>
        <time>2024-03-17T08:08:41Z</time>
      </trkpt>
      <trkpt lat="47.41869" lon="6.77602">
        <ele>387</ele>
        <time>2024-03-17T08:08:46Z</time>
      </trkpt>
      <trkpt lat="47.41869" lon="6.7761">
        <ele>387.6</ele>
        <time>2024-03-17T08:08:49Z</time>
      </trkpt>
      <trkpt lat="47.41869" lon="6.77629">
        <ele>388.6</ele>
        <time>2024-03-17T08:08:56Z</time>
      </trkpt>
      <trkpt lat="47.4187" lon="6.77631">
        <ele>388.8</ele>
        <time>2024-03-17T08:08:57Z</time>
      </trkpt>
      <trkpt lat="47.41879" lon="6.77646">
        <ele>389.6</ele>
        <time>2024-03-17T08:09:05Z</time>
      </trkpt>
      <trkpt lat="47.41881" lon="6.77647">
        <ele>389.6</ele>
        <time>2024-03-17T08:09:06Z</time>
      </trkpt>
      <trkpt lat="47.41884" lon="6.77648">
        <ele>389.8</ele>
        <time>2024-03-17T08:09:08Z</time>
      </trkpt>
      <trkpt lat="47.41893" lon="6.77644">
        <ele>391</ele>
        <time>2024-03-17T08:09:14Z</time>
      </trkpt>
      <trkpt lat="47.41896" lon="6.77642">
        <ele>391.2</ele>
        <time>2024-03-17T08:09:16Z</time>
      </trkpt>
      <trkpt lat="47.41904" lon="6.77642">
        <ele>392</ele>
        <time>2024-03-17T08:09:21Z</time>
      </trkpt>
      <trkpt lat="47.41911" lon="6.77651">
        <ele>393</ele>
        <time>2024-03-17T08:09:26Z</time>
      </trkpt>
      <trkpt lat="47.41913" lon="6.77651">
        <ele>393.2</ele>
        <time>2024-03-17T08:09:27Z</time>
      </trkpt>
      <trkpt lat="47.41931" lon="6.77654">
        <ele>393.8</ele>
        <time>2024-03-17T08:09:36Z</time>
      </trkpt>
      <trkpt lat="47.41953" lon="6.7766">
        <ele>393.8</ele>
        <time>2024-03-17T08:09:44Z</time>
      </trkpt>
      <trkpt lat="47.41959" lon="6.77661">
        <ele>393.8</ele>
        <time>2024-03-17T08:09:46Z</time>
      </trkpt>
      <trkpt lat="47.41987" lon="6.77653">
        <ele>393.8</ele>
        <time>2024-03-17T08:09:56Z</time>
      </trkpt>
      <trkpt lat="47.41992" lon="6.7764">
        <ele>393.8</ele>
        <time>2024-03-17T08:10:00Z</time>
      </trkpt>
      <trkpt lat="47.41996" lon="6.77627">
        <ele>394.2</ele>
        <time>2024-03-17T08:10:04Z</time>
      </trkpt>
      <trkpt lat="47.41997" lon="6.77621">
        <ele>394.8</ele>
        <time>2024-03-17T08:10:06Z</time>
      </trkpt>
      <trkpt lat="47.41997" lon="6.77616">
        <ele>395.4</ele>
        <time>2024-03-17T08:10:08Z</time>
      </trkpt>
      <trkpt lat="47.42001" lon="6.77595">
        <ele>396.4</ele>
        <time>2024-03-17T08:10:16Z</time>
      </trkpt>
      <trkpt lat="47.42004" lon="6.77588">
        <ele>397.4</ele>
        <time>2024-03-17T08:10:26Z</time>
      </trkpt>
      <trkpt lat="47.42002" lon="6.77587">
        <ele>397.4</ele>
        <time>2024-03-17T08:10:31Z</time>
      </trkpt>
      <trkpt lat="47.42002" lon="6.77589">
        <ele>397.4</ele>
        <time>2024-03-17T08:10:36Z</time>
      </trkpt>
      <trkpt lat="47.41999" lon="6.77592">
        <ele>397.2</ele>
        <time>2024-03-17T08:10:46Z</time>
      </trkpt>
      <trkpt lat="47.41999" lon="6.77593">
        <ele>397.4</ele>
        <time>2024-03-17T08:10:56Z</time>
      </trkpt>
      <trkpt lat="47.41999" lon="6.77595">
        <ele>397.2</ele>
        <time>2024-03-17T08:11:06Z</time>
      </trkpt>
      <trkpt lat="47.42" lon="6.77597">
        <ele>397.2</ele>
        <time>2024-03-17T08:11:16Z</time>
      </trkpt>
      <trkpt lat="47.42" lon="6.77598">
        <ele>397.2</ele>
        <time>2024-03-17T08:11:26Z</time>
      </trkpt>
      <trkpt lat="47.42001" lon="6.77599">
        <ele>397.2</ele>
        <time>2024-03-17T08:11:36Z</time>
      </trkpt>
      <trkpt lat="47.42001" lon="6.77599">
        <ele>397.2</ele>
        <time>2024-03-17T08:11:46Z</time>
      </trkpt>
      <trkpt lat="47.42001" lon="6.77599">
        <ele>397</ele>
        <time>2024-03-17T08:11:56Z</time>
      </trkpt>
      <trkpt lat="47.42001" lon="6.77599">
        <ele>397</ele>
        <time>2024-03-17T08:12:04Z</time>
      </trkpt>
      <trkpt lat="47.42" lon="6.77599">
        <ele>397.2</ele>
        <time>2024-03-17T08:12:06Z</time>
      </trkpt>
      <trkpt lat="47.42001" lon="6.77599">
        <ele>397.2</ele>
        <time>2024-03-17T08:12:16Z</time>
      </trkpt>
      <trkpt lat="47.42001" lon="6.77599">
        <ele>397.4</ele>
        <time>2024-03-17T08:12:26Z</time>
      </trkpt>
      <trkpt lat="47.42" lon="6.77599">
        <ele>397.4</ele>
        <time>2024-03-17T08:12:33Z</time>
      </trkpt>
      <trkpt lat="47.42" lon="6.77599">
        <ele>397.4</ele>
        <time>2024-03-17T08:12:36Z</time>
      </trkpt>
      <trkpt lat="47.42" lon="6.77599">
        <ele>397.4</ele>
        <time>2024-03-17T08:12:39Z</time>
      </trkpt>
      <trkpt lat="47.42" lon="6.77598">
        <ele>397.4</ele>
        <time>2024-03-17T08:12:44Z</time>
      </trkpt>
      <trkpt lat="47.42" lon="6.77598">
        <ele>397.4</ele>
        <time>2024-03-17T08:12:46Z</time>
      </trkpt>
      <trkpt lat="47.42001" lon="6.77598">
        <ele>397.4</ele>
        <time>2024-03-17T08:12:50Z</time>
      </trkpt>
      <trkpt lat="47.42001" lon="6.77598">
        <ele>397.4</ele>
        <time>2024-03-17T08:12:54Z</time>
      </trkpt>
      <trkpt lat="47.42001" lon="6.77598">
        <ele>397.4</ele>
        <time>2024-03-17T08:12:55Z</time>
      </trkpt>
      <trkpt lat="47.42001" lon="6.77598">
        <ele>397.4</ele>
        <time>2024-03-17T08:12:56Z</time>
      </trkpt>
      <trkpt lat="47.42" lon="6.77598">
        <ele>397.4</ele>
        <time>2024-03-17T08:13:06Z</time>
      </trkpt>
      <trkpt lat="47.42" lon="6.77599">
        <ele>397.4</ele>
        <time>2024-03-17T08:13:12Z</time>
      </trkpt>
      <trkpt lat="47.42" lon="6.77599">
        <ele>397.4</ele>
        <time>2024-03-17T08:13:16Z</time>
      </trkpt>
      <trkpt lat="47.42" lon="6.77599">
        <ele>397.4</ele>
        <time>2024-03-17T08:13:24Z</time>
      </trkpt>
      <trkpt lat="47.42" lon="6.77599">
        <ele>397.4</ele>
        <time>2024-03-17T08:13:25Z</time>
      </trkpt>
      <trkpt lat="47.42" lon="6.77599">
        <ele>397.4</ele>
        <time>2024-03-17T08:13:26Z</time>
      </trkpt>
      <trkpt lat="47.42" lon="6.77599">
        <ele>397.4</ele>
        <time>2024-03-17T08:13:29Z</time>
      </trkpt>
      <trkpt lat="47.42" lon="6.77599">
        <ele>397.4</ele>
        <time>2024-03-17T08:13:30Z</time>
      </trkpt>
      <trkpt lat="47.42" lon="6.77599">
        <ele>397.4</ele>
        <time>2024-03-17T08:13:32Z</time>
      </trkpt>
      <trkpt lat="47.42001" lon="6.77599">
        <ele>397.4</ele>
        <time>2024-03-17T08:13:35Z</time>
      </trkpt>
      <trkpt lat="47.42001" lon="6.77599">
        <ele>397.4</ele>
        <time>2024-03-17T08:13:36Z</time>
      </trkpt>
      <trkpt lat="47.42001" lon="6.77599">
        <ele>397.4</ele>
        <time>2024-03-17T08:13:37Z</time>
      </trkpt>
      <trkpt lat="47.42001" lon="6.77599">
        <ele>397.4</ele>
        <time>2024-03-17T08:13:38Z</time>
      </trkpt>
      <trkpt lat="47.42001" lon="6.77599">
        <ele>397.4</ele>
        <time>2024-03-17T08:13:39Z</time>
      </trkpt>
      <trkpt lat="47.42001" lon="6.77599">
        <ele>397.4</ele>
        <time>2024-03-17T08:13:46Z</time>
      </trkpt>
      <trkpt lat="47.42001" lon="6.77599">
        <ele>397.4</ele>
        <time>2024-03-17T08:13:49Z</time>
      </trkpt>
      <trkpt lat="47.42001" lon="6.77599">
        <ele>397.4</ele>
        <time>2024-03-17T08:13:52Z</time>
      </trkpt>
      <trkpt lat="47.42001" lon="6.77599">
        <ele>397.4</ele>
        <time>2024-03-17T08:13:54Z</time>
      </trkpt>
      <trkpt lat="47.42001" lon="6.77599">
        <ele>397.4</ele>
        <time>2024-03-17T08:13:55Z</time>
      </trkpt>
      <trkpt lat="47.42001" lon="6.77599">
        <ele>397.4</ele>
        <time>2024-03-17T08:13:56Z</time>
      </trkpt>
      <trkpt lat="47.42" lon="6.776">
        <ele>397.4</ele>
        <time>2024-03-17T08:14:06Z</time>
      </trkpt>
      <trkpt lat="47.42" lon="6.776">
        <ele>397.4</ele>
        <time>2024-03-17T08:14:11Z</time>
      </trkpt>
      <trkpt lat="47.42" lon="6.776">
        <ele>397.4</ele>
        <time>2024-03-17T08:14:12Z</time>
      </trkpt>
      <trkpt lat="47.42" lon="6.776">
        <ele>397.4</ele>
        <time>2024-03-17T08:14:15Z</time>
      </trkpt>
      <trkpt lat="47.42" lon="6.776">
        <ele>397.4</ele>
        <time>2024-03-17T08:14:16Z</time>
      </trkpt>
      <trkpt lat="47.42" lon="6.776">
        <ele>397.4</ele>
        <time>2024-03-17T08:14:20Z</time>
      </trkpt>
      <trkpt lat="47.42" lon="6.77599">
        <ele>397.4</ele>
        <time>2024-03-17T08:14:26Z</time>
      </trkpt>
      <trkpt lat="47.42001" lon="6.77599">
        <ele>397.4</ele>
        <time>2024-03-17T08:14:36Z</time>
      </trkpt>
      <trkpt lat="47.42001" lon="6.77599">
        <ele>397.4</ele>
        <time>2024-03-17T08:14:41Z</time>
      </trkpt>
      <trkpt lat="47.42001" lon="6.776">
        <ele>397.4</ele>
        <time>2024-03-17T08:14:46Z</time>
      </trkpt>
      <trkpt lat="47.42" lon="6.77601">
        <ele>397.4</ele>
        <time>2024-03-17T08:14:56Z</time>
      </trkpt>
      <trkpt lat="47.42" lon="6.77602">
        <ele>397.4</ele>
        <time>2024-03-17T08:15:06Z</time>
      </trkpt>
      <trkpt lat="47.41999" lon="6.77601">
        <ele>397.4</ele>
        <time>2024-03-17T08:15:12Z</time>
      </trkpt>
      <trkpt lat="47.41999" lon="6.77601">
        <ele>397.4</ele>
        <time>2024-03-17T08:15:16Z</time>
      </trkpt>
      <trkpt lat="47.41999" lon="6.77601">
        <ele>397.4</ele>
        <time>2024-03-17T08:15:20Z</time>
      </trkpt>
      <trkpt lat="47.41999" lon="6.77601">
        <ele>397.4</ele>
        <time>2024-03-17T08:15:22Z</time>
      </trkpt>
      <trkpt lat="47.41999" lon="6.77602">
        <ele>397.4</ele>
        <time>2024-03-17T08:15:25Z</time>
      </trkpt>
      <trkpt lat="47.41999" lon="6.77602">
        <ele>397.4</ele>
        <time>2024-03-17T08:15:26Z</time>
      </trkpt>
      <trkpt lat="47.41999" lon="6.77602">
        <ele>397.4</ele>
        <time>2024-03-17T08:15:28Z</time>
      </trkpt>
      <trkpt lat="47.41999" lon="6.77603">
        <ele>397.4</ele>
        <time>2024-03-17T08:15:29Z</time>
      </trkpt>
      <trkpt lat="47.41999" lon="6.77603">
        <ele>397.4</ele>
        <time>2024-03-17T08:15:31Z</time>
      </trkpt>
      <trkpt lat="47.41998" lon="6.77604">
        <ele>397.4</ele>
        <time>2024-03-17T08:15:34Z</time>
      </trkpt>
      <trkpt lat="47.41998" lon="6.77604">
        <ele>397.4</ele>
        <time>2024-03-17T08:15:35Z</time>
      </trkpt>
      <trkpt lat="47.41998" lon="6.77604">
        <ele>397.4</ele>
        <time>2024-03-17T08:15:36Z</time>
      </trkpt>
      <trkpt lat="47.41997" lon="6.77604">
        <ele>397.4</ele>
        <time>2024-03-17T08:15:46Z</time>
      </trkpt>
      <trkpt lat="47.41998" lon="6.77604">
        <ele>397.4</ele>
        <time>2024-03-17T08:15:56Z</time>
      </trkpt>
      <trkpt lat="47.41998" lon="6.77601">
        <ele>397.4</ele>
        <time>2024-03-17T08:16:06Z</time>
      </trkpt>
      <trkpt lat="47.41998" lon="6.776">
        <ele>397.4</ele>
        <time>2024-03-17T08:16:14Z</time>
      </trkpt>
      <trkpt lat="47.41998" lon="6.776">
        <ele>397.4</ele>
        <time>2024-03-17T08:16:16Z</time>
      </trkpt>
      <trkpt lat="47.41998" lon="6.776">
        <ele>397.4</ele>
        <time>2024-03-17T08:16:19Z</time>
      </trkpt>
      <trkpt lat="47.41998" lon="6.776">
        <ele>397.4</ele>
        <time>2024-03-17T08:16:20Z</time>
      </trkpt>
      <trkpt lat="47.41999" lon="6.776">
        <ele>397.4</ele>
        <time>2024-03-17T08:16:21Z</time>
      </trkpt>
      <trkpt lat="47.42" lon="6.776">
        <ele>397.4</ele>
        <time>2024-03-17T08:16:26Z</time>
      </trkpt>
      <trkpt lat="47.42001" lon="6.776">
        <ele>397.4</ele>
        <time>2024-03-17T08:16:31Z</time>
      </trkpt>
      <trkpt lat="47.42001" lon="6.77601">
        <ele>397.4</ele>
        <time>2024-03-17T08:16:32Z</time>
      </trkpt>
      <trkpt lat="47.42001" lon="6.776">
        <ele>397.4</ele>
        <time>2024-03-17T08:16:33Z</time>
      </trkpt>
      <trkpt lat="47.42001" lon="6.776">
        <ele>397.4</ele>
        <time>2024-03-17T08:16:34Z</time>
      </trkpt>
      <trkpt lat="47.42001" lon="6.77601">
        <ele>397.4</ele>
        <time>2024-03-17T08:16:36Z</time>
      </trkpt>
      <trkpt lat="47.42001" lon="6.77601">
        <ele>397.4</ele>
        <time>2024-03-17T08:16:37Z</time>
      </trkpt>
      <trkpt lat="47.42001" lon="6.77601">
        <ele>397.4</ele>
        <time>2024-03-17T08:16:38Z</time>
      </trkpt>
      <trkpt lat="47.42" lon="6.776">
        <ele>397.4</ele>
        <time>2024-03-17T08:16:40Z</time>
      </trkpt>
      <trkpt lat="47.41999" lon="6.776">
        <ele>397.4</ele>
        <time>2024-03-17T08:16:46Z</time>
      </trkpt>
      <trkpt lat="47.41999" lon="6.776">
        <ele>397.4</ele>
        <time>2024-03-17T08:16:47Z</time>
      </trkpt>
      <trkpt lat="47.42" lon="6.776">
        <ele>397.4</ele>
        <time>2024-03-17T08:16:48Z</time>
      </trkpt>
      <trkpt lat="47.42" lon="6.776">
        <ele>397.4</ele>
        <time>2024-03-17T08:16:49Z</time>
      </trkpt>
      <trkpt lat="47.42" lon="6.77599">
        <ele>397.4</ele>
        <time>2024-03-17T08:16:51Z</time>
      </trkpt>
      <trkpt lat="47.42" lon="6.776">
        <ele>397.4</ele>
        <time>2024-03-17T08:16:54Z</time>
      </trkpt>
      <trkpt lat="47.42" lon="6.77599">
        <ele>397.4</ele>
        <time>2024-03-17T08:16:56Z</time>
      </trkpt>
      <trkpt lat="47.42001" lon="6.77599">
        <ele>397.4</ele>
        <time>2024-03-17T08:17:00Z</time>
      </trkpt>
      <trkpt lat="47.42002" lon="6.77598">
        <ele>397.4</ele>
        <time>2024-03-17T08:17:06Z</time>
      </trkpt>
      <trkpt lat="47.42002" lon="6.77598">
        <ele>397.4</ele>
        <time>2024-03-17T08:17:07Z</time>
      </trkpt>
      <trkpt lat="47.42002" lon="6.77597">
        <ele>397.4</ele>
        <time>2024-03-17T08:17:10Z</time>
      </trkpt>
      <trkpt lat="47.42002" lon="6.77597">
        <ele>397.4</ele>
        <time>2024-03-17T08:17:14Z</time>
      </trkpt>
      <trkpt lat="47.42002" lon="6.77598">
        <ele>397.4</ele>
        <time>2024-03-17T08:17:15Z</time>
      </trkpt>
      <trkpt lat="47.42002" lon="6.77598">
        <ele>397.4</ele>
        <time>2024-03-17T08:17:16Z</time>
      </trkpt>
      <trkpt lat="47.42002" lon="6.77598">
        <ele>397.4</ele>
        <time>2024-03-17T08:17:26Z</time>
      </trkpt>
      <trkpt lat="47.42002" lon="6.77598">
        <ele>397.4</ele>
        <time>2024-03-17T08:17:31Z</time>
      </trkpt>
      <trkpt lat="47.42002" lon="6.77598">
        <ele>397.4</ele>
        <time>2024-03-17T08:17:36Z</time>
      </trkpt>
      <trkpt lat="47.42002" lon="6.77598">
        <ele>397.4</ele>
        <time>2024-03-17T08:17:43Z</time>
      </trkpt>
      <trkpt lat="47.42002" lon="6.77598">
        <ele>397.4</ele>
        <time>2024-03-17T08:17:46Z</time>
      </trkpt>
      <trkpt lat="47.42003" lon="6.77599">
        <ele>397.4</ele>
        <time>2024-03-17T08:17:55Z</time>
      </trkpt>
      <trkpt lat="47.42003" lon="6.77599">
        <ele>397.4</ele>
        <time>2024-03-17T08:17:56Z</time>
      </trkpt>
      <trkpt lat="47.42003" lon="6.77599">
        <ele>397.4</ele>
        <time>2024-03-17T08:18:06Z</time>
      </trkpt>
      <trkpt lat="47.42003" lon="6.77599">
        <ele>397.4</ele>
        <time>2024-03-17T08:18:13Z</time>
      </trkpt>
      <trkpt lat="47.42003" lon="6.77599">
        <ele>397.4</ele>
        <time>2024-03-17T08:18:16Z</time>
      </trkpt>
      <trkpt lat="47.42002" lon="6.77599">
        <ele>397.4</ele>
        <time>2024-03-17T08:18:24Z</time>
      </trkpt>
      <trkpt lat="47.42002" lon="6.77599">
        <ele>397.4</ele>
        <time>2024-03-17T08:18:26Z</time>
      </trkpt>
      <trkpt lat="47.42002" lon="6.77599">
        <ele>397.4</ele>
        <time>2024-03-17T08:18:32Z</time>
      </trkpt>
      <trkpt lat="47.42002" lon="6.77599">
        <ele>397.4</ele>
        <time>2024-03-17T08:18:36Z</time>
      </trkpt>
      <trkpt lat="47.42002" lon="6.77599">
        <ele>397.4</ele>
        <time>2024-03-17T08:18:37Z</time>
      </trkpt>
      <trkpt lat="47.42002" lon="6.776">
        <ele>397.4</ele>
        <time>2024-03-17T08:18:38Z</time>
      </trkpt>
      <trkpt lat="47.42003" lon="6.776">
        <ele>397.4</ele>
        <time>2024-03-17T08:18:43Z</time>
      </trkpt>
      <trkpt lat="47.42003" lon="6.776">
        <ele>397.4</ele>
        <time>2024-03-17T08:18:44Z</time>
      </trkpt>
      <trkpt lat="47.42003" lon="6.776">
        <ele>397.4</ele>
        <time>2024-03-17T08:18:46Z</time>
      </trkpt>
      <trkpt lat="47.42003" lon="6.776">
        <ele>397.4</ele>
        <time>2024-03-17T08:18:53Z</time>
      </trkpt>
      <trkpt lat="47.42003" lon="6.776">
        <ele>397.4</ele>
        <time>2024-03-17T08:18:56Z</time>
      </trkpt>
      <trkpt lat="47.42003" lon="6.776">
        <ele>397.4</ele>
        <time>2024-03-17T08:18:57Z</time>
      </trkpt>
      <trkpt lat="47.42003" lon="6.776">
        <ele>397.4</ele>
        <time>2024-03-17T08:18:58Z</time>
      </trkpt>
      <trkpt lat="47.42003" lon="6.776">
        <ele>397.4</ele>
        <time>2024-03-17T08:18:59Z</time>
      </trkpt>
      <trkpt lat="47.42003" lon="6.776">
        <ele>397.4</ele>
        <time>2024-03-17T08:19:06Z</time>
      </trkpt>
      <trkpt lat="47.42004" lon="6.77599">
        <ele>397.4</ele>
        <time>2024-03-17T08:19:11Z</time>
      </trkpt>
      <trkpt lat="47.42004" lon="6.77599">
        <ele>397.4</ele>
        <time>2024-03-17T08:19:14Z</time>
      </trkpt>
      <trkpt lat="47.42004" lon="6.77599">
        <ele>397.4</ele>
        <time>2024-03-17T08:19:15Z</time>
      </trkpt>
      <trkpt lat="47.42004" lon="6.77599">
        <ele>397.4</ele>
        <time>2024-03-17T08:19:16Z</time>
      </trkpt>
      <trkpt lat="47.42005" lon="6.776">
        <ele>397.4</ele>
        <time>2024-03-17T08:19:26Z</time>
      </trkpt>
      <trkpt lat="47.42005" lon="6.776">
        <ele>397.4</ele>
        <time>2024-03-17T08:19:36Z</time>
      </trkpt>
      <trkpt lat="47.42007" lon="6.77592">
        <ele>397.4</ele>
        <time>2024-03-17T08:19:45Z</time>
      </trkpt>
      <trkpt lat="47.42007" lon="6.77591">
        <ele>397.4</ele>
        <time>2024-03-17T08:19:46Z</time>
      </trkpt>
      <trkpt lat="47.42008" lon="6.77588">
        <ele>397.4</ele>
        <time>2024-03-17T08:19:51Z</time>
      </trkpt>
      <trkpt lat="47.42007" lon="6.77587">
        <ele>397.4</ele>
        <time>2024-03-17T08:19:56Z</time>
      </trkpt>
      <trkpt lat="47.42006" lon="6.77587">
        <ele>397.4</ele>
        <time>2024-03-17T08:20:06Z</time>
      </trkpt>
      <trkpt lat="47.42006" lon="6.77587">
        <ele>397.4</ele>
        <time>2024-03-17T08:20:16Z</time>
      </trkpt>
      <trkpt lat="47.42006" lon="6.77585">
        <ele>397.4</ele>
        <time>2024-03-17T08:20:22Z</time>
      </trkpt>
      <trkpt lat="47.42009" lon="6.77584">
        <ele>397.4</ele>
        <time>2024-03-17T08:20:24Z</time>
      </trkpt>
      <trkpt lat="47.4201" lon="6.77584">
        <ele>397.4</ele>
        <time>2024-03-17T08:20:25Z</time>
      </trkpt>
      <trkpt lat="47.42011" lon="6.77585">
        <ele>397.4</ele>
        <time>2024-03-17T08:20:26Z</time>
      </trkpt>
      <trkpt lat="47.42015" lon="6.77588">
        <ele>397.4</ele>
        <time>2024-03-17T08:20:28Z</time>
      </trkpt>
      <trkpt lat="47.4203" lon="6.77605">
        <ele>397.4</ele>
        <time>2024-03-17T08:20:33Z</time>
      </trkpt>
      <trkpt lat="47.4204" lon="6.77619">
        <ele>397.4</ele>
        <time>2024-03-17T08:20:36Z</time>
      </trkpt>
      <trkpt lat="47.42054" lon="6.77634">
        <ele>397.4</ele>
        <time>2024-03-17T08:20:40Z</time>
      </trkpt>
      <trkpt lat="47.42072" lon="6.77644">
        <ele>397.4</ele>
        <time>2024-03-17T08:20:46Z</time>
      </trkpt>
      <trkpt lat="47.42113" lon="6.77646">
        <ele>396.2</ele>
        <time>2024-03-17T08:20:56Z</time>
      </trkpt>
      <trkpt lat="47.42125" lon="6.77647">
        <ele>395</ele>
        <time>2024-03-17T08:20:59Z</time>
      </trkpt>
      <trkpt lat="47.42129" lon="6.7765">
        <ele>394.8</ele>
        <time>2024-03-17T08:21:00Z</time>
      </trkpt>
      <trkpt lat="47.42132" lon="6.77654">
        <ele>394.8</ele>
        <time>2024-03-17T08:21:01Z</time>
      </trkpt>
      <trkpt lat="47.42135" lon="6.77659">
        <ele>394.8</ele>
        <time>2024-03-17T08:21:02Z</time>
      </trkpt>
      <trkpt lat="47.42141" lon="6.7767">
        <ele>394.6</ele>
        <time>2024-03-17T08:21:04Z</time>
      </trkpt>
      <trkpt lat="47.42144" lon="6.77674">
        <ele>394.6</ele>
        <time>2024-03-17T08:21:05Z</time>
      </trkpt>
      <trkpt lat="47.42148" lon="6.77676">
        <ele>394.4</ele>
        <time>2024-03-17T08:21:06Z</time>
      </trkpt>
      <trkpt lat="47.42157" lon="6.77676">
        <ele>394</ele>
        <time>2024-03-17T08:21:08Z</time>
      </trkpt>
      <trkpt lat="47.42166" lon="6.77676">
        <ele>394</ele>
        <time>2024-03-17T08:21:10Z</time>
      </trkpt>
      <trkpt lat="47.4217" lon="6.77676">
        <ele>393.6</ele>
        <time>2024-03-17T08:21:11Z</time>
      </trkpt>
      <trkpt lat="47.42174" lon="6.77676">
        <ele>393</ele>
        <time>2024-03-17T08:21:12Z</time>
      </trkpt>
      <trkpt lat="47.42182" lon="6.77675">
        <ele>392.4</ele>
        <time>2024-03-17T08:21:14Z</time>
      </trkpt>
      <trkpt lat="47.42191" lon="6.77674">
        <ele>392.2</ele>
        <time>2024-03-17T08:21:16Z</time>
      </trkpt>
      <trkpt lat="47.42214" lon="6.77672">
        <ele>392</ele>
        <time>2024-03-17T08:21:21Z</time>
      </trkpt>
      <trkpt lat="47.42235" lon="6.7767">
        <ele>392</ele>
        <time>2024-03-17T08:21:25Z</time>
      </trkpt>
      <trkpt lat="47.4224" lon="6.77669">
        <ele>391.8</ele>
        <time>2024-03-17T08:21:26Z</time>
      </trkpt>
      <trkpt lat="47.42245" lon="6.77667">
        <ele>391.8</ele>
        <time>2024-03-17T08:21:27Z</time>
      </trkpt>
      <trkpt lat="47.42256" lon="6.7766">
        <ele>391.6</ele>
        <time>2024-03-17T08:21:29Z</time>
      </trkpt>
      <trkpt lat="47.4226" lon="6.77655">
        <ele>391.4</ele>
        <time>2024-03-17T08:21:30Z</time>
      </trkpt>
      <trkpt lat="47.42263" lon="6.77638">
        <ele>390.8</ele>
        <time>2024-03-17T08:21:34Z</time>
      </trkpt>
      <trkpt lat="47.42263" lon="6.77628">
        <ele>390.6</ele>
        <time>2024-03-17T08:21:36Z</time>
      </trkpt>
      <trkpt lat="47.42266" lon="6.77608">
        <ele>390.4</ele>
        <time>2024-03-17T08:21:40Z</time>
      </trkpt>
      <trkpt lat="47.42273" lon="6.77609">
        <ele>390.2</ele>
        <time>2024-03-17T08:21:45Z</time>
      </trkpt>
      <trkpt lat="47.42274" lon="6.7761">
        <ele>390.2</ele>
        <time>2024-03-17T08:21:46Z</time>
      </trkpt>
      <trkpt lat="47.42284" lon="6.77619">
        <ele>389.6</ele>
        <time>2024-03-17T08:21:51Z</time>
      </trkpt>
      <trkpt lat="47.42288" lon="6.77628">
        <ele>388.4</ele>
        <time>2024-03-17T08:21:54Z</time>
      </trkpt>
      <trkpt lat="47.42291" lon="6.77632">
        <ele>387.2</ele>
        <time>2024-03-17T08:21:56Z</time>
      </trkpt>
      <trkpt lat="47.42294" lon="6.77638">
        <ele>385.8</ele>
        <time>2024-03-17T08:21:58Z</time>
      </trkpt>
      <trkpt lat="47.42296" lon="6.77642">
        <ele>384.4</ele>
        <time>2024-03-17T08:22:00Z</time>
      </trkpt>
      <trkpt lat="47.42298" lon="6.77646">
        <ele>383.2</ele>
        <time>2024-03-17T08:22:02Z</time>
      </trkpt>
      <trkpt lat="47.42305" lon="6.77655">
        <ele>381.6</ele>
        <time>2024-03-17T08:22:05Z</time>
      </trkpt>
      <trkpt lat="47.42308" lon="6.77658">
        <ele>381.2</ele>
        <time>2024-03-17T08:22:06Z</time>
      </trkpt>
      <trkpt lat="47.42312" lon="6.77663">
        <ele>380.4</ele>
        <time>2024-03-17T08:22:08Z</time>
      </trkpt>
      <trkpt lat="47.42316" lon="6.77666">
        <ele>379.2</ele>
        <time>2024-03-17T08:22:11Z</time>
      </trkpt>
      <trkpt lat="47.4232" lon="6.77669">
        <ele>377.8</ele>
        <time>2024-03-17T08:22:13Z</time>
      </trkpt>
      <trkpt lat="47.42325" lon="6.77673">
        <ele>376.4</ele>
        <time>2024-03-17T08:22:15Z</time>
      </trkpt>
      <trkpt lat="47.42329" lon="6.77676">
        <ele>376</ele>
        <time>2024-03-17T08:22:16Z</time>
      </trkpt>
      <trkpt lat="47.42335" lon="6.77682">
        <ele>375.4</ele>
        <time>2024-03-17T08:22:18Z</time>
      </trkpt>
      <trkpt lat="47.42342" lon="6.77694">
        <ele>374.2</ele>
        <time>2024-03-17T08:22:21Z</time>
      </trkpt>
      <trkpt lat="47.42346" lon="6.77699">
        <ele>373.6</ele>
        <time>2024-03-17T08:22:22Z</time>
      </trkpt>
      <trkpt lat="47.4235" lon="6.77702">
        <ele>372.6</ele>
        <time>2024-03-17T08:22:23Z</time>
      </trkpt>
      <trkpt lat="47.42354" lon="6.77704">
        <ele>371.8</ele>
        <time>2024-03-17T08:22:24Z</time>
      </trkpt>
      <trkpt lat="47.42358" lon="6.77706">
        <ele>371.2</ele>
        <time>2024-03-17T08:22:25Z</time>
      </trkpt>
      <trkpt lat="47.42362" lon="6.77706">
        <ele>370.8</ele>
        <time>2024-03-17T08:22:26Z</time>
      </trkpt>
      <trkpt lat="47.42366" lon="6.77705">
        <ele>370.2</ele>
        <time>2024-03-17T08:22:27Z</time>
      </trkpt>
      <trkpt lat="47.42369" lon="6.77704">
        <ele>369.6</ele>
        <time>2024-03-17T08:22:28Z</time>
      </trkpt>
      <trkpt lat="47.42375" lon="6.77704">
        <ele>368.2</ele>
        <time>2024-03-17T08:22:30Z</time>
      </trkpt>
      <trkpt lat="47.42387" lon="6.77703">
        <ele>367</ele>
        <time>2024-03-17T08:22:33Z</time>
      </trkpt>
      <trkpt lat="47.42401" lon="6.777">
        <ele>366.8</ele>
        <time>2024-03-17T08:22:36Z</time>
      </trkpt>
      <trkpt lat="47.4243" lon="6.77693">
        <ele>366</ele>
        <time>2024-03-17T08:22:46Z</time>
      </trkpt>
      <trkpt lat="47.42431" lon="6.77692">
        <ele>366</ele>
        <time>2024-03-17T08:22:47Z</time>
      </trkpt>
      <trkpt lat="47.42454" lon="6.77688">
        <ele>366.2</ele>
        <time>2024-03-17T08:22:56Z</time>
      </trkpt>
      <trkpt lat="47.42474" lon="6.77687">
        <ele>367.4</ele>
        <time>2024-03-17T08:23:04Z</time>
      </trkpt>
      <trkpt lat="47.42479" lon="6.77687">
        <ele>367.8</ele>
        <time>2024-03-17T08:23:06Z</time>
      </trkpt>
      <trkpt lat="47.42491" lon="6.77686">
        <ele>368.6</ele>
        <time>2024-03-17T08:23:10Z</time>
      </trkpt>
      <trkpt lat="47.42511" lon="6.77685">
        <ele>369</ele>
        <time>2024-03-17T08:23:16Z</time>
      </trkpt>
      <trkpt lat="47.42557" lon="6.77688">
        <ele>367.6</ele>
        <time>2024-03-17T08:23:26Z</time>
      </trkpt>
      <trkpt lat="47.42571" lon="6.77692">
        <ele>366.6</ele>
        <time>2024-03-17T08:23:29Z</time>
      </trkpt>
      <trkpt lat="47.42587" lon="6.77694">
        <ele>365.4</ele>
        <time>2024-03-17T08:23:32Z</time>
      </trkpt>
      <trkpt lat="47.42601" lon="6.77694">
        <ele>364</ele>
        <time>2024-03-17T08:23:36Z</time>
      </trkpt>
      <trkpt lat="47.42633" lon="6.7769">
        <ele>363.8</ele>
        <time>2024-03-17T08:23:46Z</time>
      </trkpt>
      <trkpt lat="47.4266" lon="6.77696">
        <ele>365.2</ele>
        <time>2024-03-17T08:23:55Z</time>
      </trkpt>
      <trkpt lat="47.42664" lon="6.77697">
        <ele>365.2</ele>
        <time>2024-03-17T08:23:56Z</time>
      </trkpt>
      <trkpt lat="47.42699" lon="6.77709">
        <ele>365.6</ele>
        <time>2024-03-17T08:24:06Z</time>
      </trkpt>
      <trkpt lat="47.42716" lon="6.77714">
        <ele>365.8</ele>
        <time>2024-03-17T08:24:12Z</time>
      </trkpt>
      <trkpt lat="47.42727" lon="6.77716">
        <ele>366</ele>
        <time>2024-03-17T08:24:16Z</time>
      </trkpt>
      <trkpt lat="47.42733" lon="6.77719">
        <ele>366.2</ele>
        <time>2024-03-17T08:24:19Z</time>
      </trkpt>
      <trkpt lat="47.42748" lon="6.77721">
        <ele>367</ele>
        <time>2024-03-17T08:24:26Z</time>
      </trkpt>
      <trkpt lat="47.42755" lon="6.77724">
        <ele>367.2</ele>
        <time>2024-03-17T08:24:29Z</time>
      </trkpt>
      <trkpt lat="47.42775" lon="6.77737">
        <ele>368</ele>
        <time>2024-03-17T08:24:36Z</time>
      </trkpt>
      <trkpt lat="47.42778" lon="6.77738">
        <ele>368.2</ele>
        <time>2024-03-17T08:24:37Z</time>
      </trkpt>
      <trkpt lat="47.42802" lon="6.77739">
        <ele>368.8</ele>
        <time>2024-03-17T08:24:46Z</time>
      </trkpt>
      <trkpt lat="47.4282" lon="6.77763">
        <ele>368.8</ele>
        <time>2024-03-17T08:24:56Z</time>
      </trkpt>
      <trkpt lat="47.42822" lon="6.77786">
        <ele>368.8</ele>
        <time>2024-03-17T08:25:00Z</time>
      </trkpt>
      <trkpt lat="47.42842" lon="6.7782">
        <ele>368.2</ele>
        <time>2024-03-17T08:25:06Z</time>
      </trkpt>
      <trkpt lat="47.42851" lon="6.7783">
        <ele>367.8</ele>
        <time>2024-03-17T08:25:08Z</time>
      </trkpt>
      <trkpt lat="47.42861" lon="6.7784">
        <ele>367.6</ele>
        <time>2024-03-17T08:25:10Z</time>
      </trkpt>
      <trkpt lat="47.42875" lon="6.77849">
        <ele>367</ele>
        <time>2024-03-17T08:25:13Z</time>
      </trkpt>
      <trkpt lat="47.42875" lon="6.77862">
        <ele>365.8</ele>
        <time>2024-03-17T08:25:16Z</time>
      </trkpt>
      <trkpt lat="47.42863" lon="6.77894">
        <ele>364.8</ele>
        <time>2024-03-17T08:25:21Z</time>
      </trkpt>
      <trkpt lat="47.42854" lon="6.779">
        <ele>364.4</ele>
        <time>2024-03-17T08:25:23Z</time>
      </trkpt>
      <trkpt lat="47.4284" lon="6.77896">
        <ele>364</ele>
        <time>2024-03-17T08:25:26Z</time>
      </trkpt>
      <trkpt lat="47.42831" lon="6.77895">
        <ele>363.6</ele>
        <time>2024-03-17T08:25:28Z</time>
      </trkpt>
      <trkpt lat="47.42823" lon="6.779">
        <ele>363.2</ele>
        <time>2024-03-17T08:25:30Z</time>
      </trkpt>
      <trkpt lat="47.42819" lon="6.77913">
        <ele>363.2</ele>
        <time>2024-03-17T08:25:32Z</time>
      </trkpt>
      <trkpt lat="47.42818" lon="6.77945">
        <ele>363</ele>
        <time>2024-03-17T08:25:36Z</time>
      </trkpt>
      <trkpt lat="47.42816" lon="6.78032">
        <ele>362.8</ele>
        <time>2024-03-17T08:25:46Z</time>
      </trkpt>
      <trkpt lat="47.42816" lon="6.78059">
        <ele>362.4</ele>
        <time>2024-03-17T08:25:49Z</time>
      </trkpt>
      <trkpt lat="47.42814" lon="6.7812">
        <ele>362</ele>
        <time>2024-03-17T08:25:56Z</time>
      </trkpt>
      <trkpt lat="47.42815" lon="6.78137">
        <ele>361.8</ele>
        <time>2024-03-17T08:25:58Z</time>
      </trkpt>
      <trkpt lat="47.4282" lon="6.78153">
        <ele>361.6</ele>
        <time>2024-03-17T08:26:00Z</time>
      </trkpt>
      <trkpt lat="47.42825" lon="6.78168">
        <ele>361.6</ele>
        <time>2024-03-17T08:26:02Z</time>
      </trkpt>
      <trkpt lat="47.42827" lon="6.78176">
        <ele>361.6</ele>
        <time>2024-03-17T08:26:03Z</time>
      </trkpt>
      <trkpt lat="47.42828" lon="6.78185">
        <ele>361.6</ele>
        <time>2024-03-17T08:26:04Z</time>
      </trkpt>
      <trkpt lat="47.42828" lon="6.78201">
        <ele>361.6</ele>
        <time>2024-03-17T08:26:06Z</time>
      </trkpt>
      <trkpt lat="47.42825" lon="6.78217">
        <ele>361.6</ele>
        <time>2024-03-17T08:26:08Z</time>
      </trkpt>
      <trkpt lat="47.4281" lon="6.78254">
        <ele>361.6</ele>
        <time>2024-03-17T08:26:14Z</time>
      </trkpt>
      <trkpt lat="47.42809" lon="6.78268">
        <ele>361.6</ele>
        <time>2024-03-17T08:26:16Z</time>
      </trkpt>
      <trkpt lat="47.42808" lon="6.78281">
        <ele>361.8</ele>
        <time>2024-03-17T08:26:18Z</time>
      </trkpt>
      <trkpt lat="47.42793" lon="6.78344">
        <ele>362</ele>
        <time>2024-03-17T08:26:26Z</time>
      </trkpt>
      <trkpt lat="47.42793" lon="6.78383">
        <ele>361.8</ele>
        <time>2024-03-17T08:26:30Z</time>
      </trkpt>
      <trkpt lat="47.42796" lon="6.78402">
        <ele>361.4</ele>
        <time>2024-03-17T08:26:32Z</time>
      </trkpt>
      <trkpt lat="47.42802" lon="6.78428">
        <ele>360.4</ele>
        <time>2024-03-17T08:26:35Z</time>
      </trkpt>
      <trkpt lat="47.42804" lon="6.78437">
        <ele>359.8</ele>
        <time>2024-03-17T08:26:36Z</time>
      </trkpt>
      <trkpt lat="47.42805" lon="6.78446">
        <ele>359.2</ele>
        <time>2024-03-17T08:26:37Z</time>
      </trkpt>
      <trkpt lat="47.42825" lon="6.7851">
        <ele>358.2</ele>
        <time>2024-03-17T08:26:45Z</time>
      </trkpt>
      <trkpt lat="47.42828" lon="6.78517">
        <ele>358</ele>
        <time>2024-03-17T08:26:46Z</time>
      </trkpt>
      <trkpt lat="47.42865" lon="6.78581">
        <ele>358.4</ele>
        <time>2024-03-17T08:26:56Z</time>
      </trkpt>
      <trkpt lat="47.42878" lon="6.78607">
        <ele>358.4</ele>
        <time>2024-03-17T08:27:00Z</time>
      </trkpt>
      <trkpt lat="47.42895" lon="6.78648">
        <ele>358.6</ele>
        <time>2024-03-17T08:27:06Z</time>
      </trkpt>
      <trkpt lat="47.42911" lon="6.78681">
        <ele>358.8</ele>
        <time>2024-03-17T08:27:11Z</time>
      </trkpt>
      <trkpt lat="47.42921" lon="6.787">
        <ele>358.8</ele>
        <time>2024-03-17T08:27:14Z</time>
      </trkpt>
      <trkpt lat="47.4293" lon="6.7871">
        <ele>358.8</ele>
        <time>2024-03-17T08:27:16Z</time>
      </trkpt>
      <trkpt lat="47.4294" lon="6.78715">
        <ele>358.8</ele>
        <time>2024-03-17T08:27:18Z</time>
      </trkpt>
      <trkpt lat="47.42955" lon="6.78718">
        <ele>358.6</ele>
        <time>2024-03-17T08:27:21Z</time>
      </trkpt>
      <trkpt lat="47.42982" lon="6.78712">
        <ele>358.4</ele>
        <time>2024-03-17T08:27:26Z</time>
      </trkpt>
      <trkpt lat="47.43033" lon="6.78695">
        <ele>358</ele>
        <time>2024-03-17T08:27:36Z</time>
      </trkpt>
      <trkpt lat="47.43084" lon="6.78679">
        <ele>358.2</ele>
        <time>2024-03-17T08:27:46Z</time>
      </trkpt>
      <trkpt lat="47.43136" lon="6.78664">
        <ele>358.2</ele>
        <time>2024-03-17T08:27:56Z</time>
      </trkpt>
      <trkpt lat="47.43141" lon="6.78662">
        <ele>358.2</ele>
        <time>2024-03-17T08:27:57Z</time>
      </trkpt>
      <trkpt lat="47.43179" lon="6.78641">
        <ele>358.4</ele>
        <time>2024-03-17T08:28:06Z</time>
      </trkpt>
      <trkpt lat="47.432" lon="6.78629">
        <ele>359.2</ele>
        <time>2024-03-17T08:28:12Z</time>
      </trkpt>
      <trkpt lat="47.43211" lon="6.78623">
        <ele>360.4</ele>
        <time>2024-03-17T08:28:15Z</time>
      </trkpt>
      <trkpt lat="47.43219" lon="6.78618">
        <ele>360.6</ele>
        <time>2024-03-17T08:28:17Z</time>
      </trkpt>
      <trkpt lat="47.43263" lon="6.78588">
        <ele>360.8</ele>
        <time>2024-03-17T08:28:27Z</time>
      </trkpt>
      <trkpt lat="47.43303" lon="6.78558">
        <ele>360.4</ele>
        <time>2024-03-17T08:28:36Z</time>
      </trkpt>
      <trkpt lat="47.43307" lon="6.78553">
        <ele>360.2</ele>
        <time>2024-03-17T08:28:37Z</time>
      </trkpt>
      <trkpt lat="47.43341" lon="6.78523">
        <ele>360</ele>
        <time>2024-03-17T08:28:47Z</time>
      </trkpt>
      <trkpt lat="47.4335" lon="6.78515">
        <ele>360</ele>
        <time>2024-03-17T08:28:51Z</time>
      </trkpt>
      <trkpt lat="47.43351" lon="6.7851">
        <ele>360</ele>
        <time>2024-03-17T08:28:52Z</time>
      </trkpt>
      <trkpt lat="47.43351" lon="6.78486">
        <ele>360</ele>
        <time>2024-03-17T08:28:57Z</time>
      </trkpt>
      <trkpt lat="47.43351" lon="6.78477">
        <ele>360.2</ele>
        <time>2024-03-17T08:28:59Z</time>
      </trkpt>
      <trkpt lat="47.43352" lon="6.7847">
        <ele>360.2</ele>
        <time>2024-03-17T08:29:01Z</time>
      </trkpt>
      <trkpt lat="47.43353" lon="6.78468">
        <ele>360.4</ele>
        <time>2024-03-17T08:29:04Z</time>
      </trkpt>
      <trkpt lat="47.43354" lon="6.78469">
        <ele>360.8</ele>
        <time>2024-03-17T08:29:08Z</time>
      </trkpt>
      <trkpt lat="47.43352" lon="6.78472">
        <ele>361</ele>
        <time>2024-03-17T08:29:13Z</time>
      </trkpt>
      <trkpt lat="47.43351" lon="6.78496">
        <ele>361.2</ele>
        <time>2024-03-17T08:29:18Z</time>
      </trkpt>
      <trkpt lat="47.43347" lon="6.78527">
        <ele>360.8</ele>
        <time>2024-03-17T08:29:24Z</time>
      </trkpt>
      <trkpt lat="47.43333" lon="6.7853">
        <ele>360.6</ele>
        <time>2024-03-17T08:29:28Z</time>
      </trkpt>
      <trkpt lat="47.43323" lon="6.78534">
        <ele>360.6</ele>
        <time>2024-03-17T08:29:31Z</time>
      </trkpt>
      <trkpt lat="47.43318" lon="6.78553">
        <ele>360.4</ele>
        <time>2024-03-17T08:29:38Z</time>
      </trkpt>
      <trkpt lat="47.4332" lon="6.78553">
        <ele>360.4</ele>
        <time>2024-03-17T08:29:42Z</time>
      </trkpt>
      <trkpt lat="47.43324" lon="6.78552">
        <ele>360.4</ele>
        <time>2024-03-17T08:29:48Z</time>
      </trkpt>
      <trkpt lat="47.43324" lon="6.78555">
        <ele>360.4</ele>
        <time>2024-03-17T08:29:58Z</time>
      </trkpt>
      <trkpt lat="47.43323" lon="6.78595">
        <ele>360.2</ele>
        <time>2024-03-17T08:30:08Z</time>
      </trkpt>
      <trkpt lat="47.43324" lon="6.78635">
        <ele>359.4</ele>
        <time>2024-03-17T08:30:14Z</time>
      </trkpt>
      <trkpt lat="47.43324" lon="6.78662">
        <ele>358.8</ele>
        <time>2024-03-17T08:30:18Z</time>
      </trkpt>
      <trkpt lat="47.43324" lon="6.7869">
        <ele>358.4</ele>
        <time>2024-03-17T08:30:22Z</time>
      </trkpt>
      <trkpt lat="47.43327" lon="6.78704">
        <ele>358.4</ele>
        <time>2024-03-17T08:30:24Z</time>
      </trkpt>
      <trkpt lat="47.4333" lon="6.78711">
        <ele>358.4</ele>
        <time>2024-03-17T08:30:25Z</time>
      </trkpt>
      <trkpt lat="47.43339" lon="6.7873">
        <ele>358</ele>
        <time>2024-03-17T08:30:28Z</time>
      </trkpt>
      <trkpt lat="47.43343" lon="6.78745">
        <ele>358</ele>
        <time>2024-03-17T08:30:30Z</time>
      </trkpt>
      <trkpt lat="47.43345" lon="6.78759">
        <ele>358</ele>
        <time>2024-03-17T08:30:32Z</time>
      </trkpt>
      <trkpt lat="47.43345" lon="6.78789">
        <ele>357.8</ele>
        <time>2024-03-17T08:30:36Z</time>
      </trkpt>
      <trkpt lat="47.43346" lon="6.78803">
        <ele>357.8</ele>
        <time>2024-03-17T08:30:38Z</time>
      </trkpt>
      <trkpt lat="47.43347" lon="6.78832">
        <ele>357.8</ele>
        <time>2024-03-17T08:30:42Z</time>
      </trkpt>
      <trkpt lat="47.43348" lon="6.78854">
        <ele>357.8</ele>
        <time>2024-03-17T08:30:45Z</time>
      </trkpt>
      <trkpt lat="47.43349" lon="6.78875">
        <ele>357.6</ele>
        <time>2024-03-17T08:30:48Z</time>
      </trkpt>
      <trkpt lat="47.43352" lon="6.78941">
        <ele>357.6</ele>
        <time>2024-03-17T08:30:58Z</time>
      </trkpt>
      <trkpt lat="47.43356" lon="6.78996">
        <ele>357.8</ele>
        <time>2024-03-17T08:31:07Z</time>
      </trkpt>
      <trkpt lat="47.4336" lon="6.79044">
        <ele>357.8</ele>
        <time>2024-03-17T08:31:14Z</time>
      </trkpt>
      <trkpt lat="47.4336" lon="6.79075">
        <ele>357.8</ele>
        <time>2024-03-17T08:31:18Z</time>
      </trkpt>
      <trkpt lat="47.4336" lon="6.79096">
        <ele>357.2</ele>
        <time>2024-03-17T08:31:21Z</time>
      </trkpt>
      <trkpt lat="47.43371" lon="6.79113">
        <ele>356.4</ele>
        <time>2024-03-17T08:31:25Z</time>
      </trkpt>
      <trkpt lat="47.43379" lon="6.79113">
        <ele>356.2</ele>
        <time>2024-03-17T08:31:27Z</time>
      </trkpt>
      <trkpt lat="47.43383" lon="6.79112">
        <ele>356.2</ele>
        <time>2024-03-17T08:31:28Z</time>
      </trkpt>
      <trkpt lat="47.43408" lon="6.79089">
        <ele>356.4</ele>
        <time>2024-03-17T08:31:35Z</time>
      </trkpt>
      <trkpt lat="47.43417" lon="6.79074">
        <ele>356.4</ele>
        <time>2024-03-17T08:31:38Z</time>
      </trkpt>
      <trkpt lat="47.43446" lon="6.7903">
        <ele>356.4</ele>
        <time>2024-03-17T08:31:48Z</time>
      </trkpt>
      <trkpt lat="47.43457" lon="6.79014">
        <ele>356.6</ele>
        <time>2024-03-17T08:31:52Z</time>
      </trkpt>
      <trkpt lat="47.43474" lon="6.78989">
        <ele>356.8</ele>
        <time>2024-03-17T08:31:58Z</time>
      </trkpt>
      <trkpt lat="47.43502" lon="6.78957">
        <ele>357.2</ele>
        <time>2024-03-17T08:32:08Z</time>
      </trkpt>
      <trkpt lat="47.43541" lon="6.78921">
        <ele>357.2</ele>
        <time>2024-03-17T08:32:19Z</time>
      </trkpt>
      <trkpt lat="47.43574" lon="6.7889">
        <ele>356.4</ele>
        <time>2024-03-17T08:32:28Z</time>
      </trkpt>
      <trkpt lat="47.43578" lon="6.78886">
        <ele>356.4</ele>
        <time>2024-03-17T08:32:29Z</time>
      </trkpt>
      <trkpt lat="47.43587" lon="6.78855">
        <ele>356.6</ele>
        <time>2024-03-17T08:32:36Z</time>
      </trkpt>
      <trkpt lat="47.43594" lon="6.78838">
        <ele>356.8</ele>
        <time>2024-03-17T08:32:40Z</time>
      </trkpt>
      <trkpt lat="47.43599" lon="6.7883">
        <ele>357.2</ele>
        <time>2024-03-17T08:32:42Z</time>
      </trkpt>
      <trkpt lat="47.43607" lon="6.78817">
        <ele>357.6</ele>
        <time>2024-03-17T08:32:45Z</time>
      </trkpt>
      <trkpt lat="47.43629" lon="6.78799">
        <ele>357.8</ele>
        <time>2024-03-17T08:32:51Z</time>
      </trkpt>
      <trkpt lat="47.43669" lon="6.78767">
        <ele>358</ele>
        <time>2024-03-17T08:33:01Z</time>
      </trkpt>
      <trkpt lat="47.43694" lon="6.78748">
        <ele>357.8</ele>
        <time>2024-03-17T08:33:07Z</time>
      </trkpt>
      <trkpt lat="47.43706" lon="6.78737">
        <ele>357.8</ele>
        <time>2024-03-17T08:33:10Z</time>
      </trkpt>
      <trkpt lat="47.4371" lon="6.78732">
        <ele>357.8</ele>
        <time>2024-03-17T08:33:11Z</time>
      </trkpt>
      <trkpt lat="47.43713" lon="6.78727">
        <ele>357.8</ele>
        <time>2024-03-17T08:33:12Z</time>
      </trkpt>
      <trkpt lat="47.43726" lon="6.78714">
        <ele>357.8</ele>
        <time>2024-03-17T08:33:16Z</time>
      </trkpt>
      <trkpt lat="47.43746" lon="6.78709">
        <ele>357.8</ele>
        <time>2024-03-17T08:33:20Z</time>
      </trkpt>
      <trkpt lat="47.43756" lon="6.787">
        <ele>357.6</ele>
        <time>2024-03-17T08:33:22Z</time>
      </trkpt>
      <trkpt lat="47.43788" lon="6.78664">
        <ele>356.6</ele>
        <time>2024-03-17T08:33:29Z</time>
      </trkpt>
      <trkpt lat="47.43792" lon="6.78658">
        <ele>356.4</ele>
        <time>2024-03-17T08:33:30Z</time>
      </trkpt>
      <trkpt lat="47.438" lon="6.78647">
        <ele>356.2</ele>
        <time>2024-03-17T08:33:32Z</time>
      </trkpt>
      <trkpt lat="47.43808" lon="6.78637">
        <ele>356</ele>
        <time>2024-03-17T08:33:34Z</time>
      </trkpt>
      <trkpt lat="47.43813" lon="6.78625">
        <ele>356</ele>
        <time>2024-03-17T08:33:36Z</time>
      </trkpt>
      <trkpt lat="47.43816" lon="6.78616">
        <ele>356</ele>
        <time>2024-03-17T08:33:40Z</time>
      </trkpt>
      <trkpt lat="47.43817" lon="6.78611">
        <ele>356.6</ele>
        <time>2024-03-17T08:33:47Z</time>
      </trkpt>
      <trkpt lat="47.43825" lon="6.78603">
        <ele>357</ele>
        <time>2024-03-17T08:33:51Z</time>
      </trkpt>
      <trkpt lat="47.43869" lon="6.78573">
        <ele>356.6</ele>
        <time>2024-03-17T08:34:01Z</time>
      </trkpt>
      <trkpt lat="47.43889" lon="6.7856">
        <ele>356.4</ele>
        <time>2024-03-17T08:34:05Z</time>
      </trkpt>
      <trkpt lat="47.43918" lon="6.78549">
        <ele>356.2</ele>
        <time>2024-03-17T08:34:11Z</time>
      </trkpt>
      <trkpt lat="47.43963" lon="6.78539">
        <ele>356.6</ele>
        <time>2024-03-17T08:34:21Z</time>
      </trkpt>
      <trkpt lat="47.43986" lon="6.78534">
        <ele>357.2</ele>
        <time>2024-03-17T08:34:26Z</time>
      </trkpt>
      <trkpt lat="47.44011" lon="6.78532">
        <ele>357.4</ele>
        <time>2024-03-17T08:34:31Z</time>
      </trkpt>
      <trkpt lat="47.44017" lon="6.78532">
        <ele>357.4</ele>
        <time>2024-03-17T08:34:32Z</time>
      </trkpt>
      <trkpt lat="47.44068" lon="6.7854">
        <ele>357.2</ele>
        <time>2024-03-17T08:34:41Z</time>
      </trkpt>
      <trkpt lat="47.44121" lon="6.78563">
        <ele>356.4</ele>
        <time>2024-03-17T08:34:51Z</time>
      </trkpt>
      <trkpt lat="47.44137" lon="6.7857">
        <ele>356.2</ele>
        <time>2024-03-17T08:34:54Z</time>
      </trkpt>
      <trkpt lat="47.44173" lon="6.78577">
        <ele>356</ele>
        <time>2024-03-17T08:35:01Z</time>
      </trkpt>
      <trkpt lat="47.44224" lon="6.78574">
        <ele>356</ele>
        <time>2024-03-17T08:35:11Z</time>
      </trkpt>
      <trkpt lat="47.44275" lon="6.78568">
        <ele>356</ele>
        <time>2024-03-17T08:35:21Z</time>
      </trkpt>
      <trkpt lat="47.44309" lon="6.78566">
        <ele>356</ele>
        <time>2024-03-17T08:35:28Z</time>
      </trkpt>
      <trkpt lat="47.44323" lon="6.78564">
        <ele>356</ele>
        <time>2024-03-17T08:35:31Z</time>
      </trkpt>
      <trkpt lat="47.44374" lon="6.7856">
        <ele>356</ele>
        <time>2024-03-17T08:35:41Z</time>
      </trkpt>
      <trkpt lat="47.44427" lon="6.78552">
        <ele>355.8</ele>
        <time>2024-03-17T08:35:51Z</time>
      </trkpt>
      <trkpt lat="47.44454" lon="6.78549">
        <ele>355.4</ele>
        <time>2024-03-17T08:35:56Z</time>
      </trkpt>
      <trkpt lat="47.4448" lon="6.78546">
        <ele>355.4</ele>
        <time>2024-03-17T08:36:01Z</time>
      </trkpt>
      <trkpt lat="47.44531" lon="6.7854">
        <ele>355.4</ele>
        <time>2024-03-17T08:36:11Z</time>
      </trkpt>
      <trkpt lat="47.44584" lon="6.78542">
        <ele>355.2</ele>
        <time>2024-03-17T08:36:21Z</time>
      </trkpt>
      <trkpt lat="47.44639" lon="6.78558">
        <ele>354.8</ele>
        <time>2024-03-17T08:36:31Z</time>
      </trkpt>
      <trkpt lat="47.44691" lon="6.78582">
        <ele>354.8</ele>
        <time>2024-03-17T08:36:41Z</time>
      </trkpt>
      <trkpt lat="47.44743" lon="6.78605">
        <ele>354.8</ele>
        <time>2024-03-17T08:36:51Z</time>
      </trkpt>
      <trkpt lat="47.44787" lon="6.78626">
        <ele>354.6</ele>
        <time>2024-03-17T08:36:59Z</time>
      </trkpt>
      <trkpt lat="47.44797" lon="6.78632">
        <ele>354.4</ele>
        <time>2024-03-17T08:37:01Z</time>
      </trkpt>
      <trkpt lat="47.44852" lon="6.78662">
        <ele>354.4</ele>
        <time>2024-03-17T08:37:11Z</time>
      </trkpt>
      <trkpt lat="47.44873" lon="6.78676">
        <ele>354.4</ele>
        <time>2024-03-17T08:37:15Z</time>
      </trkpt>
      <trkpt lat="47.44903" lon="6.78695">
        <ele>354.6</ele>
        <time>2024-03-17T08:37:21Z</time>
      </trkpt>
      <trkpt lat="47.44953" lon="6.78724">
        <ele>355</ele>
        <time>2024-03-17T08:37:31Z</time>
      </trkpt>
      <trkpt lat="47.45003" lon="6.78752">
        <ele>355.4</ele>
        <time>2024-03-17T08:37:41Z</time>
      </trkpt>
      <trkpt lat="47.45055" lon="6.78782">
        <ele>355.4</ele>
        <time>2024-03-17T08:37:51Z</time>
      </trkpt>
      <trkpt lat="47.45105" lon="6.78811">
        <ele>355.2</ele>
        <time>2024-03-17T08:38:01Z</time>
      </trkpt>
      <trkpt lat="47.45153" lon="6.78844">
        <ele>355</ele>
        <time>2024-03-17T08:38:11Z</time>
      </trkpt>
      <trkpt lat="47.45163" lon="6.78853">
        <ele>355</ele>
        <time>2024-03-17T08:38:13Z</time>
      </trkpt>
      <trkpt lat="47.45178" lon="6.78868">
        <ele>355</ele>
        <time>2024-03-17T08:38:16Z</time>
      </trkpt>
      <trkpt lat="47.45192" lon="6.78884">
        <ele>354.8</ele>
        <time>2024-03-17T08:38:19Z</time>
      </trkpt>
      <trkpt lat="47.452" lon="6.78897">
        <ele>354.8</ele>
        <time>2024-03-17T08:38:21Z</time>
      </trkpt>
      <trkpt lat="47.4523" lon="6.7897">
        <ele>354.4</ele>
        <time>2024-03-17T08:38:31Z</time>
      </trkpt>
      <trkpt lat="47.45236" lon="6.79028">
        <ele>354.2</ele>
        <time>2024-03-17T08:38:38Z</time>
      </trkpt>
      <trkpt lat="47.45235" lon="6.79044">
        <ele>354.2</ele>
        <time>2024-03-17T08:38:40Z</time>
      </trkpt>
      <trkpt lat="47.45234" lon="6.79052">
        <ele>354.2</ele>
        <time>2024-03-17T08:38:41Z</time>
      </trkpt>
      <trkpt lat="47.45227" lon="6.79095">
        <ele>354.4</ele>
        <time>2024-03-17T08:38:47Z</time>
      </trkpt>
      <trkpt lat="47.45221" lon="6.79122">
        <ele>355.2</ele>
        <time>2024-03-17T08:38:51Z</time>
      </trkpt>
      <trkpt lat="47.45213" lon="6.7916">
        <ele>356.2</ele>
        <time>2024-03-17T08:38:57Z</time>
      </trkpt>
      <trkpt lat="47.45207" lon="6.79187">
        <ele>356.8</ele>
        <time>2024-03-17T08:39:01Z</time>
      </trkpt>
      <trkpt lat="47.45203" lon="6.79207">
        <ele>357.2</ele>
        <time>2024-03-17T08:39:04Z</time>
      </trkpt>
      <trkpt lat="47.45191" lon="6.79262">
        <ele>357.4</ele>
        <time>2024-03-17T08:39:11Z</time>
      </trkpt>
      <trkpt lat="47.45172" lon="6.79345">
        <ele>356.6</ele>
        <time>2024-03-17T08:39:21Z</time>
      </trkpt>
      <trkpt lat="47.45163" lon="6.79385">
        <ele>356.2</ele>
        <time>2024-03-17T08:39:26Z</time>
      </trkpt>
      <trkpt lat="47.45155" lon="6.79422">
        <ele>355.8</ele>
        <time>2024-03-17T08:39:31Z</time>
      </trkpt>
      <trkpt lat="47.45143" lon="6.79473">
        <ele>356</ele>
        <time>2024-03-17T08:39:38Z</time>
      </trkpt>
      <trkpt lat="47.45138" lon="6.79495">
        <ele>356</ele>
        <time>2024-03-17T08:39:41Z</time>
      </trkpt>
      <trkpt lat="47.45125" lon="6.79561">
        <ele>356.4</ele>
        <time>2024-03-17T08:39:50Z</time>
      </trkpt>
      <trkpt lat="47.45124" lon="6.79568">
        <ele>356.4</ele>
        <time>2024-03-17T08:39:51Z</time>
      </trkpt>
      <trkpt lat="47.45116" lon="6.79643">
        <ele>356.4</ele>
        <time>2024-03-17T08:40:01Z</time>
      </trkpt>
      <trkpt lat="47.4511" lon="6.79719">
        <ele>356.2</ele>
        <time>2024-03-17T08:40:11Z</time>
      </trkpt>
      <trkpt lat="47.45107" lon="6.79765">
        <ele>356.6</ele>
        <time>2024-03-17T08:40:19Z</time>
      </trkpt>
      <trkpt lat="47.45109" lon="6.79777">
        <ele>356.6</ele>
        <time>2024-03-17T08:40:21Z</time>
      </trkpt>
      <trkpt lat="47.45105" lon="6.79795">
        <ele>356.8</ele>
        <time>2024-03-17T08:40:25Z</time>
      </trkpt>
      <trkpt lat="47.45081" lon="6.79803">
        <ele>356.8</ele>
        <time>2024-03-17T08:40:31Z</time>
      </trkpt>
      <trkpt lat="47.45072" lon="6.79802">
        <ele>356.8</ele>
        <time>2024-03-17T08:40:33Z</time>
      </trkpt>
      <trkpt lat="47.45063" lon="6.79792">
        <ele>357</ele>
        <time>2024-03-17T08:40:36Z</time>
      </trkpt>
      <trkpt lat="47.45058" lon="6.79783">
        <ele>357.2</ele>
        <time>2024-03-17T08:40:39Z</time>
      </trkpt>
      <trkpt lat="47.45056" lon="6.79778">
        <ele>357.2</ele>
        <time>2024-03-17T08:40:41Z</time>
      </trkpt>
      <trkpt lat="47.45051" lon="6.7977">
        <ele>358.2</ele>
        <time>2024-03-17T08:40:46Z</time>
      </trkpt>
      <trkpt lat="47.45049" lon="6.79766">
        <ele>359.2</ele>
        <time>2024-03-17T08:40:49Z</time>
      </trkpt>
      <trkpt lat="47.45047" lon="6.79763">
        <ele>360</ele>
        <time>2024-03-17T08:40:51Z</time>
      </trkpt>
      <trkpt lat="47.45046" lon="6.79762">
        <ele>360.2</ele>
        <time>2024-03-17T08:40:52Z</time>
      </trkpt>
      <trkpt lat="47.45043" lon="6.79755">
        <ele>361.4</ele>
        <time>2024-03-17T08:40:58Z</time>
      </trkpt>
      <trkpt lat="47.45041" lon="6.7975">
        <ele>362.4</ele>
        <time>2024-03-17T08:41:01Z</time>
      </trkpt>
      <trkpt lat="47.45038" lon="6.79748">
        <ele>362.6</ele>
        <time>2024-03-17T08:41:03Z</time>
      </trkpt>
      <trkpt lat="47.45028" lon="6.79738">
        <ele>363.6</ele>
        <time>2024-03-17T08:41:08Z</time>
      </trkpt>
      <trkpt lat="47.45024" lon="6.79733">
        <ele>364.2</ele>
        <time>2024-03-17T08:41:11Z</time>
      </trkpt>
      <trkpt lat="47.45016" lon="6.79724">
        <ele>364.8</ele>
        <time>2024-03-17T08:41:17Z</time>
      </trkpt>
      <trkpt lat="47.45012" lon="6.79719">
        <ele>365.4</ele>
        <time>2024-03-17T08:41:21Z</time>
      </trkpt>
      <trkpt lat="47.4501" lon="6.79715">
        <ele>366</ele>
        <time>2024-03-17T08:41:24Z</time>
      </trkpt>
      <trkpt lat="47.45006" lon="6.79707">
        <ele>367</ele>
        <time>2024-03-17T08:41:29Z</time>
      </trkpt>
      <trkpt lat="47.45004" lon="6.79704">
        <ele>367.4</ele>
        <time>2024-03-17T08:41:31Z</time>
      </trkpt>
      <trkpt lat="47.45001" lon="6.797">
        <ele>368</ele>
        <time>2024-03-17T08:41:34Z</time>
      </trkpt>
      <trkpt lat="47.44992" lon="6.79695">
        <ele>369.2</ele>
        <time>2024-03-17T08:41:41Z</time>
      </trkpt>
      <trkpt lat="47.44983" lon="6.7969">
        <ele>370.4</ele>
        <time>2024-03-17T08:41:48Z</time>
      </trkpt>
      <trkpt lat="47.44979" lon="6.79691">
        <ele>370.8</ele>
        <time>2024-03-17T08:41:51Z</time>
      </trkpt>
      <trkpt lat="47.44972" lon="6.79692">
        <ele>371.4</ele>
        <time>2024-03-17T08:41:55Z</time>
      </trkpt>
      <trkpt lat="47.44964" lon="6.797">
        <ele>372.2</ele>
        <time>2024-03-17T08:42:01Z</time>
      </trkpt>
      <trkpt lat="47.44962" lon="6.79703">
        <ele>372.4</ele>
        <time>2024-03-17T08:42:03Z</time>
      </trkpt>
      <trkpt lat="47.44955" lon="6.79713">
        <ele>373.4</ele>
        <time>2024-03-17T08:42:10Z</time>
      </trkpt>
      <trkpt lat="47.44953" lon="6.79714">
        <ele>373.4</ele>
        <time>2024-03-17T08:42:11Z</time>
      </trkpt>
      <trkpt lat="47.4494" lon="6.79722">
        <ele>374.4</ele>
        <time>2024-03-17T08:42:19Z</time>
      </trkpt>
      <trkpt lat="47.44937" lon="6.79724">
        <ele>374.6</ele>
        <time>2024-03-17T08:42:21Z</time>
      </trkpt>
      <trkpt lat="47.44921" lon="6.79733">
        <ele>375.4</ele>
        <time>2024-03-17T08:42:30Z</time>
      </trkpt>
      <trkpt lat="47.44919" lon="6.79734">
        <ele>375.6</ele>
        <time>2024-03-17T08:42:31Z</time>
      </trkpt>
      <trkpt lat="47.44904" lon="6.79745">
        <ele>376.6</ele>
        <time>2024-03-17T08:42:41Z</time>
      </trkpt>
      <trkpt lat="47.449" lon="6.79775">
        <ele>377</ele>
        <time>2024-03-17T08:42:50Z</time>
      </trkpt>
      <trkpt lat="47.449" lon="6.79779">
        <ele>377</ele>
        <time>2024-03-17T08:42:51Z</time>
      </trkpt>
      <trkpt lat="47.44892" lon="6.79833">
        <ele>376.6</ele>
        <time>2024-03-17T08:43:01Z</time>
      </trkpt>
      <trkpt lat="47.44887" lon="6.7987">
        <ele>375.4</ele>
        <time>2024-03-17T08:43:06Z</time>
      </trkpt>
      <trkpt lat="47.44884" lon="6.7989">
        <ele>374.4</ele>
        <time>2024-03-17T08:43:09Z</time>
      </trkpt>
      <trkpt lat="47.44882" lon="6.79904">
        <ele>373.2</ele>
        <time>2024-03-17T08:43:11Z</time>
      </trkpt>
      <trkpt lat="47.44879" lon="6.79929">
        <ele>372.2</ele>
        <time>2024-03-17T08:43:15Z</time>
      </trkpt>
      <trkpt lat="47.44876" lon="6.79956">
        <ele>372</ele>
        <time>2024-03-17T08:43:21Z</time>
      </trkpt>
      <trkpt lat="47.44874" lon="6.79976">
        <ele>373.2</ele>
        <time>2024-03-17T08:43:26Z</time>
      </trkpt>
      <trkpt lat="47.44873" lon="6.79986">
        <ele>374.2</ele>
        <time>2024-03-17T08:43:29Z</time>
      </trkpt>
      <trkpt lat="47.44874" lon="6.79988">
        <ele>374.2</ele>
        <time>2024-03-17T08:43:30Z</time>
      </trkpt>
      <trkpt lat="47.44875" lon="6.7999">
        <ele>374.4</ele>
        <time>2024-03-17T08:43:31Z</time>
      </trkpt>
      <trkpt lat="47.44885" lon="6.80002">
        <ele>374.4</ele>
        <time>2024-03-17T08:43:37Z</time>
      </trkpt>
      <trkpt lat="47.44883" lon="6.80008">
        <ele>374.4</ele>
        <time>2024-03-17T08:43:39Z</time>
      </trkpt>
      <trkpt lat="47.44879" lon="6.80007">
        <ele>374.4</ele>
        <time>2024-03-17T08:43:41Z</time>
      </trkpt>
      <trkpt lat="47.44862" lon="6.8">
        <ele>374.4</ele>
        <time>2024-03-17T08:43:49Z</time>
      </trkpt>
      <trkpt lat="47.44858" lon="6.79998">
        <ele>374.4</ele>
        <time>2024-03-17T08:43:51Z</time>
      </trkpt>
      <trkpt lat="47.44849" lon="6.79996">
        <ele>375.2</ele>
        <time>2024-03-17T08:43:55Z</time>
      </trkpt>
      <trkpt lat="47.44841" lon="6.79995">
        <ele>376.4</ele>
        <time>2024-03-17T08:43:59Z</time>
      </trkpt>
      <trkpt lat="47.44836" lon="6.79993">
        <ele>376.8</ele>
        <time>2024-03-17T08:44:01Z</time>
      </trkpt>
      <trkpt lat="47.44826" lon="6.79991">
        <ele>377.4</ele>
        <time>2024-03-17T08:44:06Z</time>
      </trkpt>
      <trkpt lat="47.44815" lon="6.79988">
        <ele>378</ele>
        <time>2024-03-17T08:44:11Z</time>
      </trkpt>
      <trkpt lat="47.4481" lon="6.79988">
        <ele>378.4</ele>
        <time>2024-03-17T08:44:13Z</time>
      </trkpt>
      <trkpt lat="47.44793" lon="6.79984">
        <ele>379.6</ele>
        <time>2024-03-17T08:44:21Z</time>
      </trkpt>
      <trkpt lat="47.44774" lon="6.7998">
        <ele>380.6</ele>
        <time>2024-03-17T08:44:29Z</time>
      </trkpt>
      <trkpt lat="47.44769" lon="6.79979">
        <ele>380.8</ele>
        <time>2024-03-17T08:44:31Z</time>
      </trkpt>
      <trkpt lat="47.44745" lon="6.79974">
        <ele>381.8</ele>
        <time>2024-03-17T08:44:41Z</time>
      </trkpt>
      <trkpt lat="47.44727" lon="6.79971">
        <ele>382.8</ele>
        <time>2024-03-17T08:44:49Z</time>
      </trkpt>
      <trkpt lat="47.44722" lon="6.7997">
        <ele>382.8</ele>
        <time>2024-03-17T08:44:51Z</time>
      </trkpt>
      <trkpt lat="47.44702" lon="6.79965">
        <ele>383.8</ele>
        <time>2024-03-17T08:45:00Z</time>
      </trkpt>
      <trkpt lat="47.447" lon="6.79965">
        <ele>384</ele>
        <time>2024-03-17T08:45:01Z</time>
      </trkpt>
      <trkpt lat="47.44681" lon="6.79961">
        <ele>384.8</ele>
        <time>2024-03-17T08:45:09Z</time>
      </trkpt>
      <trkpt lat="47.44676" lon="6.7996">
        <ele>385.2</ele>
        <time>2024-03-17T08:45:11Z</time>
      </trkpt>
      <trkpt lat="47.44659" lon="6.79957">
        <ele>386</ele>
        <time>2024-03-17T08:45:18Z</time>
      </trkpt>
      <trkpt lat="47.44651" lon="6.79955">
        <ele>386.2</ele>
        <time>2024-03-17T08:45:21Z</time>
      </trkpt>
      <trkpt lat="47.44634" lon="6.79953">
        <ele>387</ele>
        <time>2024-03-17T08:45:28Z</time>
      </trkpt>
      <trkpt lat="47.44627" lon="6.79949">
        <ele>387.4</ele>
        <time>2024-03-17T08:45:31Z</time>
      </trkpt>
      <trkpt lat="47.44603" lon="6.79941">
        <ele>388</ele>
        <time>2024-03-17T08:45:40Z</time>
      </trkpt>
      <trkpt lat="47.44601" lon="6.7994">
        <ele>388.2</ele>
        <time>2024-03-17T08:45:41Z</time>
      </trkpt>
      <trkpt lat="47.44576" lon="6.79932">
        <ele>388.6</ele>
        <time>2024-03-17T08:45:51Z</time>
      </trkpt>
      <trkpt lat="47.44564" lon="6.79929">
        <ele>389</ele>
        <time>2024-03-17T08:45:56Z</time>
      </trkpt>
      <trkpt lat="47.44561" lon="6.79928">
        <ele>389</ele>
        <time>2024-03-17T08:45:57Z</time>
      </trkpt>
      <trkpt lat="47.44551" lon="6.79924">
        <ele>389.4</ele>
        <time>2024-03-17T08:46:01Z</time>
      </trkpt>
      <trkpt lat="47.4453" lon="6.79916">
        <ele>390.2</ele>
        <time>2024-03-17T08:46:10Z</time>
      </trkpt>
      <trkpt lat="47.44528" lon="6.79916">
        <ele>390.4</ele>
        <time>2024-03-17T08:46:11Z</time>
      </trkpt>
      <trkpt lat="47.44506" lon="6.79914">
        <ele>391.4</ele>
        <time>2024-03-17T08:46:21Z</time>
      </trkpt>
      <trkpt lat="47.44495" lon="6.79912">
        <ele>392.4</ele>
        <time>2024-03-17T08:46:27Z</time>
      </trkpt>
      <trkpt lat="47.44488" lon="6.79911">
        <ele>393.2</ele>
        <time>2024-03-17T08:46:31Z</time>
      </trkpt>
      <trkpt lat="47.44484" lon="6.7991">
        <ele>393.4</ele>
        <time>2024-03-17T08:46:33Z</time>
      </trkpt>
      <trkpt lat="47.44471" lon="6.79905">
        <ele>394.4</ele>
        <time>2024-03-17T08:46:41Z</time>
      </trkpt>
      <trkpt lat="47.4447" lon="6.79905">
        <ele>394.6</ele>
        <time>2024-03-17T08:46:42Z</time>
      </trkpt>
      <trkpt lat="47.44459" lon="6.79901">
        <ele>395.6</ele>
        <time>2024-03-17T08:46:48Z</time>
      </trkpt>
      <trkpt lat="47.44454" lon="6.79899">
        <ele>396</ele>
        <time>2024-03-17T08:46:51Z</time>
      </trkpt>
      <trkpt lat="47.44448" lon="6.79896">
        <ele>396.6</ele>
        <time>2024-03-17T08:46:55Z</time>
      </trkpt>
      <trkpt lat="47.44439" lon="6.79891">
        <ele>397.4</ele>
        <time>2024-03-17T08:47:01Z</time>
      </trkpt>
      <trkpt lat="47.44436" lon="6.7989">
        <ele>397.6</ele>
        <time>2024-03-17T08:47:03Z</time>
      </trkpt>
      <trkpt lat="47.44423" lon="6.79885">
        <ele>398.8</ele>
        <time>2024-03-17T08:47:10Z</time>
      </trkpt>
      <trkpt lat="47.44421" lon="6.79884">
        <ele>398.8</ele>
        <time>2024-03-17T08:47:11Z</time>
      </trkpt>
      <trkpt lat="47.44414" lon="6.79882">
        <ele>399.6</ele>
        <time>2024-03-17T08:47:15Z</time>
      </trkpt>
      <trkpt lat="47.44412" lon="6.79881">
        <ele>399.6</ele>
        <time>2024-03-17T08:47:16Z</time>
      </trkpt>
      <trkpt lat="47.44411" lon="6.7988">
        <ele>399.8</ele>
        <time>2024-03-17T08:47:17Z</time>
      </trkpt>
      <trkpt lat="47.44406" lon="6.79879">
        <ele>400.2</ele>
        <time>2024-03-17T08:47:20Z</time>
      </trkpt>
      <trkpt lat="47.44404" lon="6.79878">
        <ele>400.4</ele>
        <time>2024-03-17T08:47:21Z</time>
      </trkpt>
      <trkpt lat="47.44397" lon="6.79874">
        <ele>400.8</ele>
        <time>2024-03-17T08:47:25Z</time>
      </trkpt>
      <trkpt lat="47.44395" lon="6.79874">
        <ele>401.2</ele>
        <time>2024-03-17T08:47:26Z</time>
      </trkpt>
      <trkpt lat="47.4439" lon="6.79865">
        <ele>401.8</ele>
        <time>2024-03-17T08:47:31Z</time>
      </trkpt>
      <trkpt lat="47.44391" lon="6.7986">
        <ele>401.8</ele>
        <time>2024-03-17T08:47:33Z</time>
      </trkpt>
      <trkpt lat="47.44397" lon="6.79846">
        <ele>402.2</ele>
        <time>2024-03-17T08:47:40Z</time>
      </trkpt>
      <trkpt lat="47.44398" lon="6.79844">
        <ele>402.4</ele>
        <time>2024-03-17T08:47:41Z</time>
      </trkpt>
      <trkpt lat="47.44398" lon="6.79842">
        <ele>402.4</ele>
        <time>2024-03-17T08:47:42Z</time>
      </trkpt>
      <trkpt lat="47.44399" lon="6.7984">
        <ele>402.6</ele>
        <time>2024-03-17T08:47:43Z</time>
      </trkpt>
      <trkpt lat="47.44402" lon="6.7983">
        <ele>403.6</ele>
        <time>2024-03-17T08:47:48Z</time>
      </trkpt>
      <trkpt lat="47.44405" lon="6.79824">
        <ele>404.6</ele>
        <time>2024-03-17T08:47:51Z</time>
      </trkpt>
      <trkpt lat="47.4441" lon="6.79811">
        <ele>405.6</ele>
        <time>2024-03-17T08:47:57Z</time>
      </trkpt>
      <trkpt lat="47.44411" lon="6.79801">
        <ele>406.2</ele>
        <time>2024-03-17T08:48:01Z</time>
      </trkpt>
      <trkpt lat="47.44412" lon="6.79793">
        <ele>406.6</ele>
        <time>2024-03-17T08:48:05Z</time>
      </trkpt>
      <trkpt lat="47.44408" lon="6.79785">
        <ele>407.4</ele>
        <time>2024-03-17T08:48:09Z</time>
      </trkpt>
      <trkpt lat="47.44404" lon="6.79782">
        <ele>407.6</ele>
        <time>2024-03-17T08:48:11Z</time>
      </trkpt>
      <trkpt lat="47.44404" lon="6.79782">
        <ele>407.6</ele>
        <time>2024-03-17T08:48:12Z</time>
      </trkpt>
      <trkpt lat="47.44398" lon="6.79782">
        <ele>408.4</ele>
        <time>2024-03-17T08:48:17Z</time>
      </trkpt>
      <trkpt lat="47.44395" lon="6.79783">
        <ele>408.8</ele>
        <time>2024-03-17T08:48:19Z</time>
      </trkpt>
      <trkpt lat="47.44392" lon="6.79786">
        <ele>409.6</ele>
        <time>2024-03-17T08:48:21Z</time>
      </trkpt>
      <trkpt lat="47.44389" lon="6.79788">
        <ele>410.2</ele>
        <time>2024-03-17T08:48:23Z</time>
      </trkpt>
      <trkpt lat="47.44385" lon="6.7979">
        <ele>410.8</ele>
        <time>2024-03-17T08:48:26Z</time>
      </trkpt>
      <trkpt lat="47.44384" lon="6.7979">
        <ele>411</ele>
        <time>2024-03-17T08:48:27Z</time>
      </trkpt>
      <trkpt lat="47.44383" lon="6.79791">
        <ele>411.2</ele>
        <time>2024-03-17T08:48:28Z</time>
      </trkpt>
      <trkpt lat="47.44382" lon="6.79792">
        <ele>411.4</ele>
        <time>2024-03-17T08:48:29Z</time>
      </trkpt>
      <trkpt lat="47.44381" lon="6.79793">
        <ele>411.6</ele>
        <time>2024-03-17T08:48:30Z</time>
      </trkpt>
      <trkpt lat="47.4438" lon="6.79794">
        <ele>411.8</ele>
        <time>2024-03-17T08:48:31Z</time>
      </trkpt>
      <trkpt lat="47.44377" lon="6.79796">
        <ele>412.4</ele>
        <time>2024-03-17T08:48:34Z</time>
      </trkpt>
      <trkpt lat="47.44369" lon="6.79804">
        <ele>413.4</ele>
        <time>2024-03-17T08:48:41Z</time>
      </trkpt>
      <trkpt lat="47.44362" lon="6.79811">
        <ele>414.4</ele>
        <time>2024-03-17T08:48:48Z</time>
      </trkpt>
      <trkpt lat="47.44359" lon="6.79813">
        <ele>415</ele>
        <time>2024-03-17T08:48:51Z</time>
      </trkpt>
      <trkpt lat="47.44356" lon="6.79815">
        <ele>415.6</ele>
        <time>2024-03-17T08:48:54Z</time>
      </trkpt>
      <trkpt lat="47.44349" lon="6.7982">
        <ele>416.6</ele>
        <time>2024-03-17T08:49:00Z</time>
      </trkpt>
      <trkpt lat="47.44348" lon="6.79821">
        <ele>416.6</ele>
        <time>2024-03-17T08:49:01Z</time>
      </trkpt>
      <trkpt lat="47.44342" lon="6.79827">
        <ele>417.6</ele>
        <time>2024-03-17T08:49:08Z</time>
      </trkpt>
      <trkpt lat="47.4434" lon="6.7983">
        <ele>417.8</ele>
        <time>2024-03-17T08:49:10Z</time>
      </trkpt>
      <trkpt lat="47.44339" lon="6.7983">
        <ele>417.8</ele>
        <time>2024-03-17T08:49:11Z</time>
      </trkpt>
      <trkpt lat="47.44332" lon="6.79836">
        <ele>419</ele>
        <time>2024-03-17T08:49:17Z</time>
      </trkpt>
      <trkpt lat="47.44329" lon="6.79842">
        <ele>420</ele>
        <time>2024-03-17T08:49:21Z</time>
      </trkpt>
      <trkpt lat="47.44328" lon="6.79844">
        <ele>420.2</ele>
        <time>2024-03-17T08:49:22Z</time>
      </trkpt>
      <trkpt lat="47.44323" lon="6.79849">
        <ele>421.2</ele>
        <time>2024-03-17T08:49:26Z</time>
      </trkpt>
      <trkpt lat="47.44322" lon="6.79851">
        <ele>421.6</ele>
        <time>2024-03-17T08:49:27Z</time>
      </trkpt>
      <trkpt lat="47.44318" lon="6.79857">
        <ele>422.8</ele>
        <time>2024-03-17T08:49:31Z</time>
      </trkpt>
      <trkpt lat="47.44315" lon="6.79862">
        <ele>423.8</ele>
        <time>2024-03-17T08:49:35Z</time>
      </trkpt>
      <trkpt lat="47.44312" lon="6.79868">
        <ele>424.8</ele>
        <time>2024-03-17T08:49:39Z</time>
      </trkpt>
      <trkpt lat="47.4431" lon="6.7987">
        <ele>425.2</ele>
        <time>2024-03-17T08:49:41Z</time>
      </trkpt>
      <trkpt lat="47.4431" lon="6.7987">
        <ele>425.4</ele>
        <time>2024-03-17T08:49:42Z</time>
      </trkpt>
      <trkpt lat="47.44309" lon="6.7987">
        <ele>425.8</ele>
        <time>2024-03-17T08:49:43Z</time>
      </trkpt>
      <trkpt lat="47.44309" lon="6.79871">
        <ele>426</ele>
        <time>2024-03-17T08:49:44Z</time>
      </trkpt>
      <trkpt lat="47.44307" lon="6.79874">
        <ele>427.2</ele>
        <time>2024-03-17T08:49:51Z</time>
      </trkpt>
      <trkpt lat="47.44301" lon="6.7988">
        <ele>427.8</ele>
        <time>2024-03-17T08:50:01Z</time>
      </trkpt>
      <trkpt lat="47.44299" lon="6.79881">
        <ele>428.2</ele>
        <time>2024-03-17T08:50:05Z</time>
      </trkpt>
      <trkpt lat="47.44298" lon="6.79881">
        <ele>428.2</ele>
        <time>2024-03-17T08:50:06Z</time>
      </trkpt>
      <trkpt lat="47.44298" lon="6.79881">
        <ele>428.4</ele>
        <time>2024-03-17T08:50:07Z</time>
      </trkpt>
      <trkpt lat="47.44297" lon="6.79883">
        <ele>428.6</ele>
        <time>2024-03-17T08:50:10Z</time>
      </trkpt>
      <trkpt lat="47.44296" lon="6.79883">
        <ele>428.6</ele>
        <time>2024-03-17T08:50:11Z</time>
      </trkpt>
      <trkpt lat="47.44295" lon="6.79884">
        <ele>429</ele>
        <time>2024-03-17T08:50:14Z</time>
      </trkpt>
      <trkpt lat="47.44294" lon="6.79884">
        <ele>429.2</ele>
        <time>2024-03-17T08:50:15Z</time>
      </trkpt>
      <trkpt lat="47.44294" lon="6.79885">
        <ele>429.4</ele>
        <time>2024-03-17T08:50:16Z</time>
      </trkpt>
      <trkpt lat="47.44293" lon="6.79885">
        <ele>429.4</ele>
        <time>2024-03-17T08:50:17Z</time>
      </trkpt>
      <trkpt lat="47.44293" lon="6.79887">
        <ele>429.8</ele>
        <time>2024-03-17T08:50:21Z</time>
      </trkpt>
      <trkpt lat="47.44289" lon="6.79889">
        <ele>430.4</ele>
        <time>2024-03-17T08:50:31Z</time>
      </trkpt>
      <trkpt lat="47.44289" lon="6.79889">
        <ele>430.4</ele>
        <time>2024-03-17T08:50:32Z</time>
      </trkpt>
      <trkpt lat="47.44284" lon="6.79891">
        <ele>431.2</ele>
        <time>2024-03-17T08:50:41Z</time>
      </trkpt>
      <trkpt lat="47.44282" lon="6.79892">
        <ele>431.6</ele>
        <time>2024-03-17T08:50:44Z</time>
      </trkpt>
      <trkpt lat="47.44278" lon="6.79894">
        <ele>432.4</ele>
        <time>2024-03-17T08:50:51Z</time>
      </trkpt>
      <trkpt lat="47.44277" lon="6.79894">
        <ele>432.6</ele>
        <time>2024-03-17T08:50:52Z</time>
      </trkpt>
      <trkpt lat="47.44272" lon="6.79895">
        <ele>433.4</ele>
        <time>2024-03-17T08:50:59Z</time>
      </trkpt>
      <trkpt lat="47.44272" lon="6.79895">
        <ele>433.6</ele>
        <time>2024-03-17T08:51:00Z</time>
      </trkpt>
      <trkpt lat="47.44271" lon="6.79896">
        <ele>434</ele>
        <time>2024-03-17T08:51:01Z</time>
      </trkpt>
      <trkpt lat="47.44267" lon="6.79898">
        <ele>434.8</ele>
        <time>2024-03-17T08:51:07Z</time>
      </trkpt>
      <trkpt lat="47.44266" lon="6.799">
        <ele>435.4</ele>
        <time>2024-03-17T08:51:11Z</time>
      </trkpt>
      <trkpt lat="47.44264" lon="6.799">
        <ele>435.8</ele>
        <time>2024-03-17T08:51:15Z</time>
      </trkpt>
      <trkpt lat="47.4426" lon="6.79903">
        <ele>436.6</ele>
        <time>2024-03-17T08:51:21Z</time>
      </trkpt>
      <trkpt lat="47.44258" lon="6.79903">
        <ele>437</ele>
        <time>2024-03-17T08:51:24Z</time>
      </trkpt>
      <trkpt lat="47.44256" lon="6.79905">
        <ele>437.2</ele>
        <time>2024-03-17T08:51:27Z</time>
      </trkpt>
      <trkpt lat="47.44255" lon="6.79906">
        <ele>437.6</ele>
        <time>2024-03-17T08:51:30Z</time>
      </trkpt>
      <trkpt lat="47.44254" lon="6.79906">
        <ele>437.8</ele>
        <time>2024-03-17T08:51:31Z</time>
      </trkpt>
      <trkpt lat="47.44253" lon="6.79907">
        <ele>438.2</ele>
        <time>2024-03-17T08:51:32Z</time>
      </trkpt>
      <trkpt lat="47.44248" lon="6.79912">
        <ele>439.2</ele>
        <time>2024-03-17T08:51:40Z</time>
      </trkpt>
      <trkpt lat="47.44247" lon="6.79913">
        <ele>439.4</ele>
        <time>2024-03-17T08:51:41Z</time>
      </trkpt>
      <trkpt lat="47.44246" lon="6.79913">
        <ele>439.6</ele>
        <time>2024-03-17T08:51:42Z</time>
      </trkpt>
      <trkpt lat="47.44246" lon="6.79914">
        <ele>439.6</ele>
        <time>2024-03-17T08:51:43Z</time>
      </trkpt>
      <trkpt lat="47.44244" lon="6.79915">
        <ele>439.8</ele>
        <time>2024-03-17T08:51:45Z</time>
      </trkpt>
      <trkpt lat="47.44243" lon="6.79915">
        <ele>439.8</ele>
        <time>2024-03-17T08:51:46Z</time>
      </trkpt>
      <trkpt lat="47.44241" lon="6.79916">
        <ele>440.2</ele>
        <time>2024-03-17T08:51:48Z</time>
      </trkpt>
      <trkpt lat="47.4424" lon="6.79917">
        <ele>440.4</ele>
        <time>2024-03-17T08:51:49Z</time>
      </trkpt>
      <trkpt lat="47.44238" lon="6.79917">
        <ele>440.6</ele>
        <time>2024-03-17T08:51:51Z</time>
      </trkpt>
      <trkpt lat="47.44236" lon="6.79919">
        <ele>441</ele>
        <time>2024-03-17T08:51:53Z</time>
      </trkpt>
      <trkpt lat="47.44236" lon="6.79919">
        <ele>441</ele>
        <time>2024-03-17T08:51:54Z</time>
      </trkpt>
      <trkpt lat="47.44235" lon="6.79919">
        <ele>441.4</ele>
        <time>2024-03-17T08:51:57Z</time>
      </trkpt>
      <trkpt lat="47.44235" lon="6.7992">
        <ele>441.8</ele>
        <time>2024-03-17T08:52:01Z</time>
      </trkpt>
      <trkpt lat="47.44229" lon="6.79923">
        <ele>442</ele>
        <time>2024-03-17T08:52:11Z</time>
      </trkpt>
      <trkpt lat="47.44225" lon="6.79925">
        <ele>442.4</ele>
        <time>2024-03-17T08:52:15Z</time>
      </trkpt>
      <trkpt lat="47.44221" lon="6.79929">
        <ele>443.4</ele>
        <time>2024-03-17T08:52:20Z</time>
      </trkpt>
      <trkpt lat="47.4422" lon="6.79929">
        <ele>443.6</ele>
        <time>2024-03-17T08:52:21Z</time>
      </trkpt>
      <trkpt lat="47.44216" lon="6.79932">
        <ele>444.6</ele>
        <time>2024-03-17T08:52:25Z</time>
      </trkpt>
      <trkpt lat="47.4421" lon="6.79935">
        <ele>445.6</ele>
        <time>2024-03-17T08:52:30Z</time>
      </trkpt>
      <trkpt lat="47.44209" lon="6.79936">
        <ele>446</ele>
        <time>2024-03-17T08:52:31Z</time>
      </trkpt>
      <trkpt lat="47.44205" lon="6.79938">
        <ele>446.8</ele>
        <time>2024-03-17T08:52:34Z</time>
      </trkpt>
      <trkpt lat="47.44198" lon="6.79944">
        <ele>447.8</ele>
        <time>2024-03-17T08:52:40Z</time>
      </trkpt>
      <trkpt lat="47.44196" lon="6.79946">
        <ele>448</ele>
        <time>2024-03-17T08:52:41Z</time>
      </trkpt>
      <trkpt lat="47.44194" lon="6.79948">
        <ele>448.2</ele>
        <time>2024-03-17T08:52:43Z</time>
      </trkpt>
      <trkpt lat="47.44192" lon="6.79951">
        <ele>448.6</ele>
        <time>2024-03-17T08:52:45Z</time>
      </trkpt>
      <trkpt lat="47.44186" lon="6.79954">
        <ele>449</ele>
        <time>2024-03-17T08:52:51Z</time>
      </trkpt>
      <trkpt lat="47.4418" lon="6.79955">
        <ele>449.8</ele>
        <time>2024-03-17T08:52:56Z</time>
      </trkpt>
      <trkpt lat="47.44178" lon="6.79955">
        <ele>450.2</ele>
        <time>2024-03-17T08:52:58Z</time>
      </trkpt>
      <trkpt lat="47.44174" lon="6.79954">
        <ele>450.4</ele>
        <time>2024-03-17T08:53:01Z</time>
      </trkpt>
      <trkpt lat="47.44167" lon="6.79952">
        <ele>451.2</ele>
        <time>2024-03-17T08:53:06Z</time>
      </trkpt>
      <trkpt lat="47.44161" lon="6.79949">
        <ele>452</ele>
        <time>2024-03-17T08:53:11Z</time>
      </trkpt>
      <trkpt lat="47.44159" lon="6.79948">
        <ele>452.4</ele>
        <time>2024-03-17T08:53:13Z</time>
      </trkpt>
      <trkpt lat="47.44148" lon="6.79941">
        <ele>453.4</ele>
        <time>2024-03-17T08:53:20Z</time>
      </trkpt>
      <trkpt lat="47.44147" lon="6.7994">
        <ele>453.6</ele>
        <time>2024-03-17T08:53:21Z</time>
      </trkpt>
      <trkpt lat="47.4414" lon="6.79936">
        <ele>454.4</ele>
        <time>2024-03-17T08:53:27Z</time>
      </trkpt>
      <trkpt lat="47.44136" lon="6.79933">
        <ele>455.6</ele>
        <time>2024-03-17T08:53:31Z</time>
      </trkpt>
      <trkpt lat="47.44131" lon="6.79931">
        <ele>456.6</ele>
        <time>2024-03-17T08:53:41Z</time>
      </trkpt>
      <trkpt lat="47.44126" lon="6.79926">
        <ele>457</ele>
        <time>2024-03-17T08:53:51Z</time>
      </trkpt>
      <trkpt lat="47.44116" lon="6.79919">
        <ele>457.8</ele>
        <time>2024-03-17T08:53:59Z</time>
      </trkpt>
      <trkpt lat="47.44114" lon="6.79916">
        <ele>457.8</ele>
        <time>2024-03-17T08:54:01Z</time>
      </trkpt>
      <trkpt lat="47.44105" lon="6.79907">
        <ele>459</ele>
        <time>2024-03-17T08:54:08Z</time>
      </trkpt>
      <trkpt lat="47.44102" lon="6.79902">
        <ele>459.4</ele>
        <time>2024-03-17T08:54:11Z</time>
      </trkpt>
      <trkpt lat="47.44099" lon="6.79898">
        <ele>460</ele>
        <time>2024-03-17T08:54:14Z</time>
      </trkpt>
      <trkpt lat="47.44094" lon="6.79889">
        <ele>461.2</ele>
        <time>2024-03-17T08:54:20Z</time>
      </trkpt>
      <trkpt lat="47.44093" lon="6.79888">
        <ele>461.4</ele>
        <time>2024-03-17T08:54:21Z</time>
      </trkpt>
      <trkpt lat="47.4409" lon="6.79882">
        <ele>462.2</ele>
        <time>2024-03-17T08:54:25Z</time>
      </trkpt>
      <trkpt lat="47.44088" lon="6.79873">
        <ele>463.4</ele>
        <time>2024-03-17T08:54:30Z</time>
      </trkpt>
      <trkpt lat="47.44088" lon="6.79871">
        <ele>463.6</ele>
        <time>2024-03-17T08:54:31Z</time>
      </trkpt>
      <trkpt lat="47.44087" lon="6.79867">
        <ele>464.6</ele>
        <time>2024-03-17T08:54:34Z</time>
      </trkpt>
      <trkpt lat="47.44085" lon="6.79856">
        <ele>465.6</ele>
        <time>2024-03-17T08:54:41Z</time>
      </trkpt>
      <trkpt lat="47.44082" lon="6.79851">
        <ele>466.8</ele>
        <time>2024-03-17T08:54:46Z</time>
      </trkpt>
      <trkpt lat="47.44079" lon="6.79843">
        <ele>467.8</ele>
        <time>2024-03-17T08:54:51Z</time>
      </trkpt>
      <trkpt lat="47.44078" lon="6.79841">
        <ele>467.8</ele>
        <time>2024-03-17T08:54:52Z</time>
      </trkpt>
      <trkpt lat="47.44072" lon="6.79833">
        <ele>468.8</ele>
        <time>2024-03-17T08:54:59Z</time>
      </trkpt>
      <trkpt lat="47.44072" lon="6.79832">
        <ele>468.8</ele>
        <time>2024-03-17T08:55:00Z</time>
      </trkpt>
      <trkpt lat="47.44071" lon="6.7983">
        <ele>469</ele>
        <time>2024-03-17T08:55:01Z</time>
      </trkpt>
      <trkpt lat="47.44069" lon="6.79827">
        <ele>469.2</ele>
        <time>2024-03-17T08:55:04Z</time>
      </trkpt>
      <trkpt lat="47.44065" lon="6.79815">
        <ele>469.8</ele>
        <time>2024-03-17T08:55:11Z</time>
      </trkpt>
      <trkpt lat="47.44065" lon="6.79813">
        <ele>470</ele>
        <time>2024-03-17T08:55:12Z</time>
      </trkpt>
      <trkpt lat="47.44058" lon="6.798">
        <ele>471.2</ele>
        <time>2024-03-17T08:55:20Z</time>
      </trkpt>
      <trkpt lat="47.44057" lon="6.79799">
        <ele>471.4</ele>
        <time>2024-03-17T08:55:21Z</time>
      </trkpt>
      <trkpt lat="47.44049" lon="6.79789">
        <ele>472.2</ele>
        <time>2024-03-17T08:55:29Z</time>
      </trkpt>
      <trkpt lat="47.44047" lon="6.79785">
        <ele>472.4</ele>
        <time>2024-03-17T08:55:31Z</time>
      </trkpt>
      <trkpt lat="47.44044" lon="6.79782">
        <ele>472.6</ele>
        <time>2024-03-17T08:55:34Z</time>
      </trkpt>
      <trkpt lat="47.44038" lon="6.79781">
        <ele>473.2</ele>
        <time>2024-03-17T08:55:38Z</time>
      </trkpt>
      <trkpt lat="47.44034" lon="6.79779">
        <ele>473.4</ele>
        <time>2024-03-17T08:55:41Z</time>
      </trkpt>
      <trkpt lat="47.4403" lon="6.79779">
        <ele>473.8</ele>
        <time>2024-03-17T08:55:44Z</time>
      </trkpt>
      <trkpt lat="47.44019" lon="6.79789">
        <ele>474</ele>
        <time>2024-03-17T08:55:50Z</time>
      </trkpt>
      <trkpt lat="47.44017" lon="6.7979">
        <ele>474</ele>
        <time>2024-03-17T08:55:51Z</time>
      </trkpt>
      <trkpt lat="47.44015" lon="6.79789">
        <ele>474</ele>
        <time>2024-03-17T08:55:52Z</time>
      </trkpt>
      <trkpt lat="47.44004" lon="6.79775">
        <ele>474.2</ele>
        <time>2024-03-17T08:56:00Z</time>
      </trkpt>
      <trkpt lat="47.44001" lon="6.79773">
        <ele>474.2</ele>
        <time>2024-03-17T08:56:01Z</time>
      </trkpt>
      <trkpt lat="47.43992" lon="6.79763">
        <ele>474.6</ele>
        <time>2024-03-17T08:56:07Z</time>
      </trkpt>
      <trkpt lat="47.43986" lon="6.79756">
        <ele>475.2</ele>
        <time>2024-03-17T08:56:11Z</time>
      </trkpt>
      <trkpt lat="47.43985" lon="6.79755">
        <ele>475.2</ele>
        <time>2024-03-17T08:56:12Z</time>
      </trkpt>
      <trkpt lat="47.43972" lon="6.79744">
        <ele>476</ele>
        <time>2024-03-17T08:56:19Z</time>
      </trkpt>
      <trkpt lat="47.43968" lon="6.79743">
        <ele>476.2</ele>
        <time>2024-03-17T08:56:21Z</time>
      </trkpt>
      <trkpt lat="47.43967" lon="6.79743">
        <ele>476.4</ele>
        <time>2024-03-17T08:56:22Z</time>
      </trkpt>
      <trkpt lat="47.43951" lon="6.79751">
        <ele>477</ele>
        <time>2024-03-17T08:56:31Z</time>
      </trkpt>
      <trkpt lat="47.43939" lon="6.79754">
        <ele>477</ele>
        <time>2024-03-17T08:56:41Z</time>
      </trkpt>
      <trkpt lat="47.43914" lon="6.79762">
        <ele>476.8</ele>
        <time>2024-03-17T08:56:51Z</time>
      </trkpt>
      <trkpt lat="47.4389" lon="6.79788">
        <ele>476.4</ele>
        <time>2024-03-17T08:57:01Z</time>
      </trkpt>
      <trkpt lat="47.43888" lon="6.79791">
        <ele>476.2</ele>
        <time>2024-03-17T08:57:02Z</time>
      </trkpt>
      <trkpt lat="47.43883" lon="6.79822">
        <ele>475.4</ele>
        <time>2024-03-17T08:57:08Z</time>
      </trkpt>
      <trkpt lat="47.43883" lon="6.79834">
        <ele>475.2</ele>
        <time>2024-03-17T08:57:10Z</time>
      </trkpt>
      <trkpt lat="47.43883" lon="6.7984">
        <ele>475.2</ele>
        <time>2024-03-17T08:57:11Z</time>
      </trkpt>
      <trkpt lat="47.43879" lon="6.79873">
        <ele>474.2</ele>
        <time>2024-03-17T08:57:17Z</time>
      </trkpt>
      <trkpt lat="47.43872" lon="6.79895">
        <ele>474</ele>
        <time>2024-03-17T08:57:21Z</time>
      </trkpt>
      <trkpt lat="47.43871" lon="6.79949">
        <ele>473.8</ele>
        <time>2024-03-17T08:57:31Z</time>
      </trkpt>
      <trkpt lat="47.43872" lon="6.79968">
        <ele>473.6</ele>
        <time>2024-03-17T08:57:34Z</time>
      </trkpt>
      <trkpt lat="47.43875" lon="6.7999">
        <ele>473</ele>
        <time>2024-03-17T08:57:37Z</time>
      </trkpt>
      <trkpt lat="47.43875" lon="6.80013">
        <ele>472.4</ele>
        <time>2024-03-17T08:57:40Z</time>
      </trkpt>
      <trkpt lat="47.43875" lon="6.80021">
        <ele>472.2</ele>
        <time>2024-03-17T08:57:41Z</time>
      </trkpt>
      <trkpt lat="47.43875" lon="6.80029">
        <ele>472</ele>
        <time>2024-03-17T08:57:42Z</time>
      </trkpt>
      <trkpt lat="47.43874" lon="6.80051">
        <ele>471</ele>
        <time>2024-03-17T08:57:45Z</time>
      </trkpt>
      <trkpt lat="47.43871" lon="6.8009">
        <ele>470.2</ele>
        <time>2024-03-17T08:57:51Z</time>
      </trkpt>
      <trkpt lat="47.43862" lon="6.80141">
        <ele>470.2</ele>
        <time>2024-03-17T08:58:01Z</time>
      </trkpt>
      <trkpt lat="47.43845" lon="6.80183">
        <ele>470.8</ele>
        <time>2024-03-17T08:58:11Z</time>
      </trkpt>
      <trkpt lat="47.43823" lon="6.80192">
        <ele>471.8</ele>
        <time>2024-03-17T08:58:21Z</time>
      </trkpt>
      <trkpt lat="47.43822" lon="6.80192">
        <ele>472.2</ele>
        <time>2024-03-17T08:58:22Z</time>
      </trkpt>
      <trkpt lat="47.4382" lon="6.8019">
        <ele>473</ele>
        <time>2024-03-17T08:58:25Z</time>
      </trkpt>
      <trkpt lat="47.43819" lon="6.8019">
        <ele>473.4</ele>
        <time>2024-03-17T08:58:26Z</time>
      </trkpt>
      <trkpt lat="47.43818" lon="6.80186">
        <ele>474.6</ele>
        <time>2024-03-17T08:58:29Z</time>
      </trkpt>
      <trkpt lat="47.43818" lon="6.80185">
        <ele>474.8</ele>
        <time>2024-03-17T08:58:30Z</time>
      </trkpt>
      <trkpt lat="47.43817" lon="6.80183">
        <ele>474.8</ele>
        <time>2024-03-17T08:58:31Z</time>
      </trkpt>
      <trkpt lat="47.43816" lon="6.80178">
        <ele>475.6</ele>
        <time>2024-03-17T08:58:34Z</time>
      </trkpt>
      <trkpt lat="47.43814" lon="6.80165">
        <ele>476.8</ele>
        <time>2024-03-17T08:58:41Z</time>
      </trkpt>
      <trkpt lat="47.43813" lon="6.80161">
        <ele>477</ele>
        <time>2024-03-17T08:58:43Z</time>
      </trkpt>
      <trkpt lat="47.43809" lon="6.80152">
        <ele>477.8</ele>
        <time>2024-03-17T08:58:47Z</time>
      </trkpt>
      <trkpt lat="47.43806" lon="6.80145">
        <ele>478.2</ele>
        <time>2024-03-17T08:58:51Z</time>
      </trkpt>
      <trkpt lat="47.438" lon="6.80133">
        <ele>479</ele>
        <time>2024-03-17T08:58:57Z</time>
      </trkpt>
      <trkpt lat="47.43797" lon="6.80124">
        <ele>479.4</ele>
        <time>2024-03-17T08:59:01Z</time>
      </trkpt>
      <trkpt lat="47.43792" lon="6.80113">
        <ele>480</ele>
        <time>2024-03-17T08:59:06Z</time>
      </trkpt>
      <trkpt lat="47.43788" lon="6.80106">
        <ele>480.6</ele>
        <time>2024-03-17T08:59:11Z</time>
      </trkpt>
      <trkpt lat="47.43784" lon="6.80102">
        <ele>481.2</ele>
        <time>2024-03-17T08:59:14Z</time>
      </trkpt>
      <trkpt lat="47.43776" lon="6.80093">
        <ele>482</ele>
        <time>2024-03-17T08:59:21Z</time>
      </trkpt>
      <trkpt lat="47.43772" lon="6.80089">
        <ele>482.2</ele>
        <time>2024-03-17T08:59:24Z</time>
      </trkpt>
      <trkpt lat="47.43762" lon="6.80077">
        <ele>483.2</ele>
        <time>2024-03-17T08:59:31Z</time>
      </trkpt>
      <trkpt lat="47.43751" lon="6.80061">
        <ele>484.2</ele>
        <time>2024-03-17T08:59:40Z</time>
      </trkpt>
      <trkpt lat="47.4375" lon="6.8006">
        <ele>484.4</ele>
        <time>2024-03-17T08:59:41Z</time>
      </trkpt>
      <trkpt lat="47.43744" lon="6.80051">
        <ele>485.2</ele>
        <time>2024-03-17T08:59:46Z</time>
      </trkpt>
      <trkpt lat="47.43738" lon="6.80044">
        <ele>485.6</ele>
        <time>2024-03-17T08:59:51Z</time>
      </trkpt>
      <trkpt lat="47.43731" lon="6.80033">
        <ele>486.2</ele>
        <time>2024-03-17T08:59:57Z</time>
      </trkpt>
      <trkpt lat="47.4373" lon="6.80032">
        <ele>486.2</ele>
        <time>2024-03-17T08:59:58Z</time>
      </trkpt>
      <trkpt lat="47.43726" lon="6.80028">
        <ele>486.6</ele>
        <time>2024-03-17T09:00:01Z</time>
      </trkpt>
      <trkpt lat="47.43717" lon="6.80017">
        <ele>487.4</ele>
        <time>2024-03-17T09:00:08Z</time>
      </trkpt>
      <trkpt lat="47.43713" lon="6.80011">
        <ele>487.6</ele>
        <time>2024-03-17T09:00:11Z</time>
      </trkpt>
      <trkpt lat="47.43704" lon="6.79993">
        <ele>488.2</ele>
        <time>2024-03-17T09:00:19Z</time>
      </trkpt>
      <trkpt lat="47.43704" lon="6.79986">
        <ele>488.4</ele>
        <time>2024-03-17T09:00:21Z</time>
      </trkpt>
      <trkpt lat="47.43706" lon="6.79968">
        <ele>489.4</ele>
        <time>2024-03-17T09:00:28Z</time>
      </trkpt>
      <trkpt lat="47.43707" lon="6.79961">
        <ele>490.4</ele>
        <time>2024-03-17T09:00:31Z</time>
      </trkpt>
      <trkpt lat="47.43708" lon="6.79956">
        <ele>490.6</ele>
        <time>2024-03-17T09:00:33Z</time>
      </trkpt>
      <trkpt lat="47.43709" lon="6.79934">
        <ele>491.8</ele>
        <time>2024-03-17T09:00:41Z</time>
      </trkpt>
      <trkpt lat="47.4371" lon="6.79929">
        <ele>492.2</ele>
        <time>2024-03-17T09:00:43Z</time>
      </trkpt>
      <trkpt lat="47.43715" lon="6.79913">
        <ele>492.8</ele>
        <time>2024-03-17T09:00:50Z</time>
      </trkpt>
      <trkpt lat="47.43716" lon="6.7991">
        <ele>492.8</ele>
        <time>2024-03-17T09:00:51Z</time>
      </trkpt>
      <trkpt lat="47.43721" lon="6.79884">
        <ele>493.8</ele>
        <time>2024-03-17T09:01:01Z</time>
      </trkpt>
      <trkpt lat="47.4372" lon="6.79878">
        <ele>494</ele>
        <time>2024-03-17T09:01:03Z</time>
      </trkpt>
      <trkpt lat="47.4372" lon="6.79854">
        <ele>494.8</ele>
        <time>2024-03-17T09:01:11Z</time>
      </trkpt>
      <trkpt lat="47.43723" lon="6.79845">
        <ele>495</ele>
        <time>2024-03-17T09:01:14Z</time>
      </trkpt>
      <trkpt lat="47.43728" lon="6.79816">
        <ele>495.4</ele>
        <time>2024-03-17T09:01:21Z</time>
      </trkpt>
      <trkpt lat="47.43731" lon="6.79795">
        <ele>496</ele>
        <time>2024-03-17T09:01:27Z</time>
      </trkpt>
      <trkpt lat="47.43731" lon="6.7978">
        <ele>496.6</ele>
        <time>2024-03-17T09:01:31Z</time>
      </trkpt>
      <trkpt lat="47.43745" lon="6.79747">
        <ele>496.8</ele>
        <time>2024-03-17T09:01:41Z</time>
      </trkpt>
      <trkpt lat="47.43761" lon="6.79709">
        <ele>497</ele>
        <time>2024-03-17T09:01:51Z</time>
      </trkpt>
      <trkpt lat="47.43776" lon="6.79692">
        <ele>496.4</ele>
        <time>2024-03-17T09:02:01Z</time>
      </trkpt>
      <trkpt lat="47.43786" lon="6.79678">
        <ele>495</ele>
        <time>2024-03-17T09:02:06Z</time>
      </trkpt>
      <trkpt lat="47.43791" lon="6.79672">
        <ele>494.8</ele>
        <time>2024-03-17T09:02:08Z</time>
      </trkpt>
      <trkpt lat="47.43799" lon="6.79661">
        <ele>494</ele>
        <time>2024-03-17T09:02:11Z</time>
      </trkpt>
      <trkpt lat="47.43803" lon="6.79656">
        <ele>494</ele>
        <time>2024-03-17T09:02:12Z</time>
      </trkpt>
      <trkpt lat="47.43812" lon="6.79638">
        <ele>493.8</ele>
        <time>2024-03-17T09:02:15Z</time>
      </trkpt>
      <trkpt lat="47.43814" lon="6.79622">
        <ele>493.8</ele>
        <time>2024-03-17T09:02:17Z</time>
      </trkpt>
      <trkpt lat="47.43814" lon="6.79602">
        <ele>493.4</ele>
        <time>2024-03-17T09:02:19Z</time>
      </trkpt>
      <trkpt lat="47.43814" lon="6.79584">
        <ele>492.6</ele>
        <time>2024-03-17T09:02:21Z</time>
      </trkpt>
      <trkpt lat="47.43813" lon="6.79575">
        <ele>492</ele>
        <time>2024-03-17T09:02:22Z</time>
      </trkpt>
      <trkpt lat="47.43812" lon="6.79566">
        <ele>491.4</ele>
        <time>2024-03-17T09:02:23Z</time>
      </trkpt>
      <trkpt lat="47.43806" lon="6.79548">
        <ele>490</ele>
        <time>2024-03-17T09:02:25Z</time>
      </trkpt>
      <trkpt lat="47.43804" lon="6.79534">
        <ele>488.6</ele>
        <time>2024-03-17T09:02:27Z</time>
      </trkpt>
      <trkpt lat="47.43801" lon="6.79512">
        <ele>488</ele>
        <time>2024-03-17T09:02:30Z</time>
      </trkpt>
      <trkpt lat="47.438" lon="6.79504">
        <ele>487.8</ele>
        <time>2024-03-17T09:02:31Z</time>
      </trkpt>
      <trkpt lat="47.43795" lon="6.79465">
        <ele>487.8</ele>
        <time>2024-03-17T09:02:37Z</time>
      </trkpt>
      <trkpt lat="47.43791" lon="6.79441">
        <ele>487.8</ele>
        <time>2024-03-17T09:02:41Z</time>
      </trkpt>
      <trkpt lat="47.43767" lon="6.79425">
        <ele>489.4</ele>
        <time>2024-03-17T09:02:51Z</time>
      </trkpt>
      <trkpt lat="47.43764" lon="6.79425">
        <ele>489.8</ele>
        <time>2024-03-17T09:02:52Z</time>
      </trkpt>
      <trkpt lat="47.43749" lon="6.7943">
        <ele>490.8</ele>
        <time>2024-03-17T09:02:58Z</time>
      </trkpt>
      <trkpt lat="47.43743" lon="6.79433">
        <ele>491.2</ele>
        <time>2024-03-17T09:03:01Z</time>
      </trkpt>
      <trkpt lat="47.43728" lon="6.79431">
        <ele>491.8</ele>
        <time>2024-03-17T09:03:07Z</time>
      </trkpt>
      <trkpt lat="47.43719" lon="6.79431">
        <ele>492.4</ele>
        <time>2024-03-17T09:03:11Z</time>
      </trkpt>
      <trkpt lat="47.43704" lon="6.79443">
        <ele>492.8</ele>
        <time>2024-03-17T09:03:18Z</time>
      </trkpt>
      <trkpt lat="47.43696" lon="6.79446">
        <ele>493.2</ele>
        <time>2024-03-17T09:03:21Z</time>
      </trkpt>
      <trkpt lat="47.43684" lon="6.7945">
        <ele>493.6</ele>
        <time>2024-03-17T09:03:26Z</time>
      </trkpt>
      <trkpt lat="47.43677" lon="6.79451">
        <ele>494</ele>
        <time>2024-03-17T09:03:29Z</time>
      </trkpt>
      <trkpt lat="47.43673" lon="6.79454">
        <ele>494.2</ele>
        <time>2024-03-17T09:03:31Z</time>
      </trkpt>
      <trkpt lat="47.43647" lon="6.79453">
        <ele>495</ele>
        <time>2024-03-17T09:03:40Z</time>
      </trkpt>
      <trkpt lat="47.43644" lon="6.79453">
        <ele>495</ele>
        <time>2024-03-17T09:03:41Z</time>
      </trkpt>
      <trkpt lat="47.43629" lon="6.79447">
        <ele>495.4</ele>
        <time>2024-03-17T09:03:46Z</time>
      </trkpt>
      <trkpt lat="47.43613" lon="6.79445">
        <ele>495.6</ele>
        <time>2024-03-17T09:03:51Z</time>
      </trkpt>
      <trkpt lat="47.43588" lon="6.79447">
        <ele>495.8</ele>
        <time>2024-03-17T09:04:00Z</time>
      </trkpt>
      <trkpt lat="47.43586" lon="6.79448">
        <ele>495.8</ele>
        <time>2024-03-17T09:04:01Z</time>
      </trkpt>
      <trkpt lat="47.43576" lon="6.79453">
        <ele>496</ele>
        <time>2024-03-17T09:04:05Z</time>
      </trkpt>
      <trkpt lat="47.4356" lon="6.79461">
        <ele>496.2</ele>
        <time>2024-03-17T09:04:11Z</time>
      </trkpt>
      <trkpt lat="47.43536" lon="6.79467">
        <ele>496.2</ele>
        <time>2024-03-17T09:04:21Z</time>
      </trkpt>
      <trkpt lat="47.43512" lon="6.79477">
        <ele>496.2</ele>
        <time>2024-03-17T09:04:31Z</time>
      </trkpt>
      <trkpt lat="47.43493" lon="6.79488">
        <ele>496</ele>
        <time>2024-03-17T09:04:38Z</time>
      </trkpt>
      <trkpt lat="47.43485" lon="6.79495">
        <ele>495.8</ele>
        <time>2024-03-17T09:04:41Z</time>
      </trkpt>
      <trkpt lat="47.43456" lon="6.79518">
        <ele>494.6</ele>
        <time>2024-03-17T09:04:51Z</time>
      </trkpt>
      <trkpt lat="47.43434" lon="6.79532">
        <ele>493.8</ele>
        <time>2024-03-17T09:05:01Z</time>
      </trkpt>
      <trkpt lat="47.43421" lon="6.79531">
        <ele>494.2</ele>
        <time>2024-03-17T09:05:06Z</time>
      </trkpt>
      <trkpt lat="47.43408" lon="6.79528">
        <ele>494.8</ele>
        <time>2024-03-17T09:05:11Z</time>
      </trkpt>
      <trkpt lat="47.43394" lon="6.79537">
        <ele>495.8</ele>
        <time>2024-03-17T09:05:20Z</time>
      </trkpt>
      <trkpt lat="47.43392" lon="6.79537">
        <ele>495.8</ele>
        <time>2024-03-17T09:05:21Z</time>
      </trkpt>
      <trkpt lat="47.43385" lon="6.7954">
        <ele>497</ele>
        <time>2024-03-17T09:05:25Z</time>
      </trkpt>
      <trkpt lat="47.43377" lon="6.79543">
        <ele>497.6</ele>
        <time>2024-03-17T09:05:30Z</time>
      </trkpt>
      <trkpt lat="47.43375" lon="6.79543">
        <ele>497.6</ele>
        <time>2024-03-17T09:05:31Z</time>
      </trkpt>
      <trkpt lat="47.43369" lon="6.79543">
        <ele>498</ele>
        <time>2024-03-17T09:05:34Z</time>
      </trkpt>
      <trkpt lat="47.43357" lon="6.79548">
        <ele>498.6</ele>
        <time>2024-03-17T09:05:41Z</time>
      </trkpt>
      <trkpt lat="47.43355" lon="6.79548">
        <ele>499</ele>
        <time>2024-03-17T09:05:42Z</time>
      </trkpt>
      <trkpt lat="47.43347" lon="6.7955">
        <ele>500.2</ele>
        <time>2024-03-17T09:05:46Z</time>
      </trkpt>
      <trkpt lat="47.43338" lon="6.79556">
        <ele>500.6</ele>
        <time>2024-03-17T09:05:51Z</time>
      </trkpt>
      <trkpt lat="47.43326" lon="6.79557">
        <ele>501.2</ele>
        <time>2024-03-17T09:05:57Z</time>
      </trkpt>
      <trkpt lat="47.43319" lon="6.79563">
        <ele>501.8</ele>
        <time>2024-03-17T09:06:01Z</time>
      </trkpt>
      <trkpt lat="47.43309" lon="6.79566">
        <ele>502.4</ele>
        <time>2024-03-17T09:06:06Z</time>
      </trkpt>
      <trkpt lat="47.433" lon="6.7957">
        <ele>503</ele>
        <time>2024-03-17T09:06:11Z</time>
      </trkpt>
      <trkpt lat="47.43295" lon="6.79571">
        <ele>503.6</ele>
        <time>2024-03-17T09:06:13Z</time>
      </trkpt>
      <trkpt lat="47.43274" lon="6.79573">
        <ele>504</ele>
        <time>2024-03-17T09:06:21Z</time>
      </trkpt>
      <trkpt lat="47.43259" lon="6.79572">
        <ele>503.6</ele>
        <time>2024-03-17T09:06:27Z</time>
      </trkpt>
      <trkpt lat="47.43257" lon="6.79572">
        <ele>503.4</ele>
        <time>2024-03-17T09:06:28Z</time>
      </trkpt>
      <trkpt lat="47.43251" lon="6.79574">
        <ele>503.4</ele>
        <time>2024-03-17T09:06:30Z</time>
      </trkpt>
      <trkpt lat="47.43248" lon="6.79574">
        <ele>503.4</ele>
        <time>2024-03-17T09:06:31Z</time>
      </trkpt>
      <trkpt lat="47.43221" lon="6.79568">
        <ele>503.6</ele>
        <time>2024-03-17T09:06:41Z</time>
      </trkpt>
      <trkpt lat="47.43195" lon="6.79569">
        <ele>504.2</ele>
        <time>2024-03-17T09:06:51Z</time>
      </trkpt>
      <trkpt lat="47.43188" lon="6.7957">
        <ele>504.6</ele>
        <time>2024-03-17T09:06:54Z</time>
      </trkpt>
      <trkpt lat="47.43175" lon="6.79582">
        <ele>505.2</ele>
        <time>2024-03-17T09:07:01Z</time>
      </trkpt>
      <trkpt lat="47.43171" lon="6.79589">
        <ele>505.8</ele>
        <time>2024-03-17T09:07:04Z</time>
      </trkpt>
      <trkpt lat="47.43166" lon="6.79603">
        <ele>506.8</ele>
        <time>2024-03-17T09:07:10Z</time>
      </trkpt>
      <trkpt lat="47.43165" lon="6.79605">
        <ele>507</ele>
        <time>2024-03-17T09:07:11Z</time>
      </trkpt>
      <trkpt lat="47.43157" lon="6.79612">
        <ele>508</ele>
        <time>2024-03-17T09:07:16Z</time>
      </trkpt>
      <trkpt lat="47.43151" lon="6.79615">
        <ele>509</ele>
        <time>2024-03-17T09:07:21Z</time>
      </trkpt>
      <trkpt lat="47.43149" lon="6.79615">
        <ele>509.2</ele>
        <time>2024-03-17T09:07:22Z</time>
      </trkpt>
      <trkpt lat="47.43148" lon="6.79614">
        <ele>509.4</ele>
        <time>2024-03-17T09:07:23Z</time>
      </trkpt>
      <trkpt lat="47.4314" lon="6.79611">
        <ele>510.2</ele>
        <time>2024-03-17T09:07:28Z</time>
      </trkpt>
      <trkpt lat="47.43135" lon="6.79609">
        <ele>510.6</ele>
        <time>2024-03-17T09:07:31Z</time>
      </trkpt>
      <trkpt lat="47.43127" lon="6.79598">
        <ele>511.4</ele>
        <time>2024-03-17T09:07:37Z</time>
      </trkpt>
      <trkpt lat="47.43125" lon="6.79594">
        <ele>511.4</ele>
        <time>2024-03-17T09:07:39Z</time>
      </trkpt>
      <trkpt lat="47.43122" lon="6.79593">
        <ele>511.8</ele>
        <time>2024-03-17T09:07:41Z</time>
      </trkpt>
      <trkpt lat="47.43107" lon="6.79595">
        <ele>512.4</ele>
        <time>2024-03-17T09:07:48Z</time>
      </trkpt>
      <trkpt lat="47.43101" lon="6.79596">
        <ele>513</ele>
        <time>2024-03-17T09:07:51Z</time>
      </trkpt>
      <trkpt lat="47.43092" lon="6.79596">
        <ele>513.4</ele>
        <time>2024-03-17T09:07:55Z</time>
      </trkpt>
      <trkpt lat="47.43084" lon="6.79599">
        <ele>513.6</ele>
        <time>2024-03-17T09:07:59Z</time>
      </trkpt>
      <trkpt lat="47.43078" lon="6.79598">
        <ele>513.6</ele>
        <time>2024-03-17T09:08:01Z</time>
      </trkpt>
      <trkpt lat="47.43045" lon="6.79592">
        <ele>513.6</ele>
        <time>2024-03-17T09:08:12Z</time>
      </trkpt>
      <trkpt lat="47.4303" lon="6.79584">
        <ele>513.6</ele>
        <time>2024-03-17T09:08:17Z</time>
      </trkpt>
      <trkpt lat="47.43022" lon="6.79585">
        <ele>513.6</ele>
        <time>2024-03-17T09:08:22Z</time>
      </trkpt>
      <trkpt lat="47.4302" lon="6.79589">
        <ele>514.2</ele>
        <time>2024-03-17T09:08:32Z</time>
      </trkpt>
      <trkpt lat="47.43019" lon="6.79589">
        <ele>514.2</ele>
        <time>2024-03-17T09:08:42Z</time>
      </trkpt>
      <trkpt lat="47.43018" lon="6.79586">
        <ele>514</ele>
        <time>2024-03-17T09:08:52Z</time>
      </trkpt>
      <trkpt lat="47.43018" lon="6.79585">
        <ele>514</ele>
        <time>2024-03-17T09:09:02Z</time>
      </trkpt>
      <trkpt lat="47.43021" lon="6.79587">
        <ele>514</ele>
        <time>2024-03-17T09:09:12Z</time>
      </trkpt>
      <trkpt lat="47.43024" lon="6.79593">
        <ele>514</ele>
        <time>2024-03-17T09:09:22Z</time>
      </trkpt>
      <trkpt lat="47.43025" lon="6.79593">
        <ele>513.8</ele>
        <time>2024-03-17T09:09:32Z</time>
      </trkpt>
      <trkpt lat="47.43025" lon="6.79594">
        <ele>513.8</ele>
        <time>2024-03-17T09:09:42Z</time>
      </trkpt>
      <trkpt lat="47.43025" lon="6.79594">
        <ele>513.8</ele>
        <time>2024-03-17T09:09:47Z</time>
      </trkpt>
      <trkpt lat="47.43026" lon="6.79594">
        <ele>513.8</ele>
        <time>2024-03-17T09:09:50Z</time>
      </trkpt>
      <trkpt lat="47.43025" lon="6.79594">
        <ele>513.8</ele>
        <time>2024-03-17T09:09:52Z</time>
      </trkpt>
      <trkpt lat="47.43026" lon="6.79594">
        <ele>513.8</ele>
        <time>2024-03-17T09:10:02Z</time>
      </trkpt>
      <trkpt lat="47.43026" lon="6.79594">
        <ele>513.8</ele>
        <time>2024-03-17T09:10:03Z</time>
      </trkpt>
      <trkpt lat="47.43026" lon="6.79594">
        <ele>513.8</ele>
        <time>2024-03-17T09:10:08Z</time>
      </trkpt>
      <trkpt lat="47.43026" lon="6.79594">
        <ele>513.8</ele>
        <time>2024-03-17T09:10:11Z</time>
      </trkpt>
      <trkpt lat="47.43026" lon="6.79594">
        <ele>513.8</ele>
        <time>2024-03-17T09:10:12Z</time>
      </trkpt>
      <trkpt lat="47.43026" lon="6.79594">
        <ele>513.8</ele>
        <time>2024-03-17T09:10:13Z</time>
      </trkpt>
      <trkpt lat="47.43027" lon="6.79594">
        <ele>513.8</ele>
        <time>2024-03-17T09:10:22Z</time>
      </trkpt>
      <trkpt lat="47.43027" lon="6.79596">
        <ele>513.8</ele>
        <time>2024-03-17T09:10:32Z</time>
      </trkpt>
      <trkpt lat="47.43027" lon="6.79596">
        <ele>513.6</ele>
        <time>2024-03-17T09:10:42Z</time>
      </trkpt>
      <trkpt lat="47.43027" lon="6.79596">
        <ele>514</ele>
        <time>2024-03-17T09:10:52Z</time>
      </trkpt>
      <trkpt lat="47.43027" lon="6.79596">
        <ele>514</ele>
        <time>2024-03-17T09:10:56Z</time>
      </trkpt>
      <trkpt lat="47.43027" lon="6.79596">
        <ele>514</ele>
        <time>2024-03-17T09:10:57Z</time>
      </trkpt>
      <trkpt lat="47.43027" lon="6.79596">
        <ele>514</ele>
        <time>2024-03-17T09:10:58Z</time>
      </trkpt>
      <trkpt lat="47.43027" lon="6.79596">
        <ele>514</ele>
        <time>2024-03-17T09:10:59Z</time>
      </trkpt>
      <trkpt lat="47.43027" lon="6.79596">
        <ele>514</ele>
        <time>2024-03-17T09:11:02Z</time>
      </trkpt>
      <trkpt lat="47.43027" lon="6.79595">
        <ele>514</ele>
        <time>2024-03-17T09:11:04Z</time>
      </trkpt>
      <trkpt lat="47.43027" lon="6.79595">
        <ele>514</ele>
        <time>2024-03-17T09:11:05Z</time>
      </trkpt>
      <trkpt lat="47.43027" lon="6.79594">
        <ele>514</ele>
        <time>2024-03-17T09:11:06Z</time>
      </trkpt>
      <trkpt lat="47.43026" lon="6.79592">
        <ele>514</ele>
        <time>2024-03-17T09:11:08Z</time>
      </trkpt>
      <trkpt lat="47.43024" lon="6.7959">
        <ele>514</ele>
        <time>2024-03-17T09:11:11Z</time>
      </trkpt>
      <trkpt lat="47.43023" lon="6.79589">
        <ele>514</ele>
        <time>2024-03-17T09:11:12Z</time>
      </trkpt>
      <trkpt lat="47.43023" lon="6.79589">
        <ele>514</ele>
        <time>2024-03-17T09:11:13Z</time>
      </trkpt>
      <trkpt lat="47.43022" lon="6.79589">
        <ele>514</ele>
        <time>2024-03-17T09:11:14Z</time>
      </trkpt>
      <trkpt lat="47.43021" lon="6.79588">
        <ele>514</ele>
        <time>2024-03-17T09:11:15Z</time>
      </trkpt>
      <trkpt lat="47.43018" lon="6.79588">
        <ele>514</ele>
        <time>2024-03-17T09:11:21Z</time>
      </trkpt>
      <trkpt lat="47.43018" lon="6.79587">
        <ele>514</ele>
        <time>2024-03-17T09:11:22Z</time>
      </trkpt>
      <trkpt lat="47.43016" lon="6.79583">
        <ele>514</ele>
        <time>2024-03-17T09:11:27Z</time>
      </trkpt>
      <trkpt lat="47.43016" lon="6.79583">
        <ele>514</ele>
        <time>2024-03-17T09:11:29Z</time>
      </trkpt>
      <trkpt lat="47.43016" lon="6.79582">
        <ele>514</ele>
        <time>2024-03-17T09:11:31Z</time>
      </trkpt>
      <trkpt lat="47.43016" lon="6.79581">
        <ele>514</ele>
        <time>2024-03-17T09:11:32Z</time>
      </trkpt>
      <trkpt lat="47.43016" lon="6.79581">
        <ele>514</ele>
        <time>2024-03-17T09:11:34Z</time>
      </trkpt>
      <trkpt lat="47.43015" lon="6.7958">
        <ele>514</ele>
        <time>2024-03-17T09:11:36Z</time>
      </trkpt>
      <trkpt lat="47.43015" lon="6.7958">
        <ele>514</ele>
        <time>2024-03-17T09:11:37Z</time>
      </trkpt>
      <trkpt lat="47.43015" lon="6.7958">
        <ele>514</ele>
        <time>2024-03-17T09:11:39Z</time>
      </trkpt>
      <trkpt lat="47.43015" lon="6.7958">
        <ele>514</ele>
        <time>2024-03-17T09:11:41Z</time>
      </trkpt>
      <trkpt lat="47.43014" lon="6.7958">
        <ele>514</ele>
        <time>2024-03-17T09:11:42Z</time>
      </trkpt>
      <trkpt lat="47.43013" lon="6.79581">
        <ele>514</ele>
        <time>2024-03-17T09:11:52Z</time>
      </trkpt>
      <trkpt lat="47.43013" lon="6.7958">
        <ele>514</ele>
        <time>2024-03-17T09:12:02Z</time>
      </trkpt>
      <trkpt lat="47.43013" lon="6.7958">
        <ele>514</ele>
        <time>2024-03-17T09:12:06Z</time>
      </trkpt>
      <trkpt lat="47.43013" lon="6.79579">
        <ele>514</ele>
        <time>2024-03-17T09:12:12Z</time>
      </trkpt>
      <trkpt lat="47.43013" lon="6.79579">
        <ele>514</ele>
        <time>2024-03-17T09:12:17Z</time>
      </trkpt>
      <trkpt lat="47.43013" lon="6.79579">
        <ele>514</ele>
        <time>2024-03-17T09:12:22Z</time>
      </trkpt>
      <trkpt lat="47.43013" lon="6.79579">
        <ele>514</ele>
        <time>2024-03-17T09:12:29Z</time>
      </trkpt>
      <trkpt lat="47.43013" lon="6.79579">
        <ele>514</ele>
        <time>2024-03-17T09:12:32Z</time>
      </trkpt>
      <trkpt lat="47.43013" lon="6.79579">
        <ele>514</ele>
        <time>2024-03-17T09:12:38Z</time>
      </trkpt>
      <trkpt lat="47.43014" lon="6.79579">
        <ele>514</ele>
        <time>2024-03-17T09:12:42Z</time>
      </trkpt>
      <trkpt lat="47.43014" lon="6.79579">
        <ele>514</ele>
        <time>2024-03-17T09:12:49Z</time>
      </trkpt>
      <trkpt lat="47.43014" lon="6.79579">
        <ele>514</ele>
        <time>2024-03-17T09:12:52Z</time>
      </trkpt>
      <trkpt lat="47.43014" lon="6.79579">
        <ele>514</ele>
        <time>2024-03-17T09:12:58Z</time>
      </trkpt>
      <trkpt lat="47.43014" lon="6.79578">
        <ele>514</ele>
        <time>2024-03-17T09:13:01Z</time>
      </trkpt>
      <trkpt lat="47.43015" lon="6.79578">
        <ele>514</ele>
        <time>2024-03-17T09:13:05Z</time>
      </trkpt>
      <trkpt lat="47.43015" lon="6.79577">
        <ele>514</ele>
        <time>2024-03-17T09:13:07Z</time>
      </trkpt>
      <trkpt lat="47.43015" lon="6.79577">
        <ele>514</ele>
        <time>2024-03-17T09:13:08Z</time>
      </trkpt>
      <trkpt lat="47.43015" lon="6.79577">
        <ele>514</ele>
        <time>2024-03-17T09:13:09Z</time>
      </trkpt>
      <trkpt lat="47.43015" lon="6.79577">
        <ele>514</ele>
        <time>2024-03-17T09:13:10Z</time>
      </trkpt>
      <trkpt lat="47.43015" lon="6.79577">
        <ele>514</ele>
        <time>2024-03-17T09:13:12Z</time>
      </trkpt>
      <trkpt lat="47.43015" lon="6.79577">
        <ele>514</ele>
        <time>2024-03-17T09:13:14Z</time>
      </trkpt>
      <trkpt lat="47.43015" lon="6.79577">
        <ele>514</ele>
        <time>2024-03-17T09:13:15Z</time>
      </trkpt>
      <trkpt lat="47.43015" lon="6.79577">
        <ele>514</ele>
        <time>2024-03-17T09:13:16Z</time>
      </trkpt>
      <trkpt lat="47.43015" lon="6.79577">
        <ele>514</ele>
        <time>2024-03-17T09:13:17Z</time>
      </trkpt>
      <trkpt lat="47.43015" lon="6.79577">
        <ele>514</ele>
        <time>2024-03-17T09:13:18Z</time>
      </trkpt>
      <trkpt lat="47.43015" lon="6.79577">
        <ele>514</ele>
        <time>2024-03-17T09:13:19Z</time>
      </trkpt>
      <trkpt lat="47.43015" lon="6.79577">
        <ele>514</ele>
        <time>2024-03-17T09:13:20Z</time>
      </trkpt>
      <trkpt lat="47.43015" lon="6.79577">
        <ele>514</ele>
        <time>2024-03-17T09:13:22Z</time>
      </trkpt>
      <trkpt lat="47.43016" lon="6.79577">
        <ele>514</ele>
        <time>2024-03-17T09:13:32Z</time>
      </trkpt>
      <trkpt lat="47.43017" lon="6.79579">
        <ele>514</ele>
        <time>2024-03-17T09:13:42Z</time>
      </trkpt>
      <trkpt lat="47.43018" lon="6.79582">
        <ele>514</ele>
        <time>2024-03-17T09:13:52Z</time>
      </trkpt>
      <trkpt lat="47.43017" lon="6.79583">
        <ele>514</ele>
        <time>2024-03-17T09:14:02Z</time>
      </trkpt>
      <trkpt lat="47.43017" lon="6.79583">
        <ele>514</ele>
        <time>2024-03-17T09:14:06Z</time>
      </trkpt>
      <trkpt lat="47.43017" lon="6.79582">
        <ele>514</ele>
        <time>2024-03-17T09:14:08Z</time>
      </trkpt>
      <trkpt lat="47.43017" lon="6.79582">
        <ele>514</ele>
        <time>2024-03-17T09:14:09Z</time>
      </trkpt>
      <trkpt lat="47.43016" lon="6.79582">
        <ele>514</ele>
        <time>2024-03-17T09:14:12Z</time>
      </trkpt>
      <trkpt lat="47.43016" lon="6.79582">
        <ele>514</ele>
        <time>2024-03-17T09:14:16Z</time>
      </trkpt>
      <trkpt lat="47.43016" lon="6.79581">
        <ele>514</ele>
        <time>2024-03-17T09:14:19Z</time>
      </trkpt>
      <trkpt lat="47.43016" lon="6.79581">
        <ele>514</ele>
        <time>2024-03-17T09:14:22Z</time>
      </trkpt>
      <trkpt lat="47.43016" lon="6.79581">
        <ele>514</ele>
        <time>2024-03-17T09:14:31Z</time>
      </trkpt>
      <trkpt lat="47.43017" lon="6.79581">
        <ele>514</ele>
        <time>2024-03-17T09:14:32Z</time>
      </trkpt>
      <trkpt lat="47.43017" lon="6.79581">
        <ele>514</ele>
        <time>2024-03-17T09:14:33Z</time>
      </trkpt>
      <trkpt lat="47.43017" lon="6.79581">
        <ele>514</ele>
        <time>2024-03-17T09:14:42Z</time>
      </trkpt>
      <trkpt lat="47.43017" lon="6.79581">
        <ele>514</ele>
        <time>2024-03-17T09:14:52Z</time>
      </trkpt>
      <trkpt lat="47.43017" lon="6.79581">
        <ele>514</ele>
        <time>2024-03-17T09:14:59Z</time>
      </trkpt>
      <trkpt lat="47.43017" lon="6.79581">
        <ele>514</ele>
        <time>2024-03-17T09:15:02Z</time>
      </trkpt>
      <trkpt lat="47.43018" lon="6.79579">
        <ele>514</ele>
        <time>2024-03-17T09:15:12Z</time>
      </trkpt>
      <trkpt lat="47.43018" lon="6.79577">
        <ele>514</ele>
        <time>2024-03-17T09:15:15Z</time>
      </trkpt>
      <trkpt lat="47.43018" lon="6.79576">
        <ele>514</ele>
        <time>2024-03-17T09:15:20Z</time>
      </trkpt>
      <trkpt lat="47.43019" lon="6.79577">
        <ele>514</ele>
        <time>2024-03-17T09:15:22Z</time>
      </trkpt>
      <trkpt lat="47.43019" lon="6.79578">
        <ele>514</ele>
        <time>2024-03-17T09:15:24Z</time>
      </trkpt>
      <trkpt lat="47.43019" lon="6.79578">
        <ele>514</ele>
        <time>2024-03-17T09:15:25Z</time>
      </trkpt>
      <trkpt lat="47.4302" lon="6.79578">
        <ele>514</ele>
        <time>2024-03-17T09:15:30Z</time>
      </trkpt>
      <trkpt lat="47.4302" lon="6.79579">
        <ele>514</ele>
        <time>2024-03-17T09:15:31Z</time>
      </trkpt>
      <trkpt lat="47.43019" lon="6.79579">
        <ele>514</ele>
        <time>2024-03-17T09:15:32Z</time>
      </trkpt>
      <trkpt lat="47.43019" lon="6.79579">
        <ele>514</ele>
        <time>2024-03-17T09:15:36Z</time>
      </trkpt>
      <trkpt lat="47.4302" lon="6.7958">
        <ele>514</ele>
        <time>2024-03-17T09:15:41Z</time>
      </trkpt>
      <trkpt lat="47.4302" lon="6.7958">
        <ele>514</ele>
        <time>2024-03-17T09:15:42Z</time>
      </trkpt>
      <trkpt lat="47.4302" lon="6.7958">
        <ele>514</ele>
        <time>2024-03-17T09:15:44Z</time>
      </trkpt>
      <trkpt lat="47.4302" lon="6.7958">
        <ele>514</ele>
        <time>2024-03-17T09:15:46Z</time>
      </trkpt>
      <trkpt lat="47.4302" lon="6.7958">
        <ele>514</ele>
        <time>2024-03-17T09:15:52Z</time>
      </trkpt>
      <trkpt lat="47.43019" lon="6.7958">
        <ele>514</ele>
        <time>2024-03-17T09:16:02Z</time>
      </trkpt>
      <trkpt lat="47.43019" lon="6.7958">
        <ele>514</ele>
        <time>2024-03-17T09:16:10Z</time>
      </trkpt>
      <trkpt lat="47.43019" lon="6.7958">
        <ele>514</ele>
        <time>2024-03-17T09:16:12Z</time>
      </trkpt>
      <trkpt lat="47.43019" lon="6.79581">
        <ele>514</ele>
        <time>2024-03-17T09:16:17Z</time>
      </trkpt>
      <trkpt lat="47.43019" lon="6.79581">
        <ele>514</ele>
        <time>2024-03-17T09:16:22Z</time>
      </trkpt>
      <trkpt lat="47.43018" lon="6.79581">
        <ele>514</ele>
        <time>2024-03-17T09:16:32Z</time>
      </trkpt>
      <trkpt lat="47.43015" lon="6.7958">
        <ele>514</ele>
        <time>2024-03-17T09:16:41Z</time>
      </trkpt>
      <trkpt lat="47.43015" lon="6.7958">
        <ele>514</ele>
        <time>2024-03-17T09:16:42Z</time>
      </trkpt>
      <trkpt lat="47.43014" lon="6.7958">
        <ele>514</ele>
        <time>2024-03-17T09:16:50Z</time>
      </trkpt>
      <trkpt lat="47.43014" lon="6.7958">
        <ele>514</ele>
        <time>2024-03-17T09:16:52Z</time>
      </trkpt>
      <trkpt lat="47.43014" lon="6.7958">
        <ele>514</ele>
        <time>2024-03-17T09:16:53Z</time>
      </trkpt>
      <trkpt lat="47.43014" lon="6.7958">
        <ele>514</ele>
        <time>2024-03-17T09:16:55Z</time>
      </trkpt>
      <trkpt lat="47.43014" lon="6.7958">
        <ele>514</ele>
        <time>2024-03-17T09:16:57Z</time>
      </trkpt>
      <trkpt lat="47.43014" lon="6.7958">
        <ele>514</ele>
        <time>2024-03-17T09:16:58Z</time>
      </trkpt>
      <trkpt lat="47.43014" lon="6.79581">
        <ele>514</ele>
        <time>2024-03-17T09:16:59Z</time>
      </trkpt>
      <trkpt lat="47.43014" lon="6.7958">
        <ele>514</ele>
        <time>2024-03-17T09:17:02Z</time>
      </trkpt>
      <trkpt lat="47.43015" lon="6.79581">
        <ele>514</ele>
        <time>2024-03-17T09:17:09Z</time>
      </trkpt>
      <trkpt lat="47.43016" lon="6.79582">
        <ele>514</ele>
        <time>2024-03-17T09:17:12Z</time>
      </trkpt>
      <trkpt lat="47.43016" lon="6.79582">
        <ele>514</ele>
        <time>2024-03-17T09:17:22Z</time>
      </trkpt>
      <trkpt lat="47.43016" lon="6.79582">
        <ele>514</ele>
        <time>2024-03-17T09:17:32Z</time>
      </trkpt>
      <trkpt lat="47.43017" lon="6.79583">
        <ele>514</ele>
        <time>2024-03-17T09:17:41Z</time>
      </trkpt>
      <trkpt lat="47.43017" lon="6.79583">
        <ele>514</ele>
        <time>2024-03-17T09:17:42Z</time>
      </trkpt>
      <trkpt lat="47.43017" lon="6.79583">
        <ele>514</ele>
        <time>2024-03-17T09:17:43Z</time>
      </trkpt>
      <trkpt lat="47.43017" lon="6.79583">
        <ele>514</ele>
        <time>2024-03-17T09:17:51Z</time>
      </trkpt>
      <trkpt lat="47.43017" lon="6.79583">
        <ele>514</ele>
        <time>2024-03-17T09:17:53Z</time>
      </trkpt>
      <trkpt lat="47.43017" lon="6.79583">
        <ele>514</ele>
        <time>2024-03-17T09:18:03Z</time>
      </trkpt>
      <trkpt lat="47.43017" lon="6.79583">
        <ele>514</ele>
        <time>2024-03-17T09:18:13Z</time>
      </trkpt>
      <trkpt lat="47.43018" lon="6.79583">
        <ele>514</ele>
        <time>2024-03-17T09:18:23Z</time>
      </trkpt>
      <trkpt lat="47.43016" lon="6.79581">
        <ele>514</ele>
        <time>2024-03-17T09:18:33Z</time>
      </trkpt>
      <trkpt lat="47.43016" lon="6.79581">
        <ele>514</ele>
        <time>2024-03-17T09:18:39Z</time>
      </trkpt>
      <trkpt lat="47.43016" lon="6.79581">
        <ele>514</ele>
        <time>2024-03-17T09:18:43Z</time>
      </trkpt>
      <trkpt lat="47.43017" lon="6.7958">
        <ele>514</ele>
        <time>2024-03-17T09:18:47Z</time>
      </trkpt>
      <trkpt lat="47.43017" lon="6.7958">
        <ele>514</ele>
        <time>2024-03-17T09:18:48Z</time>
      </trkpt>
      <trkpt lat="47.43017" lon="6.7958">
        <ele>514</ele>
        <time>2024-03-17T09:18:49Z</time>
      </trkpt>
      <trkpt lat="47.43017" lon="6.7958">
        <ele>514</ele>
        <time>2024-03-17T09:18:51Z</time>
      </trkpt>
      <trkpt lat="47.43017" lon="6.79581">
        <ele>514</ele>
        <time>2024-03-17T09:18:52Z</time>
      </trkpt>
      <trkpt lat="47.43017" lon="6.79581">
        <ele>514</ele>
        <time>2024-03-17T09:18:53Z</time>
      </trkpt>
      <trkpt lat="47.43016" lon="6.79581">
        <ele>514</ele>
        <time>2024-03-17T09:18:56Z</time>
      </trkpt>
      <trkpt lat="47.43017" lon="6.79581">
        <ele>514</ele>
        <time>2024-03-17T09:18:59Z</time>
      </trkpt>
      <trkpt lat="47.43017" lon="6.79581">
        <ele>514</ele>
        <time>2024-03-17T09:19:00Z</time>
      </trkpt>
      <trkpt lat="47.43017" lon="6.79581">
        <ele>514</ele>
        <time>2024-03-17T09:19:03Z</time>
      </trkpt>
      <trkpt lat="47.43017" lon="6.79581">
        <ele>514</ele>
        <time>2024-03-17T09:19:10Z</time>
      </trkpt>
      <trkpt lat="47.43017" lon="6.79581">
        <ele>514</ele>
        <time>2024-03-17T09:19:13Z</time>
      </trkpt>
      <trkpt lat="47.43017" lon="6.79581">
        <ele>514</ele>
        <time>2024-03-17T09:19:14Z</time>
      </trkpt>
      <trkpt lat="47.43017" lon="6.79581">
        <ele>514</ele>
        <time>2024-03-17T09:19:15Z</time>
      </trkpt>
      <trkpt lat="47.43017" lon="6.79581">
        <ele>514</ele>
        <time>2024-03-17T09:19:23Z</time>
      </trkpt>
      <trkpt lat="47.43017" lon="6.7958">
        <ele>514</ele>
        <time>2024-03-17T09:19:33Z</time>
      </trkpt>
      <trkpt lat="47.43017" lon="6.7958">
        <ele>514</ele>
        <time>2024-03-17T09:19:39Z</time>
      </trkpt>
      <trkpt lat="47.43017" lon="6.7958">
        <ele>514</ele>
        <time>2024-03-17T09:19:41Z</time>
      </trkpt>
      <trkpt lat="47.43018" lon="6.7958">
        <ele>514</ele>
        <time>2024-03-17T09:19:42Z</time>
      </trkpt>
      <trkpt lat="47.43018" lon="6.79579">
        <ele>514</ele>
        <time>2024-03-17T09:19:43Z</time>
      </trkpt>
      <trkpt lat="47.4302" lon="6.79578">
        <ele>514</ele>
        <time>2024-03-17T09:19:48Z</time>
      </trkpt>
      <trkpt lat="47.4302" lon="6.79579">
        <ele>514</ele>
        <time>2024-03-17T09:19:49Z</time>
      </trkpt>
      <trkpt lat="47.4302" lon="6.79579">
        <ele>514</ele>
        <time>2024-03-17T09:19:51Z</time>
      </trkpt>
      <trkpt lat="47.43019" lon="6.79579">
        <ele>514</ele>
        <time>2024-03-17T09:19:54Z</time>
      </trkpt>
      <trkpt lat="47.43019" lon="6.7958">
        <ele>514</ele>
        <time>2024-03-17T09:19:55Z</time>
      </trkpt>
      <trkpt lat="47.43019" lon="6.7958">
        <ele>514</ele>
        <time>2024-03-17T09:19:57Z</time>
      </trkpt>
      <trkpt lat="47.43019" lon="6.7958">
        <ele>514</ele>
        <time>2024-03-17T09:19:58Z</time>
      </trkpt>
      <trkpt lat="47.43019" lon="6.7958">
        <ele>514</ele>
        <time>2024-03-17T09:19:59Z</time>
      </trkpt>
      <trkpt lat="47.43019" lon="6.79579">
        <ele>514</ele>
        <time>2024-03-17T09:20:02Z</time>
      </trkpt>
      <trkpt lat="47.43019" lon="6.79578">
        <ele>514</ele>
        <time>2024-03-17T09:20:03Z</time>
      </trkpt>
      <trkpt lat="47.43019" lon="6.79578">
        <ele>514</ele>
        <time>2024-03-17T09:20:04Z</time>
      </trkpt>
      <trkpt lat="47.4302" lon="6.79581">
        <ele>514</ele>
        <time>2024-03-17T09:20:10Z</time>
      </trkpt>
      <trkpt lat="47.43019" lon="6.7958">
        <ele>514</ele>
        <time>2024-03-17T09:20:14Z</time>
      </trkpt>
      <trkpt lat="47.43019" lon="6.79579">
        <ele>514</ele>
        <time>2024-03-17T09:20:17Z</time>
      </trkpt>
      <trkpt lat="47.4302" lon="6.79579">
        <ele>514</ele>
        <time>2024-03-17T09:20:24Z</time>
      </trkpt>
      <trkpt lat="47.43019" lon="6.79581">
        <ele>514</ele>
        <time>2024-03-17T09:20:31Z</time>
      </trkpt>
      <trkpt lat="47.43019" lon="6.79582">
        <ele>514</ele>
        <time>2024-03-17T09:20:34Z</time>
      </trkpt>
      <trkpt lat="47.43018" lon="6.79587">
        <ele>514</ele>
        <time>2024-03-17T09:20:44Z</time>
      </trkpt>
      <trkpt lat="47.43017" lon="6.79586">
        <ele>514</ele>
        <time>2024-03-17T09:20:54Z</time>
      </trkpt>
      <trkpt lat="47.43018" lon="6.79586">
        <ele>514</ele>
        <time>2024-03-17T09:21:04Z</time>
      </trkpt>
      <trkpt lat="47.43019" lon="6.79586">
        <ele>514</ele>
        <time>2024-03-17T09:21:14Z</time>
      </trkpt>
      <trkpt lat="47.43018" lon="6.79586">
        <ele>514</ele>
        <time>2024-03-17T09:21:24Z</time>
      </trkpt>
      <trkpt lat="47.43019" lon="6.79588">
        <ele>514</ele>
        <time>2024-03-17T09:21:34Z</time>
      </trkpt>
      <trkpt lat="47.43018" lon="6.79587">
        <ele>514</ele>
        <time>2024-03-17T09:21:44Z</time>
      </trkpt>
      <trkpt lat="47.43018" lon="6.79588">
        <ele>514</ele>
        <time>2024-03-17T09:21:54Z</time>
      </trkpt>
      <trkpt lat="47.43018" lon="6.79589">
        <ele>514</ele>
        <time>2024-03-17T09:22:04Z</time>
      </trkpt>
      <trkpt lat="47.43018" lon="6.79589">
        <ele>514</ele>
        <time>2024-03-17T09:22:11Z</time>
      </trkpt>
      <trkpt lat="47.43018" lon="6.79589">
        <ele>514</ele>
        <time>2024-03-17T09:22:14Z</time>
      </trkpt>
      <trkpt lat="47.43018" lon="6.79589">
        <ele>514</ele>
        <time>2024-03-17T09:22:21Z</time>
      </trkpt>
      <trkpt lat="47.43018" lon="6.79589">
        <ele>514</ele>
        <time>2024-03-17T09:22:24Z</time>
      </trkpt>
      <trkpt lat="47.43017" lon="6.7959">
        <ele>514</ele>
        <time>2024-03-17T09:22:34Z</time>
      </trkpt>
      <trkpt lat="47.43016" lon="6.7959">
        <ele>514</ele>
        <time>2024-03-17T09:22:44Z</time>
      </trkpt>
      <trkpt lat="47.43016" lon="6.79589">
        <ele>514</ele>
        <time>2024-03-17T09:22:55Z</time>
      </trkpt>
      <trkpt lat="47.43016" lon="6.79589">
        <ele>514</ele>
        <time>2024-03-17T09:23:05Z</time>
      </trkpt>
      <trkpt lat="47.43016" lon="6.79589">
        <ele>514</ele>
        <time>2024-03-17T09:23:15Z</time>
      </trkpt>
      <trkpt lat="47.43016" lon="6.79589">
        <ele>514</ele>
        <time>2024-03-17T09:23:18Z</time>
      </trkpt>
      <trkpt lat="47.43016" lon="6.79588">
        <ele>514</ele>
        <time>2024-03-17T09:23:25Z</time>
      </trkpt>
      <trkpt lat="47.43016" lon="6.79588">
        <ele>514</ele>
        <time>2024-03-17T09:23:34Z</time>
      </trkpt>
      <trkpt lat="47.43017" lon="6.79586">
        <ele>514</ele>
        <time>2024-03-17T09:23:45Z</time>
      </trkpt>
      <trkpt lat="47.43006" lon="6.79586">
        <ele>514</ele>
        <time>2024-03-17T09:23:55Z</time>
      </trkpt>
      <trkpt lat="47.43001" lon="6.79589">
        <ele>514</ele>
        <time>2024-03-17T09:23:58Z</time>
      </trkpt>
      <trkpt lat="47.42976" lon="6.79591">
        <ele>514</ele>
        <time>2024-03-17T09:24:05Z</time>
      </trkpt>
      <trkpt lat="47.42962" lon="6.7959">
        <ele>514</ele>
        <time>2024-03-17T09:24:09Z</time>
      </trkpt>
      <trkpt lat="47.42946" lon="6.79593">
        <ele>514</ele>
        <time>2024-03-17T09:24:13Z</time>
      </trkpt>
      <trkpt lat="47.4294" lon="6.79592">
        <ele>514</ele>
        <time>2024-03-17T09:24:15Z</time>
      </trkpt>
      <trkpt lat="47.42929" lon="6.79587">
        <ele>514</ele>
        <time>2024-03-17T09:24:18Z</time>
      </trkpt>
      <trkpt lat="47.42926" lon="6.79587">
        <ele>514</ele>
        <time>2024-03-17T09:24:19Z</time>
      </trkpt>
      <trkpt lat="47.42922" lon="6.79586">
        <ele>514</ele>
        <time>2024-03-17T09:24:20Z</time>
      </trkpt>
      <trkpt lat="47.42918" lon="6.79586">
        <ele>514</ele>
        <time>2024-03-17T09:24:21Z</time>
      </trkpt>
      <trkpt lat="47.42913" lon="6.79586">
        <ele>514</ele>
        <time>2024-03-17T09:24:22Z</time>
      </trkpt>
      <trkpt lat="47.42902" lon="6.79585">
        <ele>514</ele>
        <time>2024-03-17T09:24:24Z</time>
      </trkpt>
      <trkpt lat="47.42897" lon="6.79584">
        <ele>514</ele>
        <time>2024-03-17T09:24:25Z</time>
      </trkpt>
      <trkpt lat="47.42892" lon="6.79583">
        <ele>514</ele>
        <time>2024-03-17T09:24:26Z</time>
      </trkpt>
      <trkpt lat="47.42877" lon="6.7958">
        <ele>514</ele>
        <time>2024-03-17T09:24:29Z</time>
      </trkpt>
      <trkpt lat="47.42854" lon="6.79579">
        <ele>514</ele>
        <time>2024-03-17T09:24:35Z</time>
      </trkpt>
      <trkpt lat="47.42819" lon="6.79582">
        <ele>514</ele>
        <time>2024-03-17T09:24:45Z</time>
      </trkpt>
      <trkpt lat="47.42804" lon="6.79578">
        <ele>514</ele>
        <time>2024-03-17T09:24:49Z</time>
      </trkpt>
      <trkpt lat="47.42782" lon="6.79572">
        <ele>514</ele>
        <time>2024-03-17T09:24:55Z</time>
      </trkpt>
      <trkpt lat="47.42754" lon="6.79566">
        <ele>510.4</ele>
        <time>2024-03-17T09:25:02Z</time>
      </trkpt>
      <trkpt lat="47.42743" lon="6.79564">
        <ele>510.2</ele>
        <time>2024-03-17T09:25:05Z</time>
      </trkpt>
      <trkpt lat="47.42709" lon="6.79559">
        <ele>510.2</ele>
        <time>2024-03-17T09:25:15Z</time>
      </trkpt>
      <trkpt lat="47.42696" lon="6.79558">
        <ele>509.2</ele>
        <time>2024-03-17T09:25:19Z</time>
      </trkpt>
      <trkpt lat="47.42678" lon="6.7955">
        <ele>509.8</ele>
        <time>2024-03-17T09:25:25Z</time>
      </trkpt>
      <trkpt lat="47.42658" lon="6.79547">
        <ele>508</ele>
        <time>2024-03-17T09:25:31Z</time>
      </trkpt>
      <trkpt lat="47.4265" lon="6.79548">
        <ele>507.8</ele>
        <time>2024-03-17T09:25:35Z</time>
      </trkpt>
      <trkpt lat="47.4262" lon="6.79539">
        <ele>507.8</ele>
        <time>2024-03-17T09:25:45Z</time>
      </trkpt>
      <trkpt lat="47.42614" lon="6.79538">
        <ele>507.8</ele>
        <time>2024-03-17T09:25:49Z</time>
      </trkpt>
      <trkpt lat="47.42603" lon="6.79541">
        <ele>508</ele>
        <time>2024-03-17T09:25:55Z</time>
      </trkpt>
      <trkpt lat="47.42577" lon="6.7954">
        <ele>509</ele>
        <time>2024-03-17T09:26:05Z</time>
      </trkpt>
      <trkpt lat="47.42565" lon="6.79541">
        <ele>509</ele>
        <time>2024-03-17T09:26:09Z</time>
      </trkpt>
      <trkpt lat="47.42558" lon="6.79542">
        <ele>509.2</ele>
        <time>2024-03-17T09:26:11Z</time>
      </trkpt>
      <trkpt lat="47.42545" lon="6.79544">
        <ele>509.2</ele>
        <time>2024-03-17T09:26:15Z</time>
      </trkpt>
      <trkpt lat="47.42507" lon="6.7954">
        <ele>509.2</ele>
        <time>2024-03-17T09:26:25Z</time>
      </trkpt>
      <trkpt lat="47.42466" lon="6.79525">
        <ele>508.2</ele>
        <time>2024-03-17T09:26:35Z</time>
      </trkpt>
      <trkpt lat="47.42462" lon="6.79523">
        <ele>507.8</ele>
        <time>2024-03-17T09:26:36Z</time>
      </trkpt>
      <trkpt lat="47.42435" lon="6.79514">
        <ele>506.8</ele>
        <time>2024-03-17T09:26:45Z</time>
      </trkpt>
      <trkpt lat="47.42418" lon="6.79513">
        <ele>505.6</ele>
        <time>2024-03-17T09:26:50Z</time>
      </trkpt>
      <trkpt lat="47.424" lon="6.79506">
        <ele>505.2</ele>
        <time>2024-03-17T09:26:55Z</time>
      </trkpt>
      <trkpt lat="47.42369" lon="6.795">
        <ele>504.6</ele>
        <time>2024-03-17T09:27:03Z</time>
      </trkpt>
      <trkpt lat="47.42361" lon="6.795">
        <ele>504.6</ele>
        <time>2024-03-17T09:27:05Z</time>
      </trkpt>
      <trkpt lat="47.42318" lon="6.79491">
        <ele>503.8</ele>
        <time>2024-03-17T09:27:15Z</time>
      </trkpt>
      <trkpt lat="47.42306" lon="6.79489">
        <ele>503.6</ele>
        <time>2024-03-17T09:27:18Z</time>
      </trkpt>
      <trkpt lat="47.42292" lon="6.7949">
        <ele>502.4</ele>
        <time>2024-03-17T09:27:22Z</time>
      </trkpt>
      <trkpt lat="47.42282" lon="6.79489">
        <ele>502</ele>
        <time>2024-03-17T09:27:25Z</time>
      </trkpt>
      <trkpt lat="47.42263" lon="6.79488">
        <ele>501.2</ele>
        <time>2024-03-17T09:27:31Z</time>
      </trkpt>
      <trkpt lat="47.42253" lon="6.79489">
        <ele>501</ele>
        <time>2024-03-17T09:27:34Z</time>
      </trkpt>
      <trkpt lat="47.42219" lon="6.79486">
        <ele>501.2</ele>
        <time>2024-03-17T09:27:45Z</time>
      </trkpt>
      <trkpt lat="47.42194" lon="6.79484">
        <ele>502</ele>
        <time>2024-03-17T09:27:55Z</time>
      </trkpt>
      <trkpt lat="47.42191" lon="6.79483">
        <ele>502.2</ele>
        <time>2024-03-17T09:27:56Z</time>
      </trkpt>
      <trkpt lat="47.42179" lon="6.79481">
        <ele>503.4</ele>
        <time>2024-03-17T09:28:01Z</time>
      </trkpt>
      <trkpt lat="47.42169" lon="6.7948">
        <ele>504</ele>
        <time>2024-03-17T09:28:05Z</time>
      </trkpt>
      <trkpt lat="47.42162" lon="6.79479">
        <ele>504.4</ele>
        <time>2024-03-17T09:28:08Z</time>
      </trkpt>
      <trkpt lat="47.42144" lon="6.7948">
        <ele>505</ele>
        <time>2024-03-17T09:28:15Z</time>
      </trkpt>
      <trkpt lat="47.42134" lon="6.79483">
        <ele>505.4</ele>
        <time>2024-03-17T09:28:19Z</time>
      </trkpt>
      <trkpt lat="47.42122" lon="6.79483">
        <ele>506.2</ele>
        <time>2024-03-17T09:28:25Z</time>
      </trkpt>
      <trkpt lat="47.42118" lon="6.79481">
        <ele>506.6</ele>
        <time>2024-03-17T09:28:27Z</time>
      </trkpt>
      <trkpt lat="47.42106" lon="6.79479">
        <ele>507.6</ele>
        <time>2024-03-17T09:28:33Z</time>
      </trkpt>
      <trkpt lat="47.42104" lon="6.7948">
        <ele>507.8</ele>
        <time>2024-03-17T09:28:34Z</time>
      </trkpt>
      <trkpt lat="47.42101" lon="6.7948">
        <ele>508.2</ele>
        <time>2024-03-17T09:28:36Z</time>
      </trkpt>
      <trkpt lat="47.42092" lon="6.79484">
        <ele>508.8</ele>
        <time>2024-03-17T09:28:41Z</time>
      </trkpt>
      <trkpt lat="47.42083" lon="6.79486">
        <ele>509.4</ele>
        <time>2024-03-17T09:28:46Z</time>
      </trkpt>
      <trkpt lat="47.42079" lon="6.79488">
        <ele>509.8</ele>
        <time>2024-03-17T09:28:48Z</time>
      </trkpt>
      <trkpt lat="47.42065" lon="6.7949">
        <ele>510.8</ele>
        <time>2024-03-17T09:28:56Z</time>
      </trkpt>
      <trkpt lat="47.42063" lon="6.7949">
        <ele>511</ele>
        <time>2024-03-17T09:28:57Z</time>
      </trkpt>
      <trkpt lat="47.42044" lon="6.79491">
        <ele>511.8</ele>
        <time>2024-03-17T09:29:06Z</time>
      </trkpt>
      <trkpt lat="47.42031" lon="6.79492">
        <ele>512.2</ele>
        <time>2024-03-17T09:29:12Z</time>
      </trkpt>
      <trkpt lat="47.42021" lon="6.79493">
        <ele>512.4</ele>
        <time>2024-03-17T09:29:16Z</time>
      </trkpt>
      <trkpt lat="47.41998" lon="6.79501">
        <ele>512.8</ele>
        <time>2024-03-17T09:29:26Z</time>
      </trkpt>
      <trkpt lat="47.41987" lon="6.79514">
        <ele>513.2</ele>
        <time>2024-03-17T09:29:31Z</time>
      </trkpt>
      <trkpt lat="47.41972" lon="6.79532">
        <ele>513.6</ele>
        <time>2024-03-17T09:29:36Z</time>
      </trkpt>
      <trkpt lat="47.41955" lon="6.79568">
        <ele>513.8</ele>
        <time>2024-03-17T09:29:44Z</time>
      </trkpt>
      <trkpt lat="47.41951" lon="6.79578">
        <ele>513.8</ele>
        <time>2024-03-17T09:29:46Z</time>
      </trkpt>
      <trkpt lat="47.41935" lon="6.79629">
        <ele>513.6</ele>
        <time>2024-03-17T09:29:55Z</time>
      </trkpt>
      <trkpt lat="47.41934" lon="6.79636">
        <ele>513.6</ele>
        <time>2024-03-17T09:29:56Z</time>
      </trkpt>
      <trkpt lat="47.41921" lon="6.79698">
        <ele>512.2</ele>
        <time>2024-03-17T09:30:06Z</time>
      </trkpt>
      <trkpt lat="47.41912" lon="6.7975">
        <ele>511.6</ele>
        <time>2024-03-17T09:30:16Z</time>
      </trkpt>
      <trkpt lat="47.41905" lon="6.79803">
        <ele>511</ele>
        <time>2024-03-17T09:30:24Z</time>
      </trkpt>
      <trkpt lat="47.41905" lon="6.79816">
        <ele>510.8</ele>
        <time>2024-03-17T09:30:26Z</time>
      </trkpt>
      <trkpt lat="47.41901" lon="6.79844">
        <ele>510</ele>
        <time>2024-03-17T09:30:31Z</time>
      </trkpt>
      <trkpt lat="47.41899" lon="6.79869">
        <ele>509.6</ele>
        <time>2024-03-17T09:30:36Z</time>
      </trkpt>
      <trkpt lat="47.41895" lon="6.79925">
        <ele>509</ele>
        <time>2024-03-17T09:30:46Z</time>
      </trkpt>
      <trkpt lat="47.4188" lon="6.7998">
        <ele>508</ele>
        <time>2024-03-17T09:30:55Z</time>
      </trkpt>
      <trkpt lat="47.41878" lon="6.79988">
        <ele>508</ele>
        <time>2024-03-17T09:30:56Z</time>
      </trkpt>
      <trkpt lat="47.41871" lon="6.80013">
        <ele>507.2</ele>
        <time>2024-03-17T09:31:00Z</time>
      </trkpt>
      <trkpt lat="47.41864" lon="6.80022">
        <ele>506.6</ele>
        <time>2024-03-17T09:31:02Z</time>
      </trkpt>
      <trkpt lat="47.4185" lon="6.80036">
        <ele>505.8</ele>
        <time>2024-03-17T09:31:06Z</time>
      </trkpt>
      <trkpt lat="47.41848" lon="6.80039">
        <ele>505.4</ele>
        <time>2024-03-17T09:31:07Z</time>
      </trkpt>
      <trkpt lat="47.4184" lon="6.8005">
        <ele>504.4</ele>
        <time>2024-03-17T09:31:11Z</time>
      </trkpt>
      <trkpt lat="47.41834" lon="6.80054">
        <ele>504.2</ele>
        <time>2024-03-17T09:31:16Z</time>
      </trkpt>
      <trkpt lat="47.41823" lon="6.80056">
        <ele>505.4</ele>
        <time>2024-03-17T09:31:25Z</time>
      </trkpt>
      <trkpt lat="47.41822" lon="6.80056">
        <ele>505.6</ele>
        <time>2024-03-17T09:31:26Z</time>
      </trkpt>
      <trkpt lat="47.41815" lon="6.80053">
        <ele>506.6</ele>
        <time>2024-03-17T09:31:33Z</time>
      </trkpt>
      <trkpt lat="47.41812" lon="6.80052">
        <ele>506.8</ele>
        <time>2024-03-17T09:31:36Z</time>
      </trkpt>
      <trkpt lat="47.41806" lon="6.80045">
        <ele>507.6</ele>
        <time>2024-03-17T09:31:46Z</time>
      </trkpt>
      <trkpt lat="47.41805" lon="6.80044">
        <ele>507.6</ele>
        <time>2024-03-17T09:31:47Z</time>
      </trkpt>
      <trkpt lat="47.41805" lon="6.80043">
        <ele>507.6</ele>
        <time>2024-03-17T09:31:49Z</time>
      </trkpt>
      <trkpt lat="47.41803" lon="6.80041">
        <ele>508</ele>
        <time>2024-03-17T09:31:55Z</time>
      </trkpt>
      <trkpt lat="47.41799" lon="6.80037">
        <ele>508.2</ele>
        <time>2024-03-17T09:32:02Z</time>
      </trkpt>
      <trkpt lat="47.41797" lon="6.80037">
        <ele>508.2</ele>
        <time>2024-03-17T09:32:06Z</time>
      </trkpt>
      <trkpt lat="47.41791" lon="6.80035">
        <ele>508.2</ele>
        <time>2024-03-17T09:32:15Z</time>
      </trkpt>
      <trkpt lat="47.4179" lon="6.80035">
        <ele>508.2</ele>
        <time>2024-03-17T09:32:17Z</time>
      </trkpt>
      <trkpt lat="47.41786" lon="6.80033">
        <ele>508.2</ele>
        <time>2024-03-17T09:32:21Z</time>
      </trkpt>
      <trkpt lat="47.41776" lon="6.80027">
        <ele>508.4</ele>
        <time>2024-03-17T09:32:27Z</time>
      </trkpt>
      <trkpt lat="47.41761" lon="6.80012">
        <ele>508.8</ele>
        <time>2024-03-17T09:32:37Z</time>
      </trkpt>
      <trkpt lat="47.41747" lon="6.79999">
        <ele>509</ele>
        <time>2024-03-17T09:32:47Z</time>
      </trkpt>
      <trkpt lat="47.41739" lon="6.79993">
        <ele>509.2</ele>
        <time>2024-03-17T09:32:52Z</time>
      </trkpt>
      <trkpt lat="47.4173" lon="6.79984">
        <ele>509.4</ele>
        <time>2024-03-17T09:32:57Z</time>
      </trkpt>
      <trkpt lat="47.41721" lon="6.79974">
        <ele>509.8</ele>
        <time>2024-03-17T09:33:03Z</time>
      </trkpt>
      <trkpt lat="47.41713" lon="6.79967">
        <ele>510</ele>
        <time>2024-03-17T09:33:07Z</time>
      </trkpt>
      <trkpt lat="47.417" lon="6.79958">
        <ele>510</ele>
        <time>2024-03-17T09:33:14Z</time>
      </trkpt>
      <trkpt lat="47.41693" lon="6.79952">
        <ele>510.4</ele>
        <time>2024-03-17T09:33:18Z</time>
      </trkpt>
      <trkpt lat="47.41677" lon="6.79937">
        <ele>510.8</ele>
        <time>2024-03-17T09:33:26Z</time>
      </trkpt>
      <trkpt lat="47.41674" lon="6.79934">
        <ele>511</ele>
        <time>2024-03-17T09:33:28Z</time>
      </trkpt>
      <trkpt lat="47.41654" lon="6.79917">
        <ele>511.4</ele>
        <time>2024-03-17T09:33:38Z</time>
      </trkpt>
      <trkpt lat="47.41653" lon="6.79914">
        <ele>511.8</ele>
        <time>2024-03-17T09:33:47Z</time>
      </trkpt>
      <trkpt lat="47.41652" lon="6.79912">
        <ele>511.8</ele>
        <time>2024-03-17T09:33:58Z</time>
      </trkpt>
      <trkpt lat="47.41651" lon="6.79911">
        <ele>511.8</ele>
        <time>2024-03-17T09:33:59Z</time>
      </trkpt>
      <trkpt lat="47.41639" lon="6.79901">
        <ele>512</ele>
        <time>2024-03-17T09:34:08Z</time>
      </trkpt>
      <trkpt lat="47.41616" lon="6.79879">
        <ele>512.4</ele>
        <time>2024-03-17T09:34:18Z</time>
      </trkpt>
      <trkpt lat="47.41614" lon="6.79877">
        <ele>512.6</ele>
        <time>2024-03-17T09:34:19Z</time>
      </trkpt>
      <trkpt lat="47.41609" lon="6.79873">
        <ele>512.6</ele>
        <time>2024-03-17T09:34:21Z</time>
      </trkpt>
      <trkpt lat="47.41599" lon="6.79865">
        <ele>512.6</ele>
        <time>2024-03-17T09:34:25Z</time>
      </trkpt>
      <trkpt lat="47.41594" lon="6.79862">
        <ele>512.8</ele>
        <time>2024-03-17T09:34:27Z</time>
      </trkpt>
      <trkpt lat="47.41591" lon="6.79862">
        <ele>512.8</ele>
        <time>2024-03-17T09:34:28Z</time>
      </trkpt>
      <trkpt lat="47.41571" lon="6.79866">
        <ele>513.8</ele>
        <time>2024-03-17T09:34:38Z</time>
      </trkpt>
      <trkpt lat="47.4157" lon="6.79867">
        <ele>513.8</ele>
        <time>2024-03-17T09:34:39Z</time>
      </trkpt>
      <trkpt lat="47.41566" lon="6.79868">
        <ele>514.4</ele>
        <time>2024-03-17T09:34:42Z</time>
      </trkpt>
      <trkpt lat="47.41563" lon="6.79868">
        <ele>515</ele>
        <time>2024-03-17T09:34:44Z</time>
      </trkpt>
      <trkpt lat="47.41556" lon="6.79867">
        <ele>515.6</ele>
        <time>2024-03-17T09:34:48Z</time>
      </trkpt>
      <trkpt lat="47.41553" lon="6.79866">
        <ele>516</ele>
        <time>2024-03-17T09:34:50Z</time>
      </trkpt>
      <trkpt lat="47.41539" lon="6.79861">
        <ele>517</ele>
        <time>2024-03-17T09:34:58Z</time>
      </trkpt>
      <trkpt lat="47.41534" lon="6.79858">
        <ele>517</ele>
        <time>2024-03-17T09:35:01Z</time>
      </trkpt>
      <trkpt lat="47.41524" lon="6.79854">
        <ele>517.6</ele>
        <time>2024-03-17T09:35:08Z</time>
      </trkpt>
      <trkpt lat="47.41515" lon="6.79852">
        <ele>518.2</ele>
        <time>2024-03-17T09:35:13Z</time>
      </trkpt>
      <trkpt lat="47.41513" lon="6.79851">
        <ele>518.4</ele>
        <time>2024-03-17T09:35:14Z</time>
      </trkpt>
      <trkpt lat="47.41511" lon="6.79851">
        <ele>518.4</ele>
        <time>2024-03-17T09:35:15Z</time>
      </trkpt>
      <trkpt lat="47.41507" lon="6.79849">
        <ele>518.6</ele>
        <time>2024-03-17T09:35:17Z</time>
      </trkpt>
      <trkpt lat="47.41505" lon="6.79849">
        <ele>518.6</ele>
        <time>2024-03-17T09:35:18Z</time>
      </trkpt>
      <trkpt lat="47.415" lon="6.79847">
        <ele>519.2</ele>
        <time>2024-03-17T09:35:21Z</time>
      </trkpt>
      <trkpt lat="47.41492" lon="6.79844">
        <ele>519.6</ele>
        <time>2024-03-17T09:35:25Z</time>
      </trkpt>
      <trkpt lat="47.41488" lon="6.79843">
        <ele>519.8</ele>
        <time>2024-03-17T09:35:27Z</time>
      </trkpt>
      <trkpt lat="47.41479" lon="6.7984">
        <ele>520.4</ele>
        <time>2024-03-17T09:35:32Z</time>
      </trkpt>
      <trkpt lat="47.41471" lon="6.79837">
        <ele>520.8</ele>
        <time>2024-03-17T09:35:37Z</time>
      </trkpt>
      <trkpt lat="47.41459" lon="6.7983">
        <ele>521.4</ele>
        <time>2024-03-17T09:35:44Z</time>
      </trkpt>
      <trkpt lat="47.41455" lon="6.79828">
        <ele>521.6</ele>
        <time>2024-03-17T09:35:47Z</time>
      </trkpt>
      <trkpt lat="47.41438" lon="6.7982">
        <ele>522.2</ele>
        <time>2024-03-17T09:35:58Z</time>
      </trkpt>
      <trkpt lat="47.41435" lon="6.7982">
        <ele>522.4</ele>
        <time>2024-03-17T09:36:00Z</time>
      </trkpt>
      <trkpt lat="47.4143" lon="6.79826">
        <ele>523.4</ele>
        <time>2024-03-17T09:36:07Z</time>
      </trkpt>
      <trkpt lat="47.4143" lon="6.79826">
        <ele>523.6</ele>
        <time>2024-03-17T09:36:08Z</time>
      </trkpt>
      <trkpt lat="47.41429" lon="6.79829">
        <ele>524.6</ele>
        <time>2024-03-17T09:36:12Z</time>
      </trkpt>
      <trkpt lat="47.41427" lon="6.79833">
        <ele>525.8</ele>
        <time>2024-03-17T09:36:18Z</time>
      </trkpt>
      <trkpt lat="47.41425" lon="6.79836">
        <ele>526.8</ele>
        <time>2024-03-17T09:36:24Z</time>
      </trkpt>
      <trkpt lat="47.41423" lon="6.79838">
        <ele>527.8</ele>
        <time>2024-03-17T09:36:29Z</time>
      </trkpt>
      <trkpt lat="47.41422" lon="6.79838">
        <ele>528</ele>
        <time>2024-03-17T09:36:30Z</time>
      </trkpt>
      <trkpt lat="47.41418" lon="6.79838">
        <ele>529</ele>
        <time>2024-03-17T09:36:36Z</time>
      </trkpt>
      <trkpt lat="47.41415" lon="6.79836">
        <ele>529.4</ele>
        <time>2024-03-17T09:36:40Z</time>
      </trkpt>
      <trkpt lat="47.41414" lon="6.79834">
        <ele>529.8</ele>
        <time>2024-03-17T09:36:42Z</time>
      </trkpt>
      <trkpt lat="47.41413" lon="6.79833">
        <ele>530</ele>
        <time>2024-03-17T09:36:46Z</time>
      </trkpt>
      <trkpt lat="47.41408" lon="6.79828">
        <ele>530.2</ele>
        <time>2024-03-17T09:36:50Z</time>
      </trkpt>
      <trkpt lat="47.41391" lon="6.79812">
        <ele>530.2</ele>
        <time>2024-03-17T09:37:00Z</time>
      </trkpt>
      <trkpt lat="47.41376" lon="6.79801">
        <ele>530.4</ele>
        <time>2024-03-17T09:37:09Z</time>
      </trkpt>
      <trkpt lat="47.41372" lon="6.79797">
        <ele>531</ele>
        <time>2024-03-17T09:37:12Z</time>
      </trkpt>
      <trkpt lat="47.4136" lon="6.79787">
        <ele>531.8</ele>
        <time>2024-03-17T09:37:19Z</time>
      </trkpt>
      <trkpt lat="47.41359" lon="6.79786">
        <ele>531.8</ele>
        <time>2024-03-17T09:37:20Z</time>
      </trkpt>
      <trkpt lat="47.41354" lon="6.79777">
        <ele>531.8</ele>
        <time>2024-03-17T09:37:24Z</time>
      </trkpt>
      <trkpt lat="47.41344" lon="6.79769">
        <ele>532</ele>
        <time>2024-03-17T09:37:30Z</time>
      </trkpt>
      <trkpt lat="47.41331" lon="6.79758">
        <ele>532.6</ele>
        <time>2024-03-17T09:37:37Z</time>
      </trkpt>
      <trkpt lat="47.41324" lon="6.7975">
        <ele>532.6</ele>
        <time>2024-03-17T09:37:40Z</time>
      </trkpt>
      <trkpt lat="47.41304" lon="6.79733">
        <ele>532.2</ele>
        <time>2024-03-17T09:37:51Z</time>
      </trkpt>
      <trkpt lat="47.41302" lon="6.7973">
        <ele>531.4</ele>
        <time>2024-03-17T09:38:00Z</time>
      </trkpt>
      <trkpt lat="47.41301" lon="6.79729">
        <ele>531.4</ele>
        <time>2024-03-17T09:38:06Z</time>
      </trkpt>
      <trkpt lat="47.41299" lon="6.79727">
        <ele>531.2</ele>
        <time>2024-03-17T09:38:11Z</time>
      </trkpt>
      <trkpt lat="47.41295" lon="6.79727">
        <ele>531.4</ele>
        <time>2024-03-17T09:38:21Z</time>
      </trkpt>
      <trkpt lat="47.41287" lon="6.79728">
        <ele>531.8</ele>
        <time>2024-03-17T09:38:31Z</time>
      </trkpt>
      <trkpt lat="47.41284" lon="6.7973">
        <ele>532</ele>
        <time>2024-03-17T09:38:35Z</time>
      </trkpt>
      <trkpt lat="47.41282" lon="6.79732">
        <ele>532</ele>
        <time>2024-03-17T09:38:40Z</time>
      </trkpt>
      <trkpt lat="47.41281" lon="6.79732">
        <ele>532</ele>
        <time>2024-03-17T09:38:41Z</time>
      </trkpt>
      <trkpt lat="47.41281" lon="6.79733">
        <ele>532</ele>
        <time>2024-03-17T09:38:45Z</time>
      </trkpt>
      <trkpt lat="47.41281" lon="6.79733">
        <ele>532.2</ele>
        <time>2024-03-17T09:38:50Z</time>
      </trkpt>
      <trkpt lat="47.41281" lon="6.79733">
        <ele>532.2</ele>
        <time>2024-03-17T09:38:52Z</time>
      </trkpt>
      <trkpt lat="47.4128" lon="6.79734">
        <ele>532.4</ele>
        <time>2024-03-17T09:39:03Z</time>
      </trkpt>
      <trkpt lat="47.41279" lon="6.79733">
        <ele>532.4</ele>
        <time>2024-03-17T09:39:13Z</time>
      </trkpt>
      <trkpt lat="47.41279" lon="6.79734">
        <ele>532.4</ele>
        <time>2024-03-17T09:39:19Z</time>
      </trkpt>
      <trkpt lat="47.41279" lon="6.79734">
        <ele>532.4</ele>
        <time>2024-03-17T09:39:20Z</time>
      </trkpt>
      <trkpt lat="47.41279" lon="6.79734">
        <ele>532.4</ele>
        <time>2024-03-17T09:39:23Z</time>
      </trkpt>
      <trkpt lat="47.41278" lon="6.79735">
        <ele>532.4</ele>
        <time>2024-03-17T09:39:31Z</time>
      </trkpt>
      <trkpt lat="47.41278" lon="6.79735">
        <ele>532.4</ele>
        <time>2024-03-17T09:39:33Z</time>
      </trkpt>
      <trkpt lat="47.41278" lon="6.79734">
        <ele>532.6</ele>
        <time>2024-03-17T09:39:39Z</time>
      </trkpt>
      <trkpt lat="47.41278" lon="6.79734">
        <ele>532.6</ele>
        <time>2024-03-17T09:39:44Z</time>
      </trkpt>
      <trkpt lat="47.41278" lon="6.79734">
        <ele>532.6</ele>
        <time>2024-03-17T09:39:48Z</time>
      </trkpt>
      <trkpt lat="47.41279" lon="6.79733">
        <ele>532.6</ele>
        <time>2024-03-17T09:39:53Z</time>
      </trkpt>
      <trkpt lat="47.41279" lon="6.79733">
        <ele>532.6</ele>
        <time>2024-03-17T09:40:04Z</time>
      </trkpt>
      <trkpt lat="47.41278" lon="6.79732">
        <ele>532.4</ele>
        <time>2024-03-17T09:40:14Z</time>
      </trkpt>
      <trkpt lat="47.41274" lon="6.79732">
        <ele>532.4</ele>
        <time>2024-03-17T09:40:20Z</time>
      </trkpt>
      <trkpt lat="47.41264" lon="6.79732">
        <ele>532.2</ele>
        <time>2024-03-17T09:40:24Z</time>
      </trkpt>
      <trkpt lat="47.41231" lon="6.79745">
        <ele>531</ele>
        <time>2024-03-17T09:40:35Z</time>
      </trkpt>
      <trkpt lat="47.41219" lon="6.79751">
        <ele>530.6</ele>
        <time>2024-03-17T09:40:39Z</time>
      </trkpt>
      <trkpt lat="47.41207" lon="6.79764">
        <ele>529.6</ele>
        <time>2024-03-17T09:40:43Z</time>
      </trkpt>
      <trkpt lat="47.41202" lon="6.79769">
        <ele>529.4</ele>
        <time>2024-03-17T09:40:46Z</time>
      </trkpt>
      <trkpt lat="47.41192" lon="6.79779">
        <ele>529.2</ele>
        <time>2024-03-17T09:40:50Z</time>
      </trkpt>
      <trkpt lat="47.41182" lon="6.79793">
        <ele>529.2</ele>
        <time>2024-03-17T09:40:55Z</time>
      </trkpt>
      <trkpt lat="47.41179" lon="6.79796">
        <ele>529.2</ele>
        <time>2024-03-17T09:40:57Z</time>
      </trkpt>
      <trkpt lat="47.41177" lon="6.79798">
        <ele>529.4</ele>
        <time>2024-03-17T09:40:58Z</time>
      </trkpt>
      <trkpt lat="47.41175" lon="6.79801">
        <ele>529.4</ele>
        <time>2024-03-17T09:40:59Z</time>
      </trkpt>
      <trkpt lat="47.4117" lon="6.79807">
        <ele>529.8</ele>
        <time>2024-03-17T09:41:02Z</time>
      </trkpt>
      <trkpt lat="47.41169" lon="6.79809">
        <ele>530</ele>
        <time>2024-03-17T09:41:03Z</time>
      </trkpt>
      <trkpt lat="47.41167" lon="6.79811">
        <ele>530.2</ele>
        <time>2024-03-17T09:41:04Z</time>
      </trkpt>
      <trkpt lat="47.41165" lon="6.79812">
        <ele>530.4</ele>
        <time>2024-03-17T09:41:05Z</time>
      </trkpt>
      <trkpt lat="47.41164" lon="6.79812">
        <ele>530.4</ele>
        <time>2024-03-17T09:41:06Z</time>
      </trkpt>
      <trkpt lat="47.41162" lon="6.79813">
        <ele>530.8</ele>
        <time>2024-03-17T09:41:07Z</time>
      </trkpt>
      <trkpt lat="47.4116" lon="6.79813">
        <ele>530.8</ele>
        <time>2024-03-17T09:41:08Z</time>
      </trkpt>
      <trkpt lat="47.41149" lon="6.79816">
        <ele>531</ele>
        <time>2024-03-17T09:41:13Z</time>
      </trkpt>
      <trkpt lat="47.41146" lon="6.79817">
        <ele>531</ele>
        <time>2024-03-17T09:41:14Z</time>
      </trkpt>
      <trkpt lat="47.41144" lon="6.79818">
        <ele>531</ele>
        <time>2024-03-17T09:41:15Z</time>
      </trkpt>
      <trkpt lat="47.41141" lon="6.79818">
        <ele>531</ele>
        <time>2024-03-17T09:41:16Z</time>
      </trkpt>
      <trkpt lat="47.41135" lon="6.79819">
        <ele>531.2</ele>
        <time>2024-03-17T09:41:19Z</time>
      </trkpt>
      <trkpt lat="47.41134" lon="6.79819">
        <ele>531.2</ele>
        <time>2024-03-17T09:41:20Z</time>
      </trkpt>
      <trkpt lat="47.41121" lon="6.79816">
        <ele>531.4</ele>
        <time>2024-03-17T09:41:26Z</time>
      </trkpt>
      <trkpt lat="47.41116" lon="6.79811">
        <ele>531.4</ele>
        <time>2024-03-17T09:41:29Z</time>
      </trkpt>
      <trkpt lat="47.41111" lon="6.79807">
        <ele>531.8</ele>
        <time>2024-03-17T09:41:32Z</time>
      </trkpt>
      <trkpt lat="47.41109" lon="6.79805">
        <ele>532</ele>
        <time>2024-03-17T09:41:34Z</time>
      </trkpt>
      <trkpt lat="47.41105" lon="6.798">
        <ele>532.6</ele>
        <time>2024-03-17T09:41:37Z</time>
      </trkpt>
      <trkpt lat="47.41104" lon="6.79797">
        <ele>532.8</ele>
        <time>2024-03-17T09:41:38Z</time>
      </trkpt>
      <trkpt lat="47.41099" lon="6.79779">
        <ele>533.8</ele>
        <time>2024-03-17T09:41:45Z</time>
      </trkpt>
      <trkpt lat="47.41099" lon="6.79775">
        <ele>533.8</ele>
        <time>2024-03-17T09:41:46Z</time>
      </trkpt>
      <trkpt lat="47.41099" lon="6.79772">
        <ele>533.8</ele>
        <time>2024-03-17T09:41:47Z</time>
      </trkpt>
      <trkpt lat="47.41092" lon="6.79744">
        <ele>534.4</ele>
        <time>2024-03-17T09:41:57Z</time>
      </trkpt>
      <trkpt lat="47.41088" lon="6.79731">
        <ele>535.2</ele>
        <time>2024-03-17T09:42:02Z</time>
      </trkpt>
      <trkpt lat="47.41084" lon="6.79717">
        <ele>536</ele>
        <time>2024-03-17T09:42:07Z</time>
      </trkpt>
      <trkpt lat="47.41083" lon="6.79715">
        <ele>536.2</ele>
        <time>2024-03-17T09:42:08Z</time>
      </trkpt>
      <trkpt lat="47.41076" lon="6.79691">
        <ele>536.8</ele>
        <time>2024-03-17T09:42:17Z</time>
      </trkpt>
      <trkpt lat="47.41069" lon="6.79672">
        <ele>537.2</ele>
        <time>2024-03-17T09:42:25Z</time>
      </trkpt>
      <trkpt lat="47.41068" lon="6.7967">
        <ele>537.4</ele>
        <time>2024-03-17T09:42:26Z</time>
      </trkpt>
      <trkpt lat="47.41064" lon="6.79659">
        <ele>538.2</ele>
        <time>2024-03-17T09:42:32Z</time>
      </trkpt>
      <trkpt lat="47.41063" lon="6.79657">
        <ele>538.6</ele>
        <time>2024-03-17T09:42:33Z</time>
      </trkpt>
      <trkpt lat="47.41062" lon="6.79649">
        <ele>539.6</ele>
        <time>2024-03-17T09:42:37Z</time>
      </trkpt>
      <trkpt lat="47.41058" lon="6.79635">
        <ele>540.8</ele>
        <time>2024-03-17T09:42:44Z</time>
      </trkpt>
      <trkpt lat="47.41055" lon="6.79628">
        <ele>541.6</ele>
        <time>2024-03-17T09:42:48Z</time>
      </trkpt>
      <trkpt lat="47.41054" lon="6.79624">
        <ele>541.8</ele>
        <time>2024-03-17T09:42:50Z</time>
      </trkpt>
      <trkpt lat="47.41052" lon="6.79615">
        <ele>542.2</ele>
        <time>2024-03-17T09:42:54Z</time>
      </trkpt>
      <trkpt lat="47.4105" lon="6.79605">
        <ele>542.8</ele>
        <time>2024-03-17T09:42:59Z</time>
      </trkpt>
      <trkpt lat="47.41048" lon="6.79598">
        <ele>542.8</ele>
        <time>2024-03-17T09:43:02Z</time>
      </trkpt>
      <trkpt lat="47.41046" lon="6.79587">
        <ele>543.2</ele>
        <time>2024-03-17T09:43:07Z</time>
      </trkpt>
      <trkpt lat="47.41044" lon="6.79584">
        <ele>543.4</ele>
        <time>2024-03-17T09:43:09Z</time>
      </trkpt>
      <trkpt lat="47.4104" lon="6.79571">
        <ele>543.8</ele>
        <time>2024-03-17T09:43:15Z</time>
      </trkpt>
      <trkpt lat="47.41039" lon="6.79561">
        <ele>544.2</ele>
        <time>2024-03-17T09:43:19Z</time>
      </trkpt>
      <trkpt lat="47.41037" lon="6.79547">
        <ele>544.8</ele>
        <time>2024-03-17T09:43:24Z</time>
      </trkpt>
      <trkpt lat="47.41036" lon="6.79534">
        <ele>545.4</ele>
        <time>2024-03-17T09:43:29Z</time>
      </trkpt>
      <trkpt lat="47.41035" lon="6.79518">
        <ele>545.8</ele>
        <time>2024-03-17T09:43:35Z</time>
      </trkpt>
      <trkpt lat="47.41034" lon="6.79507">
        <ele>545.8</ele>
        <time>2024-03-17T09:43:39Z</time>
      </trkpt>
      <trkpt lat="47.41031" lon="6.79468">
        <ele>545.6</ele>
        <time>2024-03-17T09:43:49Z</time>
      </trkpt>
      <trkpt lat="47.41022" lon="6.79425">
        <ele>544.6</ele>
        <time>2024-03-17T09:44:00Z</time>
      </trkpt>
      <trkpt lat="47.41012" lon="6.79382">
        <ele>544.6</ele>
        <time>2024-03-17T09:44:10Z</time>
      </trkpt>
      <trkpt lat="47.41011" lon="6.79378">
        <ele>544.6</ele>
        <time>2024-03-17T09:44:11Z</time>
      </trkpt>
      <trkpt lat="47.41004" lon="6.79357">
        <ele>544.8</ele>
        <time>2024-03-17T09:44:17Z</time>
      </trkpt>
      <trkpt lat="47.41001" lon="6.79344">
        <ele>545</ele>
        <time>2024-03-17T09:44:21Z</time>
      </trkpt>
      <trkpt lat="47.4099" lon="6.79311">
        <ele>545.8</ele>
        <time>2024-03-17T09:44:31Z</time>
      </trkpt>
      <trkpt lat="47.40987" lon="6.79302">
        <ele>546</ele>
        <time>2024-03-17T09:44:34Z</time>
      </trkpt>
      <trkpt lat="47.40978" lon="6.79279">
        <ele>546.4</ele>
        <time>2024-03-17T09:44:41Z</time>
      </trkpt>
      <trkpt lat="47.40969" lon="6.79246">
        <ele>546.8</ele>
        <time>2024-03-17T09:44:51Z</time>
      </trkpt>
      <trkpt lat="47.40962" lon="6.79203">
        <ele>546.6</ele>
        <time>2024-03-17T09:45:01Z</time>
      </trkpt>
      <trkpt lat="47.40959" lon="6.79169">
        <ele>545.4</ele>
        <time>2024-03-17T09:45:07Z</time>
      </trkpt>
      <trkpt lat="47.40957" lon="6.79159">
        <ele>544.6</ele>
        <time>2024-03-17T09:45:09Z</time>
      </trkpt>
      <trkpt lat="47.40956" lon="6.79149">
        <ele>543.8</ele>
        <time>2024-03-17T09:45:11Z</time>
      </trkpt>
      <trkpt lat="47.40955" lon="6.79144">
        <ele>543.2</ele>
        <time>2024-03-17T09:45:12Z</time>
      </trkpt>
      <trkpt lat="47.40952" lon="6.79121">
        <ele>542.4</ele>
        <time>2024-03-17T09:45:17Z</time>
      </trkpt>
      <trkpt lat="47.40946" lon="6.79105">
        <ele>542.4</ele>
        <time>2024-03-17T09:45:21Z</time>
      </trkpt>
      <trkpt lat="47.40931" lon="6.79073">
        <ele>542.4</ele>
        <time>2024-03-17T09:45:31Z</time>
      </trkpt>
      <trkpt lat="47.40913" lon="6.7905">
        <ele>543.2</ele>
        <time>2024-03-17T09:45:41Z</time>
      </trkpt>
      <trkpt lat="47.40901" lon="6.79037">
        <ele>543.4</ele>
        <time>2024-03-17T09:45:47Z</time>
      </trkpt>
      <trkpt lat="47.40893" lon="6.79029">
        <ele>543.6</ele>
        <time>2024-03-17T09:45:51Z</time>
      </trkpt>
      <trkpt lat="47.40873" lon="6.79016">
        <ele>544</ele>
        <time>2024-03-17T09:46:01Z</time>
      </trkpt>
      <trkpt lat="47.40862" lon="6.79013">
        <ele>544.2</ele>
        <time>2024-03-17T09:46:06Z</time>
      </trkpt>
      <trkpt lat="47.40852" lon="6.7901">
        <ele>544.4</ele>
        <time>2024-03-17T09:46:11Z</time>
      </trkpt>
      <trkpt lat="47.40833" lon="6.79003">
        <ele>545</ele>
        <time>2024-03-17T09:46:21Z</time>
      </trkpt>
      <trkpt lat="47.40813" lon="6.79005">
        <ele>545</ele>
        <time>2024-03-17T09:46:31Z</time>
      </trkpt>
      <trkpt lat="47.40801" lon="6.79017">
        <ele>545.2</ele>
        <time>2024-03-17T09:46:41Z</time>
      </trkpt>
      <trkpt lat="47.40801" lon="6.79017">
        <ele>545.2</ele>
        <time>2024-03-17T09:46:42Z</time>
      </trkpt>
      <trkpt lat="47.40801" lon="6.79017">
        <ele>545.6</ele>
        <time>2024-03-17T09:46:51Z</time>
      </trkpt>
      <trkpt lat="47.40801" lon="6.79017">
        <ele>545.6</ele>
        <time>2024-03-17T09:46:59Z</time>
      </trkpt>
      <trkpt lat="47.40799" lon="6.79017">
        <ele>545.6</ele>
        <time>2024-03-17T09:47:01Z</time>
      </trkpt>
      <trkpt lat="47.40798" lon="6.79016">
        <ele>545.6</ele>
        <time>2024-03-17T09:47:02Z</time>
      </trkpt>
      <trkpt lat="47.40797" lon="6.79011">
        <ele>545.6</ele>
        <time>2024-03-17T09:47:04Z</time>
      </trkpt>
      <trkpt lat="47.40809" lon="6.78978">
        <ele>545.4</ele>
        <time>2024-03-17T09:47:11Z</time>
      </trkpt>
      <trkpt lat="47.40814" lon="6.7895">
        <ele>543.8</ele>
        <time>2024-03-17T09:47:15Z</time>
      </trkpt>
      <trkpt lat="47.40814" lon="6.78942">
        <ele>543.6</ele>
        <time>2024-03-17T09:47:16Z</time>
      </trkpt>
      <trkpt lat="47.40811" lon="6.78916">
        <ele>542.2</ele>
        <time>2024-03-17T09:47:19Z</time>
      </trkpt>
      <trkpt lat="47.40808" lon="6.78902">
        <ele>540.8</ele>
        <time>2024-03-17T09:47:21Z</time>
      </trkpt>
      <trkpt lat="47.40804" lon="6.78893">
        <ele>539.4</ele>
        <time>2024-03-17T09:47:23Z</time>
      </trkpt>
      <trkpt lat="47.40802" lon="6.78889">
        <ele>538</ele>
        <time>2024-03-17T09:47:24Z</time>
      </trkpt>
      <trkpt lat="47.408" lon="6.78886">
        <ele>536.2</ele>
        <time>2024-03-17T09:47:25Z</time>
      </trkpt>
      <trkpt lat="47.40799" lon="6.78883">
        <ele>534.6</ele>
        <time>2024-03-17T09:47:26Z</time>
      </trkpt>
      <trkpt lat="47.40797" lon="6.7888">
        <ele>533.2</ele>
        <time>2024-03-17T09:47:27Z</time>
      </trkpt>
      <trkpt lat="47.40794" lon="6.78875">
        <ele>532.2</ele>
        <time>2024-03-17T09:47:29Z</time>
      </trkpt>
      <trkpt lat="47.40791" lon="6.78871">
        <ele>531.8</ele>
        <time>2024-03-17T09:47:31Z</time>
      </trkpt>
      <trkpt lat="47.40789" lon="6.78866">
        <ele>530.8</ele>
        <time>2024-03-17T09:47:33Z</time>
      </trkpt>
      <trkpt lat="47.40789" lon="6.78863">
        <ele>530</ele>
        <time>2024-03-17T09:47:34Z</time>
      </trkpt>
      <trkpt lat="47.40787" lon="6.7886">
        <ele>529.6</ele>
        <time>2024-03-17T09:47:35Z</time>
      </trkpt>
      <trkpt lat="47.40783" lon="6.78853">
        <ele>528</ele>
        <time>2024-03-17T09:47:38Z</time>
      </trkpt>
      <trkpt lat="47.40781" lon="6.78851">
        <ele>527.6</ele>
        <time>2024-03-17T09:47:39Z</time>
      </trkpt>
      <trkpt lat="47.40778" lon="6.7885">
        <ele>526</ele>
        <time>2024-03-17T09:47:41Z</time>
      </trkpt>
      <trkpt lat="47.40773" lon="6.78848">
        <ele>524.8</ele>
        <time>2024-03-17T09:47:44Z</time>
      </trkpt>
      <trkpt lat="47.40769" lon="6.78846">
        <ele>523.4</ele>
        <time>2024-03-17T09:47:46Z</time>
      </trkpt>
      <trkpt lat="47.40765" lon="6.78842">
        <ele>522.2</ele>
        <time>2024-03-17T09:47:48Z</time>
      </trkpt>
      <trkpt lat="47.40754" lon="6.78837">
        <ele>520.6</ele>
        <time>2024-03-17T09:47:51Z</time>
      </trkpt>
      <trkpt lat="47.40751" lon="6.78836">
        <ele>519.8</ele>
        <time>2024-03-17T09:47:52Z</time>
      </trkpt>
      <trkpt lat="47.40748" lon="6.78835">
        <ele>519</ele>
        <time>2024-03-17T09:47:53Z</time>
      </trkpt>
      <trkpt lat="47.40741" lon="6.78835">
        <ele>517</ele>
        <time>2024-03-17T09:47:55Z</time>
      </trkpt>
      <trkpt lat="47.40738" lon="6.78835">
        <ele>515.8</ele>
        <time>2024-03-17T09:47:56Z</time>
      </trkpt>
      <trkpt lat="47.40735" lon="6.78835">
        <ele>514.6</ele>
        <time>2024-03-17T09:47:57Z</time>
      </trkpt>
      <trkpt lat="47.40732" lon="6.78835">
        <ele>513.4</ele>
        <time>2024-03-17T09:47:58Z</time>
      </trkpt>
      <trkpt lat="47.40724" lon="6.78837">
        <ele>511.2</ele>
        <time>2024-03-17T09:48:00Z</time>
      </trkpt>
      <trkpt lat="47.4072" lon="6.78838">
        <ele>510</ele>
        <time>2024-03-17T09:48:01Z</time>
      </trkpt>
      <trkpt lat="47.40712" lon="6.78841">
        <ele>507.6</ele>
        <time>2024-03-17T09:48:03Z</time>
      </trkpt>
      <trkpt lat="47.40708" lon="6.78843">
        <ele>506.4</ele>
        <time>2024-03-17T09:48:04Z</time>
      </trkpt>
      <trkpt lat="47.40704" lon="6.78845">
        <ele>505.2</ele>
        <time>2024-03-17T09:48:05Z</time>
      </trkpt>
      <trkpt lat="47.40699" lon="6.78848">
        <ele>504.2</ele>
        <time>2024-03-17T09:48:06Z</time>
      </trkpt>
      <trkpt lat="47.40694" lon="6.7885">
        <ele>503</ele>
        <time>2024-03-17T09:48:07Z</time>
      </trkpt>
      <trkpt lat="47.4069" lon="6.78853">
        <ele>501.8</ele>
        <time>2024-03-17T09:48:08Z</time>
      </trkpt>
      <trkpt lat="47.40685" lon="6.78855">
        <ele>500.6</ele>
        <time>2024-03-17T09:48:09Z</time>
      </trkpt>
      <trkpt lat="47.40676" lon="6.78862">
        <ele>498.6</ele>
        <time>2024-03-17T09:48:11Z</time>
      </trkpt>
      <trkpt lat="47.40671" lon="6.78865">
        <ele>497.4</ele>
        <time>2024-03-17T09:48:12Z</time>
      </trkpt>
      <trkpt lat="47.40666" lon="6.78869">
        <ele>496.2</ele>
        <time>2024-03-17T09:48:13Z</time>
      </trkpt>
      <trkpt lat="47.40661" lon="6.78874">
        <ele>495</ele>
        <time>2024-03-17T09:48:14Z</time>
      </trkpt>
      <trkpt lat="47.40656" lon="6.78879">
        <ele>493.8</ele>
        <time>2024-03-17T09:48:15Z</time>
      </trkpt>
      <trkpt lat="47.40649" lon="6.78885">
        <ele>492.8</ele>
        <time>2024-03-17T09:48:16Z</time>
      </trkpt>
      <trkpt lat="47.40643" lon="6.78892">
        <ele>491.2</ele>
        <time>2024-03-17T09:48:17Z</time>
      </trkpt>
      <trkpt lat="47.40638" lon="6.78897">
        <ele>490</ele>
        <time>2024-03-17T09:48:18Z</time>
      </trkpt>
      <trkpt lat="47.40634" lon="6.78902">
        <ele>488.8</ele>
        <time>2024-03-17T09:48:19Z</time>
      </trkpt>
      <trkpt lat="47.4063" lon="6.78908">
        <ele>488</ele>
        <time>2024-03-17T09:48:20Z</time>
      </trkpt>
      <trkpt lat="47.40625" lon="6.78913">
        <ele>487.2</ele>
        <time>2024-03-17T09:48:21Z</time>
      </trkpt>
      <trkpt lat="47.40616" lon="6.78925">
        <ele>485.2</ele>
        <time>2024-03-17T09:48:23Z</time>
      </trkpt>
      <trkpt lat="47.40603" lon="6.78945">
        <ele>484</ele>
        <time>2024-03-17T09:48:26Z</time>
      </trkpt>
      <trkpt lat="47.40597" lon="6.78953">
        <ele>483.6</ele>
        <time>2024-03-17T09:48:27Z</time>
      </trkpt>
      <trkpt lat="47.40588" lon="6.78965">
        <ele>482.6</ele>
        <time>2024-03-17T09:48:29Z</time>
      </trkpt>
      <trkpt lat="47.40584" lon="6.78972">
        <ele>482</ele>
        <time>2024-03-17T09:48:30Z</time>
      </trkpt>
      <trkpt lat="47.4058" lon="6.78977">
        <ele>481.6</ele>
        <time>2024-03-17T09:48:31Z</time>
      </trkpt>
      <trkpt lat="47.40555" lon="6.79018">
        <ele>481.4</ele>
        <time>2024-03-17T09:48:40Z</time>
      </trkpt>
      <trkpt lat="47.40545" lon="6.79047">
        <ele>483</ele>
        <time>2024-03-17T09:48:49Z</time>
      </trkpt>
      <trkpt lat="47.40544" lon="6.79049">
        <ele>483.2</ele>
        <time>2024-03-17T09:48:50Z</time>
      </trkpt>
      <trkpt lat="47.40541" lon="6.79056">
        <ele>484.2</ele>
        <time>2024-03-17T09:48:53Z</time>
      </trkpt>
      <trkpt lat="47.40534" lon="6.79072">
        <ele>485.4</ele>
        <time>2024-03-17T09:48:59Z</time>
      </trkpt>
      <trkpt lat="47.40533" lon="6.79075">
        <ele>485.6</ele>
        <time>2024-03-17T09:49:00Z</time>
      </trkpt>
      <trkpt lat="47.4053" lon="6.79089">
        <ele>486.4</ele>
        <time>2024-03-17T09:49:04Z</time>
      </trkpt>
      <trkpt lat="47.40518" lon="6.79109">
        <ele>486.8</ele>
        <time>2024-03-17T09:49:10Z</time>
      </trkpt>
      <trkpt lat="47.40492" lon="6.7914">
        <ele>485</ele>
        <time>2024-03-17T09:49:19Z</time>
      </trkpt>
      <trkpt lat="47.40489" lon="6.79142">
        <ele>484.4</ele>
        <time>2024-03-17T09:49:20Z</time>
      </trkpt>
      <trkpt lat="47.40485" lon="6.79145">
        <ele>483.8</ele>
        <time>2024-03-17T09:49:21Z</time>
      </trkpt>
      <trkpt lat="47.4048" lon="6.79147">
        <ele>483.4</ele>
        <time>2024-03-17T09:49:22Z</time>
      </trkpt>
      <trkpt lat="47.40475" lon="6.79148">
        <ele>482.4</ele>
        <time>2024-03-17T09:49:23Z</time>
      </trkpt>
      <trkpt lat="47.4047" lon="6.7915">
        <ele>481.4</ele>
        <time>2024-03-17T09:49:24Z</time>
      </trkpt>
      <trkpt lat="47.40462" lon="6.79153">
        <ele>479.6</ele>
        <time>2024-03-17T09:49:26Z</time>
      </trkpt>
      <trkpt lat="47.40459" lon="6.79154">
        <ele>478.2</ele>
        <time>2024-03-17T09:49:27Z</time>
      </trkpt>
      <trkpt lat="47.40455" lon="6.79156">
        <ele>477</ele>
        <time>2024-03-17T09:49:28Z</time>
      </trkpt>
      <trkpt lat="47.40452" lon="6.79159">
        <ele>475.8</ele>
        <time>2024-03-17T09:49:29Z</time>
      </trkpt>
      <trkpt lat="47.40449" lon="6.79161">
        <ele>474.8</ele>
        <time>2024-03-17T09:49:30Z</time>
      </trkpt>
      <trkpt lat="47.40443" lon="6.79164">
        <ele>473</ele>
        <time>2024-03-17T09:49:32Z</time>
      </trkpt>
      <trkpt lat="47.40437" lon="6.79165">
        <ele>471.4</ele>
        <time>2024-03-17T09:49:34Z</time>
      </trkpt>
      <trkpt lat="47.40435" lon="6.79164">
        <ele>470.6</ele>
        <time>2024-03-17T09:49:35Z</time>
      </trkpt>
      <trkpt lat="47.40433" lon="6.79162">
        <ele>470</ele>
        <time>2024-03-17T09:49:36Z</time>
      </trkpt>
      <trkpt lat="47.40432" lon="6.79159">
        <ele>469.4</ele>
        <time>2024-03-17T09:49:37Z</time>
      </trkpt>
      <trkpt lat="47.40432" lon="6.79156">
        <ele>468.8</ele>
        <time>2024-03-17T09:49:38Z</time>
      </trkpt>
      <trkpt lat="47.40435" lon="6.7915">
        <ele>467</ele>
        <time>2024-03-17T09:49:40Z</time>
      </trkpt>
      <trkpt lat="47.40437" lon="6.79146">
        <ele>466.4</ele>
        <time>2024-03-17T09:49:41Z</time>
      </trkpt>
      <trkpt lat="47.40441" lon="6.79138">
        <ele>465.6</ele>
        <time>2024-03-17T09:49:43Z</time>
      </trkpt>
      <trkpt lat="47.40447" lon="6.79127">
        <ele>464.2</ele>
        <time>2024-03-17T09:49:46Z</time>
      </trkpt>
      <trkpt lat="47.40451" lon="6.7912">
        <ele>462.4</ele>
        <time>2024-03-17T09:49:48Z</time>
      </trkpt>
      <trkpt lat="47.40455" lon="6.79112">
        <ele>460.4</ele>
        <time>2024-03-17T09:49:50Z</time>
      </trkpt>
      <trkpt lat="47.40459" lon="6.79101">
        <ele>459</ele>
        <time>2024-03-17T09:49:52Z</time>
      </trkpt>
      <trkpt lat="47.40462" lon="6.79092">
        <ele>457.6</ele>
        <time>2024-03-17T09:49:54Z</time>
      </trkpt>
      <trkpt lat="47.40464" lon="6.79073">
        <ele>455.8</ele>
        <time>2024-03-17T09:49:57Z</time>
      </trkpt>
      <trkpt lat="47.40466" lon="6.79063">
        <ele>453.8</ele>
        <time>2024-03-17T09:49:59Z</time>
      </trkpt>
      <trkpt lat="47.40468" lon="6.79054">
        <ele>452.6</ele>
        <time>2024-03-17T09:50:01Z</time>
      </trkpt>
      <trkpt lat="47.4047" lon="6.79043">
        <ele>451.2</ele>
        <time>2024-03-17T09:50:03Z</time>
      </trkpt>
      <trkpt lat="47.40471" lon="6.79032">
        <ele>449.6</ele>
        <time>2024-03-17T09:50:05Z</time>
      </trkpt>
      <trkpt lat="47.40473" lon="6.79019">
        <ele>448.4</ele>
        <time>2024-03-17T09:50:07Z</time>
      </trkpt>
      <trkpt lat="47.40474" lon="6.79002">
        <ele>447</ele>
        <time>2024-03-17T09:50:09Z</time>
      </trkpt>
      <trkpt lat="47.40477" lon="6.78995">
        <ele>446.4</ele>
        <time>2024-03-17T09:50:10Z</time>
      </trkpt>
      <trkpt lat="47.40478" lon="6.78987">
        <ele>445.6</ele>
        <time>2024-03-17T09:50:11Z</time>
      </trkpt>
      <trkpt lat="47.4048" lon="6.78971">
        <ele>444.2</ele>
        <time>2024-03-17T09:50:13Z</time>
      </trkpt>
      <trkpt lat="47.40482" lon="6.78954">
        <ele>442.2</ele>
        <time>2024-03-17T09:50:15Z</time>
      </trkpt>
      <trkpt lat="47.40485" lon="6.78942">
        <ele>440.2</ele>
        <time>2024-03-17T09:50:17Z</time>
      </trkpt>
      <trkpt lat="47.40488" lon="6.78929">
        <ele>438.4</ele>
        <time>2024-03-17T09:50:19Z</time>
      </trkpt>
      <trkpt lat="47.4049" lon="6.78921">
        <ele>437.2</ele>
        <time>2024-03-17T09:50:20Z</time>
      </trkpt>
      <trkpt lat="47.40492" lon="6.78913">
        <ele>436.2</ele>
        <time>2024-03-17T09:50:21Z</time>
      </trkpt>
      <trkpt lat="47.40493" lon="6.78906">
        <ele>435.2</ele>
        <time>2024-03-17T09:50:22Z</time>
      </trkpt>
      <trkpt lat="47.40497" lon="6.78892">
        <ele>433.8</ele>
        <time>2024-03-17T09:50:24Z</time>
      </trkpt>
      <trkpt lat="47.40501" lon="6.78878">
        <ele>432.4</ele>
        <time>2024-03-17T09:50:26Z</time>
      </trkpt>
      <trkpt lat="47.40502" lon="6.78872">
        <ele>431.2</ele>
        <time>2024-03-17T09:50:27Z</time>
      </trkpt>
      <trkpt lat="47.40506" lon="6.78859">
        <ele>429.8</ele>
        <time>2024-03-17T09:50:29Z</time>
      </trkpt>
      <trkpt lat="47.40511" lon="6.78847">
        <ele>428.2</ele>
        <time>2024-03-17T09:50:31Z</time>
      </trkpt>
      <trkpt lat="47.40517" lon="6.78836">
        <ele>426.8</ele>
        <time>2024-03-17T09:50:33Z</time>
      </trkpt>
      <trkpt lat="47.40523" lon="6.78825">
        <ele>425.4</ele>
        <time>2024-03-17T09:50:35Z</time>
      </trkpt>
      <trkpt lat="47.40527" lon="6.78818">
        <ele>425</ele>
        <time>2024-03-17T09:50:36Z</time>
      </trkpt>
      <trkpt lat="47.4053" lon="6.78812">
        <ele>424.4</ele>
        <time>2024-03-17T09:50:37Z</time>
      </trkpt>
      <trkpt lat="47.40538" lon="6.78793">
        <ele>423.2</ele>
        <time>2024-03-17T09:50:41Z</time>
      </trkpt>
      <trkpt lat="47.40544" lon="6.78774">
        <ele>422</ele>
        <time>2024-03-17T09:50:44Z</time>
      </trkpt>
      <trkpt lat="47.40548" lon="6.78762">
        <ele>420.8</ele>
        <time>2024-03-17T09:50:46Z</time>
      </trkpt>
      <trkpt lat="47.40553" lon="6.78748">
        <ele>419.4</ele>
        <time>2024-03-17T09:50:49Z</time>
      </trkpt>
      <trkpt lat="47.40555" lon="6.78739">
        <ele>418.6</ele>
        <time>2024-03-17T09:50:51Z</time>
      </trkpt>
      <trkpt lat="47.40556" lon="6.78734">
        <ele>418</ele>
        <time>2024-03-17T09:50:52Z</time>
      </trkpt>
      <trkpt lat="47.40557" lon="6.78728">
        <ele>417.2</ele>
        <time>2024-03-17T09:50:54Z</time>
      </trkpt>
      <trkpt lat="47.40558" lon="6.78726">
        <ele>416.8</ele>
        <time>2024-03-17T09:50:55Z</time>
      </trkpt>
      <trkpt lat="47.4056" lon="6.78722">
        <ele>415.8</ele>
        <time>2024-03-17T09:50:59Z</time>
      </trkpt>
      <trkpt lat="47.40562" lon="6.78718">
        <ele>415.4</ele>
        <time>2024-03-17T09:51:01Z</time>
      </trkpt>
      <trkpt lat="47.40568" lon="6.78704">
        <ele>415</ele>
        <time>2024-03-17T09:51:06Z</time>
      </trkpt>
      <trkpt lat="47.40572" lon="6.78694">
        <ele>414.6</ele>
        <time>2024-03-17T09:51:09Z</time>
      </trkpt>
      <trkpt lat="47.40574" lon="6.78688">
        <ele>414</ele>
        <time>2024-03-17T09:51:11Z</time>
      </trkpt>
      <trkpt lat="47.40575" lon="6.78682">
        <ele>413.6</ele>
        <time>2024-03-17T09:51:15Z</time>
      </trkpt>
      <trkpt lat="47.40582" lon="6.78673">
        <ele>412.4</ele>
        <time>2024-03-17T09:51:20Z</time>
      </trkpt>
      <trkpt lat="47.40583" lon="6.78671">
        <ele>412.2</ele>
        <time>2024-03-17T09:51:21Z</time>
      </trkpt>
      <trkpt lat="47.4059" lon="6.78659">
        <ele>411.2</ele>
        <time>2024-03-17T09:51:26Z</time>
      </trkpt>
      <trkpt lat="47.40596" lon="6.78648">
        <ele>410.2</ele>
        <time>2024-03-17T09:51:30Z</time>
      </trkpt>
      <trkpt lat="47.40597" lon="6.78645">
        <ele>410</ele>
        <time>2024-03-17T09:51:31Z</time>
      </trkpt>
      <trkpt lat="47.40601" lon="6.78639">
        <ele>409</ele>
        <time>2024-03-17T09:51:34Z</time>
      </trkpt>
      <trkpt lat="47.40608" lon="6.78629">
        <ele>407.8</ele>
        <time>2024-03-17T09:51:38Z</time>
      </trkpt>
      <trkpt lat="47.40614" lon="6.7862">
        <ele>407.6</ele>
        <time>2024-03-17T09:51:41Z</time>
      </trkpt>
      <trkpt lat="47.40621" lon="6.78602">
        <ele>406.4</ele>
        <time>2024-03-17T09:51:47Z</time>
      </trkpt>
      <trkpt lat="47.40624" lon="6.7858">
        <ele>405.8</ele>
        <time>2024-03-17T09:51:51Z</time>
      </trkpt>
      <trkpt lat="47.40626" lon="6.78571">
        <ele>405.2</ele>
        <time>2024-03-17T09:51:53Z</time>
      </trkpt>
      <trkpt lat="47.40632" lon="6.7856">
        <ele>403.6</ele>
        <time>2024-03-17T09:51:56Z</time>
      </trkpt>
      <trkpt lat="47.40635" lon="6.78554">
        <ele>402.2</ele>
        <time>2024-03-17T09:51:58Z</time>
      </trkpt>
      <trkpt lat="47.4064" lon="6.78546">
        <ele>401.2</ele>
        <time>2024-03-17T09:52:00Z</time>
      </trkpt>
      <trkpt lat="47.40643" lon="6.78543">
        <ele>400.8</ele>
        <time>2024-03-17T09:52:01Z</time>
      </trkpt>
      <trkpt lat="47.40652" lon="6.78531">
        <ele>399.8</ele>
        <time>2024-03-17T09:52:04Z</time>
      </trkpt>
      <trkpt lat="47.40657" lon="6.78521">
        <ele>398.8</ele>
        <time>2024-03-17T09:52:07Z</time>
      </trkpt>
      <trkpt lat="47.40665" lon="6.78512">
        <ele>397.6</ele>
        <time>2024-03-17T09:52:10Z</time>
      </trkpt>
      <trkpt lat="47.40667" lon="6.7851">
        <ele>397.2</ele>
        <time>2024-03-17T09:52:11Z</time>
      </trkpt>
      <trkpt lat="47.40671" lon="6.78505">
        <ele>396.4</ele>
        <time>2024-03-17T09:52:13Z</time>
      </trkpt>
      <trkpt lat="47.40681" lon="6.78495">
        <ele>395.4</ele>
        <time>2024-03-17T09:52:17Z</time>
      </trkpt>
      <trkpt lat="47.4069" lon="6.78488">
        <ele>394.4</ele>
        <time>2024-03-17T09:52:21Z</time>
      </trkpt>
      <trkpt lat="47.40692" lon="6.78486">
        <ele>394</ele>
        <time>2024-03-17T09:52:22Z</time>
      </trkpt>
      <trkpt lat="47.40695" lon="6.7848">
        <ele>393.2</ele>
        <time>2024-03-17T09:52:25Z</time>
      </trkpt>
      <trkpt lat="47.4071" lon="6.7846">
        <ele>392.4</ele>
        <time>2024-03-17T09:52:33Z</time>
      </trkpt>
      <trkpt lat="47.40713" lon="6.78457">
        <ele>392.2</ele>
        <time>2024-03-17T09:52:34Z</time>
      </trkpt>
      <trkpt lat="47.40727" lon="6.78446">
        <ele>391.2</ele>
        <time>2024-03-17T09:52:39Z</time>
      </trkpt>
      <trkpt lat="47.40734" lon="6.78442">
        <ele>390.4</ele>
        <time>2024-03-17T09:52:42Z</time>
      </trkpt>
      <trkpt lat="47.40735" lon="6.78441">
        <ele>390</ele>
        <time>2024-03-17T09:52:43Z</time>
      </trkpt>
      <trkpt lat="47.40745" lon="6.78435">
        <ele>389</ele>
        <time>2024-03-17T09:52:48Z</time>
      </trkpt>
      <trkpt lat="47.40753" lon="6.78429">
        <ele>388.2</ele>
        <time>2024-03-17T09:52:53Z</time>
      </trkpt>
      <trkpt lat="47.40755" lon="6.78428">
        <ele>388</ele>
        <time>2024-03-17T09:52:55Z</time>
      </trkpt>
      <trkpt lat="47.40763" lon="6.78422">
        <ele>386.8</ele>
        <time>2024-03-17T09:53:03Z</time>
      </trkpt>
      <trkpt lat="47.40765" lon="6.78421">
        <ele>386.6</ele>
        <time>2024-03-17T09:53:04Z</time>
      </trkpt>
      <trkpt lat="47.40774" lon="6.78414">
        <ele>385.8</ele>
        <time>2024-03-17T09:53:10Z</time>
      </trkpt>
      <trkpt lat="47.40781" lon="6.78409">
        <ele>385</ele>
        <time>2024-03-17T09:53:14Z</time>
      </trkpt>
      <trkpt lat="47.40785" lon="6.78408">
        <ele>384.6</ele>
        <time>2024-03-17T09:53:16Z</time>
      </trkpt>
      <trkpt lat="47.40791" lon="6.78405">
        <ele>383.6</ele>
        <time>2024-03-17T09:53:19Z</time>
      </trkpt>
      <trkpt lat="47.408" lon="6.78399">
        <ele>382.4</ele>
        <time>2024-03-17T09:53:23Z</time>
      </trkpt>
      <trkpt lat="47.40802" lon="6.78398">
        <ele>382.2</ele>
        <time>2024-03-17T09:53:24Z</time>
      </trkpt>
      <trkpt lat="47.4081" lon="6.78393">
        <ele>381.2</ele>
        <time>2024-03-17T09:53:27Z</time>
      </trkpt>
      <trkpt lat="47.40815" lon="6.7839">
        <ele>379.8</ele>
        <time>2024-03-17T09:53:29Z</time>
      </trkpt>
      <trkpt lat="47.40819" lon="6.78388">
        <ele>378.6</ele>
        <time>2024-03-17T09:53:32Z</time>
      </trkpt>
      <trkpt lat="47.40826" lon="6.78385">
        <ele>377.6</ele>
        <time>2024-03-17T09:53:35Z</time>
      </trkpt>
      <trkpt lat="47.40838" lon="6.78379">
        <ele>376.4</ele>
        <time>2024-03-17T09:53:40Z</time>
      </trkpt>
      <trkpt lat="47.40852" lon="6.78373">
        <ele>375.4</ele>
        <time>2024-03-17T09:53:45Z</time>
      </trkpt>
      <trkpt lat="47.40866" lon="6.78373">
        <ele>374.4</ele>
        <time>2024-03-17T09:53:50Z</time>
      </trkpt>
      <trkpt lat="47.40872" lon="6.78376">
        <ele>373.4</ele>
        <time>2024-03-17T09:53:55Z</time>
      </trkpt>
      <trkpt lat="47.40896" lon="6.7839">
        <ele>372.6</ele>
        <time>2024-03-17T09:54:06Z</time>
      </trkpt>
      <trkpt lat="47.40905" lon="6.78395">
        <ele>372.2</ele>
        <time>2024-03-17T09:54:09Z</time>
      </trkpt>
      <trkpt lat="47.40917" lon="6.78407">
        <ele>371.2</ele>
        <time>2024-03-17T09:54:15Z</time>
      </trkpt>
      <trkpt lat="47.40919" lon="6.78409">
        <ele>370.8</ele>
        <time>2024-03-17T09:54:16Z</time>
      </trkpt>
      <trkpt lat="47.40932" lon="6.78422">
        <ele>370.2</ele>
        <time>2024-03-17T09:54:20Z</time>
      </trkpt>
      <trkpt lat="47.40942" lon="6.78427">
        <ele>370</ele>
        <time>2024-03-17T09:54:22Z</time>
      </trkpt>
      <trkpt lat="47.40952" lon="6.78428">
        <ele>369.2</ele>
        <time>2024-03-17T09:54:24Z</time>
      </trkpt>
      <trkpt lat="47.40957" lon="6.78426">
        <ele>368.6</ele>
        <time>2024-03-17T09:54:25Z</time>
      </trkpt>
      <trkpt lat="47.40962" lon="6.78424">
        <ele>368.2</ele>
        <time>2024-03-17T09:54:26Z</time>
      </trkpt>
      <trkpt lat="47.40971" lon="6.78422">
        <ele>366.8</ele>
        <time>2024-03-17T09:54:28Z</time>
      </trkpt>
      <trkpt lat="47.40979" lon="6.7842">
        <ele>365.8</ele>
        <time>2024-03-17T09:54:30Z</time>
      </trkpt>
      <trkpt lat="47.40986" lon="6.78418">
        <ele>364.6</ele>
        <time>2024-03-17T09:54:32Z</time>
      </trkpt>
      <trkpt lat="47.40992" lon="6.78414">
        <ele>363.6</ele>
        <time>2024-03-17T09:54:34Z</time>
      </trkpt>
      <trkpt lat="47.40995" lon="6.78412">
        <ele>363.2</ele>
        <time>2024-03-17T09:54:35Z</time>
      </trkpt>
      <trkpt lat="47.41016" lon="6.78398">
        <ele>362.4</ele>
        <time>2024-03-17T09:54:41Z</time>
      </trkpt>
      <trkpt lat="47.41029" lon="6.7839">
        <ele>362.4</ele>
        <time>2024-03-17T09:54:45Z</time>
      </trkpt>
      <trkpt lat="47.41063" lon="6.78369">
        <ele>362.2</ele>
        <time>2024-03-17T09:54:55Z</time>
      </trkpt>
      <trkpt lat="47.41096" lon="6.78348">
        <ele>362</ele>
        <time>2024-03-17T09:55:05Z</time>
      </trkpt>
      <trkpt lat="47.41131" lon="6.78326">
        <ele>361.8</ele>
        <time>2024-03-17T09:55:16Z</time>
      </trkpt>
      <trkpt lat="47.41135" lon="6.78306">
        <ele>361.6</ele>
        <time>2024-03-17T09:55:20Z</time>
      </trkpt>
      <trkpt lat="47.41135" lon="6.783">
        <ele>361.4</ele>
        <time>2024-03-17T09:55:21Z</time>
      </trkpt>
      <trkpt lat="47.41136" lon="6.78281">
        <ele>361.2</ele>
        <time>2024-03-17T09:55:25Z</time>
      </trkpt>
      <trkpt lat="47.41136" lon="6.78273">
        <ele>361.2</ele>
        <time>2024-03-17T09:55:35Z</time>
      </trkpt>
      <trkpt lat="47.41135" lon="6.78274">
        <ele>361.2</ele>
        <time>2024-03-17T09:55:46Z</time>
      </trkpt>
      <trkpt lat="47.41138" lon="6.78275">
        <ele>361.4</ele>
        <time>2024-03-17T09:55:56Z</time>
      </trkpt>
      <trkpt lat="47.41138" lon="6.78276">
        <ele>361.6</ele>
        <time>2024-03-17T09:56:06Z</time>
      </trkpt>
      <trkpt lat="47.41138" lon="6.78277">
        <ele>361.8</ele>
        <time>2024-03-17T09:56:17Z</time>
      </trkpt>
      <trkpt lat="47.41137" lon="6.78276">
        <ele>361.8</ele>
        <time>2024-03-17T09:56:27Z</time>
      </trkpt>
      <trkpt lat="47.41137" lon="6.78276">
        <ele>361.8</ele>
        <time>2024-03-17T09:56:32Z</time>
      </trkpt>
      <trkpt lat="47.41137" lon="6.78276">
        <ele>361.8</ele>
        <time>2024-03-17T09:56:37Z</time>
      </trkpt>
      <trkpt lat="47.41138" lon="6.78271">
        <ele>361.8</ele>
        <time>2024-03-17T09:56:47Z</time>
      </trkpt>
      <trkpt lat="47.41139" lon="6.7825">
        <ele>361.6</ele>
        <time>2024-03-17T09:56:55Z</time>
      </trkpt>
      <trkpt lat="47.41139" lon="6.78241">
        <ele>361.4</ele>
        <time>2024-03-17T09:56:57Z</time>
      </trkpt>
      <trkpt lat="47.41131" lon="6.78193">
        <ele>361</ele>
        <time>2024-03-17T09:57:07Z</time>
      </trkpt>
      <trkpt lat="47.41128" lon="6.78169">
        <ele>361</ele>
        <time>2024-03-17T09:57:12Z</time>
      </trkpt>
      <trkpt lat="47.41127" lon="6.78164">
        <ele>361</ele>
        <time>2024-03-17T09:57:13Z</time>
      </trkpt>
      <trkpt lat="47.41126" lon="6.78159">
        <ele>361</ele>
        <time>2024-03-17T09:57:14Z</time>
      </trkpt>
      <trkpt lat="47.41124" lon="6.78145">
        <ele>361.2</ele>
        <time>2024-03-17T09:57:17Z</time>
      </trkpt>
      <trkpt lat="47.41122" lon="6.78135">
        <ele>361.2</ele>
        <time>2024-03-17T09:57:19Z</time>
      </trkpt>
      <trkpt lat="47.41118" lon="6.7811">
        <ele>361.2</ele>
        <time>2024-03-17T09:57:24Z</time>
      </trkpt>
      <trkpt lat="47.41115" lon="6.78095">
        <ele>361.2</ele>
        <time>2024-03-17T09:57:27Z</time>
      </trkpt>
      <trkpt lat="47.41113" lon="6.78084">
        <ele>361.2</ele>
        <time>2024-03-17T09:57:29Z</time>
      </trkpt>
      <trkpt lat="47.41104" lon="6.78043">
        <ele>361</ele>
        <time>2024-03-17T09:57:37Z</time>
      </trkpt>
      <trkpt lat="47.41099" lon="6.78017">
        <ele>361</ele>
        <time>2024-03-17T09:57:42Z</time>
      </trkpt>
      <trkpt lat="47.41094" lon="6.77997">
        <ele>361</ele>
        <time>2024-03-17T09:57:46Z</time>
      </trkpt>
      <trkpt lat="47.41092" lon="6.77992">
        <ele>361.2</ele>
        <time>2024-03-17T09:57:47Z</time>
      </trkpt>
      <trkpt lat="47.41087" lon="6.7797">
        <ele>361.2</ele>
        <time>2024-03-17T09:57:51Z</time>
      </trkpt>
      <trkpt lat="47.41078" lon="6.77937">
        <ele>361.4</ele>
        <time>2024-03-17T09:57:57Z</time>
      </trkpt>
      <trkpt lat="47.41077" lon="6.77932">
        <ele>361.4</ele>
        <time>2024-03-17T09:57:58Z</time>
      </trkpt>
      <trkpt lat="47.41074" lon="6.77921">
        <ele>361.4</ele>
        <time>2024-03-17T09:58:00Z</time>
      </trkpt>
      <trkpt lat="47.41062" lon="6.77885">
        <ele>361.4</ele>
        <time>2024-03-17T09:58:07Z</time>
      </trkpt>
      <trkpt lat="47.41035" lon="6.77837">
        <ele>361.8</ele>
        <time>2024-03-17T09:58:18Z</time>
      </trkpt>
      <trkpt lat="47.4101" lon="6.77802">
        <ele>362.2</ele>
        <time>2024-03-17T09:58:27Z</time>
      </trkpt>
      <trkpt lat="47.41008" lon="6.77798">
        <ele>362.2</ele>
        <time>2024-03-17T09:58:28Z</time>
      </trkpt>
      <trkpt lat="47.40982" lon="6.77755">
        <ele>362.4</ele>
        <time>2024-03-17T09:58:38Z</time>
      </trkpt>
      <trkpt lat="47.40973" lon="6.77743">
        <ele>362.4</ele>
        <time>2024-03-17T09:58:41Z</time>
      </trkpt>
      <trkpt lat="47.40967" lon="6.77734">
        <ele>362.6</ele>
        <time>2024-03-17T09:58:43Z</time>
      </trkpt>
      <trkpt lat="47.40956" lon="6.77715">
        <ele>362.6</ele>
        <time>2024-03-17T09:58:48Z</time>
      </trkpt>
      <trkpt lat="47.40938" lon="6.77678">
        <ele>362.8</ele>
        <time>2024-03-17T09:58:56Z</time>
      </trkpt>
      <trkpt lat="47.40936" lon="6.77668">
        <ele>362.8</ele>
        <time>2024-03-17T09:58:58Z</time>
      </trkpt>
      <trkpt lat="47.4092" lon="6.77621">
        <ele>363</ele>
        <time>2024-03-17T09:59:08Z</time>
      </trkpt>
      <trkpt lat="47.40897" lon="6.77575">
        <ele>363.2</ele>
        <time>2024-03-17T09:59:18Z</time>
      </trkpt>
      <trkpt lat="47.40871" lon="6.77522">
        <ele>363.2</ele>
        <time>2024-03-17T09:59:28Z</time>
      </trkpt>
      <trkpt lat="47.40844" lon="6.77463">
        <ele>363.2</ele>
        <time>2024-03-17T09:59:38Z</time>
      </trkpt>
      <trkpt lat="47.40818" lon="6.77405">
        <ele>363.4</ele>
        <time>2024-03-17T09:59:48Z</time>
      </trkpt>
      <trkpt lat="47.40808" lon="6.77381">
        <ele>363.4</ele>
        <time>2024-03-17T09:59:52Z</time>
      </trkpt>
      <trkpt lat="47.40793" lon="6.77346">
        <ele>363.4</ele>
        <time>2024-03-17T09:59:58Z</time>
      </trkpt>
      <trkpt lat="47.4079" lon="6.7734">
        <ele>363.6</ele>
        <time>2024-03-17T09:59:59Z</time>
      </trkpt>
      <trkpt lat="47.40765" lon="6.77287">
        <ele>363.6</ele>
        <time>2024-03-17T10:00:08Z</time>
      </trkpt>
      <trkpt lat="47.40755" lon="6.7727">
        <ele>363.6</ele>
        <time>2024-03-17T10:00:18Z</time>
      </trkpt>
      <trkpt lat="47.40755" lon="6.7727">
        <ele>364</ele>
        <time>2024-03-17T10:00:28Z</time>
      </trkpt>
      <trkpt lat="47.40744" lon="6.77247">
        <ele>363.8</ele>
        <time>2024-03-17T10:00:38Z</time>
      </trkpt>
      <trkpt lat="47.40736" lon="6.77234">
        <ele>363.8</ele>
        <time>2024-03-17T10:00:41Z</time>
      </trkpt>
      <trkpt lat="47.40707" lon="6.77202">
        <ele>363.8</ele>
        <time>2024-03-17T10:00:48Z</time>
      </trkpt>
      <trkpt lat="47.40669" lon="6.77167">
        <ele>363.8</ele>
        <time>2024-03-17T10:00:56Z</time>
      </trkpt>
      <trkpt lat="47.40659" lon="6.7716">
        <ele>364</ele>
        <time>2024-03-17T10:00:58Z</time>
      </trkpt>
      <trkpt lat="47.40649" lon="6.77152">
        <ele>364</ele>
        <time>2024-03-17T10:01:00Z</time>
      </trkpt>
      <trkpt lat="47.40635" lon="6.77142">
        <ele>364</ele>
        <time>2024-03-17T10:01:03Z</time>
      </trkpt>
      <trkpt lat="47.40629" lon="6.77139">
        <ele>364.2</ele>
        <time>2024-03-17T10:01:04Z</time>
      </trkpt>
      <trkpt lat="47.40614" lon="6.7713">
        <ele>364.2</ele>
        <time>2024-03-17T10:01:07Z</time>
      </trkpt>
      <trkpt lat="47.40609" lon="6.77128">
        <ele>364.2</ele>
        <time>2024-03-17T10:01:08Z</time>
      </trkpt>
      <trkpt lat="47.40576" lon="6.77119">
        <ele>364.2</ele>
        <time>2024-03-17T10:01:14Z</time>
      </trkpt>
      <trkpt lat="47.40555" lon="6.77117">
        <ele>364.4</ele>
        <time>2024-03-17T10:01:18Z</time>
      </trkpt>
      <trkpt lat="47.40501" lon="6.77116">
        <ele>364.4</ele>
        <time>2024-03-17T10:01:28Z</time>
      </trkpt>
      <trkpt lat="47.40444" lon="6.77111">
        <ele>364.2</ele>
        <time>2024-03-17T10:01:38Z</time>
      </trkpt>
      <trkpt lat="47.40388" lon="6.771">
        <ele>364</ele>
        <time>2024-03-17T10:01:48Z</time>
      </trkpt>
      <trkpt lat="47.40332" lon="6.7711">
        <ele>364.2</ele>
        <time>2024-03-17T10:01:58Z</time>
      </trkpt>
      <trkpt lat="47.40286" lon="6.77118">
        <ele>364.2</ele>
        <time>2024-03-17T10:02:08Z</time>
      </trkpt>
      <trkpt lat="47.40271" lon="6.77121">
        <ele>364.6</ele>
        <time>2024-03-17T10:02:12Z</time>
      </trkpt>
      <trkpt lat="47.4025" lon="6.77128">
        <ele>365.6</ele>
        <time>2024-03-17T10:02:18Z</time>
      </trkpt>
      <trkpt lat="47.40225" lon="6.77152">
        <ele>366.8</ele>
        <time>2024-03-17T10:02:28Z</time>
      </trkpt>
      <trkpt lat="47.40207" lon="6.77164">
        <ele>367.8</ele>
        <time>2024-03-17T10:02:34Z</time>
      </trkpt>
      <trkpt lat="47.40197" lon="6.77165">
        <ele>368</ele>
        <time>2024-03-17T10:02:37Z</time>
      </trkpt>
      <trkpt lat="47.40193" lon="6.77165">
        <ele>368.2</ele>
        <time>2024-03-17T10:02:38Z</time>
      </trkpt>
      <trkpt lat="47.40178" lon="6.77165">
        <ele>368.2</ele>
        <time>2024-03-17T10:02:42Z</time>
      </trkpt>
      <trkpt lat="47.40154" lon="6.77166">
        <ele>368.4</ele>
        <time>2024-03-17T10:02:48Z</time>
      </trkpt>
      <trkpt lat="47.40113" lon="6.77164">
        <ele>368.6</ele>
        <time>2024-03-17T10:02:58Z</time>
      </trkpt>
      <trkpt lat="47.40078" lon="6.77161">
        <ele>368.6</ele>
        <time>2024-03-17T10:03:06Z</time>
      </trkpt>
      <trkpt lat="47.40069" lon="6.7716">
        <ele>368.6</ele>
        <time>2024-03-17T10:03:08Z</time>
      </trkpt>
      <trkpt lat="47.40025" lon="6.77154">
        <ele>368.6</ele>
        <time>2024-03-17T10:03:18Z</time>
      </trkpt>
      <trkpt lat="47.40006" lon="6.77153">
        <ele>368.6</ele>
        <time>2024-03-17T10:03:22Z</time>
      </trkpt>
      <trkpt lat="47.39979" lon="6.77151">
        <ele>368.6</ele>
        <time>2024-03-17T10:03:28Z</time>
      </trkpt>
      <trkpt lat="47.39953" lon="6.7715">
        <ele>368.8</ele>
        <time>2024-03-17T10:03:34Z</time>
      </trkpt>
      <trkpt lat="47.39935" lon="6.7715">
        <ele>369</ele>
        <time>2024-03-17T10:03:38Z</time>
      </trkpt>
      <trkpt lat="47.39891" lon="6.77157">
        <ele>369.2</ele>
        <time>2024-03-17T10:03:48Z</time>
      </trkpt>
      <trkpt lat="47.39844" lon="6.77161">
        <ele>369.4</ele>
        <time>2024-03-17T10:03:58Z</time>
      </trkpt>
      <trkpt lat="47.39825" lon="6.77161">
        <ele>369.4</ele>
        <time>2024-03-17T10:04:02Z</time>
      </trkpt>
      <trkpt lat="47.39805" lon="6.7716">
        <ele>369.6</ele>
        <time>2024-03-17T10:04:06Z</time>
      </trkpt>
      <trkpt lat="47.39792" lon="6.77165">
        <ele>369.6</ele>
        <time>2024-03-17T10:04:09Z</time>
      </trkpt>
      <trkpt lat="47.39765" lon="6.77178">
        <ele>369.6</ele>
        <time>2024-03-17T10:04:14Z</time>
      </trkpt>
      <trkpt lat="47.39753" lon="6.77182">
        <ele>369.6</ele>
        <time>2024-03-17T10:04:16Z</time>
      </trkpt>
      <trkpt lat="47.39737" lon="6.77189">
        <ele>369.2</ele>
        <time>2024-03-17T10:04:19Z</time>
      </trkpt>
      <trkpt lat="47.39693" lon="6.77208">
        <ele>367.4</ele>
        <time>2024-03-17T10:04:27Z</time>
      </trkpt>
      <trkpt lat="47.39682" lon="6.77215">
        <ele>367.2</ele>
        <time>2024-03-17T10:04:29Z</time>
      </trkpt>
      <trkpt lat="47.39666" lon="6.77223">
        <ele>366</ele>
        <time>2024-03-17T10:04:32Z</time>
      </trkpt>
      <trkpt lat="47.39661" lon="6.77227">
        <ele>365.6</ele>
        <time>2024-03-17T10:04:33Z</time>
      </trkpt>
      <trkpt lat="47.39641" lon="6.77245">
        <ele>365</ele>
        <time>2024-03-17T10:04:37Z</time>
      </trkpt>
      <trkpt lat="47.39632" lon="6.77253">
        <ele>365</ele>
        <time>2024-03-17T10:04:39Z</time>
      </trkpt>
      <trkpt lat="47.39579" lon="6.77292">
        <ele>365</ele>
        <time>2024-03-17T10:04:50Z</time>
      </trkpt>
      <trkpt lat="47.39554" lon="6.77298">
        <ele>364.8</ele>
        <time>2024-03-17T10:04:55Z</time>
      </trkpt>
      <trkpt lat="47.39532" lon="6.77296">
        <ele>365</ele>
        <time>2024-03-17T10:05:00Z</time>
      </trkpt>
      <trkpt lat="47.39528" lon="6.77296">
        <ele>365</ele>
        <time>2024-03-17T10:05:01Z</time>
      </trkpt>
      <trkpt lat="47.39492" lon="6.77312">
        <ele>365</ele>
        <time>2024-03-17T10:05:10Z</time>
      </trkpt>
      <trkpt lat="47.39458" lon="6.77328">
        <ele>365.8</ele>
        <time>2024-03-17T10:05:20Z</time>
      </trkpt>
      <trkpt lat="47.39431" lon="6.77337">
        <ele>366</ele>
        <time>2024-03-17T10:05:27Z</time>
      </trkpt>
      <trkpt lat="47.39416" lon="6.77344">
        <ele>366.2</ele>
        <time>2024-03-17T10:05:31Z</time>
      </trkpt>
      <trkpt lat="47.39388" lon="6.77355">
        <ele>366.4</ele>
        <time>2024-03-17T10:05:39Z</time>
      </trkpt>
      <trkpt lat="47.3938" lon="6.77357">
        <ele>366.6</ele>
        <time>2024-03-17T10:05:41Z</time>
      </trkpt>
      <trkpt lat="47.39362" lon="6.77365">
        <ele>367</ele>
        <time>2024-03-17T10:05:46Z</time>
      </trkpt>
      <trkpt lat="47.39346" lon="6.77371">
        <ele>367</ele>
        <time>2024-03-17T10:05:50Z</time>
      </trkpt>
      <trkpt lat="47.39342" lon="6.77373">
        <ele>367</ele>
        <time>2024-03-17T10:05:51Z</time>
      </trkpt>
      <trkpt lat="47.39306" lon="6.77384">
        <ele>367</ele>
        <time>2024-03-17T10:06:01Z</time>
      </trkpt>
      <trkpt lat="47.39298" lon="6.77387">
        <ele>367.2</ele>
        <time>2024-03-17T10:06:04Z</time>
      </trkpt>
      <trkpt lat="47.39273" lon="6.77394">
        <ele>367.2</ele>
        <time>2024-03-17T10:06:12Z</time>
      </trkpt>
      <trkpt lat="47.39248" lon="6.77397">
        <ele>367</ele>
        <time>2024-03-17T10:06:18Z</time>
      </trkpt>
      <trkpt lat="47.39232" lon="6.77399">
        <ele>366.4</ele>
        <time>2024-03-17T10:06:22Z</time>
      </trkpt>
      <trkpt lat="47.39224" lon="6.774">
        <ele>366</ele>
        <time>2024-03-17T10:06:24Z</time>
      </trkpt>
      <trkpt lat="47.39195" lon="6.77402">
        <ele>365.6</ele>
        <time>2024-03-17T10:06:32Z</time>
      </trkpt>
      <trkpt lat="47.39152" lon="6.77401">
        <ele>365.4</ele>
        <time>2024-03-17T10:06:41Z</time>
      </trkpt>
      <trkpt lat="47.39147" lon="6.77401">
        <ele>365.4</ele>
        <time>2024-03-17T10:06:42Z</time>
      </trkpt>
      <trkpt lat="47.39138" lon="6.77402">
        <ele>365.4</ele>
        <time>2024-03-17T10:06:44Z</time>
      </trkpt>
      <trkpt lat="47.39125" lon="6.77405">
        <ele>365.4</ele>
        <time>2024-03-17T10:06:47Z</time>
      </trkpt>
      <trkpt lat="47.39105" lon="6.77418">
        <ele>365.4</ele>
        <time>2024-03-17T10:06:52Z</time>
      </trkpt>
      <trkpt lat="47.391" lon="6.7742">
        <ele>365.4</ele>
        <time>2024-03-17T10:06:53Z</time>
      </trkpt>
      <trkpt lat="47.39086" lon="6.77429">
        <ele>365.2</ele>
        <time>2024-03-17T10:06:56Z</time>
      </trkpt>
      <trkpt lat="47.39066" lon="6.77435">
        <ele>365.2</ele>
        <time>2024-03-17T10:07:00Z</time>
      </trkpt>
      <trkpt lat="47.39048" lon="6.77439">
        <ele>365.2</ele>
        <time>2024-03-17T10:07:04Z</time>
      </trkpt>
      <trkpt lat="47.39029" lon="6.77443">
        <ele>365.2</ele>
        <time>2024-03-17T10:07:10Z</time>
      </trkpt>
      <trkpt lat="47.39028" lon="6.77437">
        <ele>365.4</ele>
        <time>2024-03-17T10:07:12Z</time>
      </trkpt>
      <trkpt lat="47.3903" lon="6.77428">
        <ele>365.6</ele>
        <time>2024-03-17T10:07:14Z</time>
      </trkpt>
      <trkpt lat="47.39031" lon="6.77417">
        <ele>365.8</ele>
        <time>2024-03-17T10:07:16Z</time>
      </trkpt>
      <trkpt lat="47.39024" lon="6.77403">
        <ele>365.8</ele>
        <time>2024-03-17T10:07:19Z</time>
      </trkpt>
      <trkpt lat="47.39007" lon="6.77398">
        <ele>366.2</ele>
        <time>2024-03-17T10:07:24Z</time>
      </trkpt>
      <trkpt lat="47.38951" lon="6.77382">
        <ele>365</ele>
        <time>2024-03-17T10:07:35Z</time>
      </trkpt>
      <trkpt lat="47.38911" lon="6.77368">
        <ele>364.8</ele>
        <time>2024-03-17T10:07:43Z</time>
      </trkpt>
      <trkpt lat="47.38894" lon="6.77361">
        <ele>364.8</ele>
        <time>2024-03-17T10:07:46Z</time>
      </trkpt>
      <trkpt lat="47.38868" lon="6.7735">
        <ele>364.6</ele>
        <time>2024-03-17T10:07:51Z</time>
      </trkpt>
      <trkpt lat="47.3884" lon="6.77341">
        <ele>364.6</ele>
        <time>2024-03-17T10:07:56Z</time>
      </trkpt>
      <trkpt lat="47.38829" lon="6.77338">
        <ele>364.6</ele>
        <time>2024-03-17T10:07:58Z</time>
      </trkpt>
      <trkpt lat="47.38789" lon="6.77326">
        <ele>364.4</ele>
        <time>2024-03-17T10:08:06Z</time>
      </trkpt>
      <trkpt lat="47.38733" lon="6.77306">
        <ele>364.4</ele>
        <time>2024-03-17T10:08:17Z</time>
      </trkpt>
      <trkpt lat="47.38689" lon="6.77293">
        <ele>364.6</ele>
        <time>2024-03-17T10:08:27Z</time>
      </trkpt>
      <trkpt lat="47.38658" lon="6.77287">
        <ele>364.6</ele>
        <time>2024-03-17T10:08:33Z</time>
      </trkpt>
      <trkpt lat="47.38644" lon="6.77282">
        <ele>364.8</ele>
        <time>2024-03-17T10:08:36Z</time>
      </trkpt>
      <trkpt lat="47.38589" lon="6.77273">
        <ele>364.8</ele>
        <time>2024-03-17T10:08:46Z</time>
      </trkpt>
      <trkpt lat="47.38564" lon="6.77267">
        <ele>364.8</ele>
        <time>2024-03-17T10:08:51Z</time>
      </trkpt>
      <trkpt lat="47.38537" lon="6.77267">
        <ele>365</ele>
        <time>2024-03-17T10:08:57Z</time>
      </trkpt>
      <trkpt lat="47.38528" lon="6.77265">
        <ele>365</ele>
        <time>2024-03-17T10:08:59Z</time>
      </trkpt>
      <trkpt lat="47.38493" lon="6.77268">
        <ele>365.8</ele>
        <time>2024-03-17T10:09:07Z</time>
      </trkpt>
      <trkpt lat="47.38483" lon="6.77276">
        <ele>366.4</ele>
        <time>2024-03-17T10:09:11Z</time>
      </trkpt>
      <trkpt lat="47.38475" lon="6.77282">
        <ele>367.2</ele>
        <time>2024-03-17T10:09:14Z</time>
      </trkpt>
      <trkpt lat="47.3847" lon="6.77279">
        <ele>367.4</ele>
        <time>2024-03-17T10:09:16Z</time>
      </trkpt>
      <trkpt lat="47.38469" lon="6.77275">
        <ele>367.4</ele>
        <time>2024-03-17T10:09:17Z</time>
      </trkpt>
      <trkpt lat="47.38466" lon="6.77271">
        <ele>367.4</ele>
        <time>2024-03-17T10:09:19Z</time>
      </trkpt>
      <trkpt lat="47.38447" lon="6.77268">
        <ele>367.6</ele>
        <time>2024-03-17T10:09:27Z</time>
      </trkpt>
      <trkpt lat="47.38409" lon="6.77272">
        <ele>367.4</ele>
        <time>2024-03-17T10:09:37Z</time>
      </trkpt>
      <trkpt lat="47.38398" lon="6.77278">
        <ele>367.4</ele>
        <time>2024-03-17T10:09:41Z</time>
      </trkpt>
      <trkpt lat="47.38389" lon="6.77302">
        <ele>367.4</ele>
        <time>2024-03-17T10:09:47Z</time>
      </trkpt>
      <trkpt lat="47.3838" lon="6.77324">
        <ele>368.6</ele>
        <time>2024-03-17T10:09:54Z</time>
      </trkpt>
      <trkpt lat="47.38375" lon="6.77331">
        <ele>369.4</ele>
        <time>2024-03-17T10:09:57Z</time>
      </trkpt>
      <trkpt lat="47.38373" lon="6.77333">
        <ele>369.6</ele>
        <time>2024-03-17T10:09:58Z</time>
      </trkpt>
      <trkpt lat="47.38347" lon="6.77339">
        <ele>370.6</ele>
        <time>2024-03-17T10:10:07Z</time>
      </trkpt>
      <trkpt lat="47.38307" lon="6.77335">
        <ele>370.2</ele>
        <time>2024-03-17T10:10:17Z</time>
      </trkpt>
      <trkpt lat="47.38265" lon="6.77322">
        <ele>369.8</ele>
        <time>2024-03-17T10:10:27Z</time>
      </trkpt>
      <trkpt lat="47.38225" lon="6.77309">
        <ele>370.2</ele>
        <time>2024-03-17T10:10:37Z</time>
      </trkpt>
      <trkpt lat="47.3822" lon="6.77302">
        <ele>370.6</ele>
        <time>2024-03-17T10:10:39Z</time>
      </trkpt>
      <trkpt lat="47.38221" lon="6.77266">
        <ele>371.4</ele>
        <time>2024-03-17T10:10:46Z</time>
      </trkpt>
      <trkpt lat="47.38221" lon="6.77261">
        <ele>371.6</ele>
        <time>2024-03-17T10:10:47Z</time>
      </trkpt>
      <trkpt lat="47.38223" lon="6.77204">
        <ele>371.6</ele>
        <time>2024-03-17T10:10:57Z</time>
      </trkpt>
      <trkpt lat="47.38223" lon="6.77187">
        <ele>371.6</ele>
        <time>2024-03-17T10:11:00Z</time>
      </trkpt>
      <trkpt lat="47.3822" lon="6.77144">
        <ele>371.8</ele>
        <time>2024-03-17T10:11:07Z</time>
      </trkpt>
      <trkpt lat="47.38216" lon="6.77114">
        <ele>372.2</ele>
        <time>2024-03-17T10:11:12Z</time>
      </trkpt>
      <trkpt lat="47.38211" lon="6.77084">
        <ele>372.6</ele>
        <time>2024-03-17T10:11:17Z</time>
      </trkpt>
      <trkpt lat="47.38213" lon="6.77078">
        <ele>372.6</ele>
        <time>2024-03-17T10:11:18Z</time>
      </trkpt>
      <trkpt lat="47.38235" lon="6.77059">
        <ele>373.2</ele>
        <time>2024-03-17T10:11:25Z</time>
      </trkpt>
      <trkpt lat="47.38243" lon="6.77053">
        <ele>373.2</ele>
        <time>2024-03-17T10:11:27Z</time>
      </trkpt>
      <trkpt lat="47.38287" lon="6.77024">
        <ele>373.6</ele>
        <time>2024-03-17T10:11:37Z</time>
      </trkpt>
      <trkpt lat="47.38294" lon="6.77017">
        <ele>373.8</ele>
        <time>2024-03-17T10:11:39Z</time>
      </trkpt>
      <trkpt lat="47.38302" lon="6.7701">
        <ele>373.8</ele>
        <time>2024-03-17T10:11:41Z</time>
      </trkpt>
      <trkpt lat="47.38314" lon="6.76992">
        <ele>374.2</ele>
        <time>2024-03-17T10:11:45Z</time>
      </trkpt>
      <trkpt lat="47.3832" lon="6.76983">
        <ele>374.2</ele>
        <time>2024-03-17T10:11:47Z</time>
      </trkpt>
      <trkpt lat="47.38331" lon="6.76964">
        <ele>374.8</ele>
        <time>2024-03-17T10:11:51Z</time>
      </trkpt>
      <trkpt lat="47.38351" lon="6.76931">
        <ele>375.2</ele>
        <time>2024-03-17T10:11:58Z</time>
      </trkpt>
      <trkpt lat="47.38378" lon="6.7689">
        <ele>375.8</ele>
        <time>2024-03-17T10:12:07Z</time>
      </trkpt>
      <trkpt lat="47.38381" lon="6.76885">
        <ele>375.8</ele>
        <time>2024-03-17T10:12:08Z</time>
      </trkpt>
      <trkpt lat="47.38409" lon="6.76847">
        <ele>376</ele>
        <time>2024-03-17T10:12:17Z</time>
      </trkpt>
      <trkpt lat="47.38435" lon="6.76808">
        <ele>376.8</ele>
        <time>2024-03-17T10:12:26Z</time>
      </trkpt>
      <trkpt lat="47.38438" lon="6.76804">
        <ele>377</ele>
        <time>2024-03-17T10:12:27Z</time>
      </trkpt>
      <trkpt lat="47.38462" lon="6.76771">
        <ele>377.8</ele>
        <time>2024-03-17T10:12:35Z</time>
      </trkpt>
      <trkpt lat="47.38467" lon="6.76761">
        <ele>377.8</ele>
        <time>2024-03-17T10:12:37Z</time>
      </trkpt>
      <trkpt lat="47.38498" lon="6.76708">
        <ele>378</ele>
        <time>2024-03-17T10:12:47Z</time>
      </trkpt>
      <trkpt lat="47.38526" lon="6.76669">
        <ele>378.2</ele>
        <time>2024-03-17T10:12:55Z</time>
      </trkpt>
      <trkpt lat="47.38532" lon="6.7666">
        <ele>378.2</ele>
        <time>2024-03-17T10:12:57Z</time>
      </trkpt>
      <trkpt lat="47.38553" lon="6.76629">
        <ele>379</ele>
        <time>2024-03-17T10:13:04Z</time>
      </trkpt>
      <trkpt lat="47.3856" lon="6.76616">
        <ele>379.4</ele>
        <time>2024-03-17T10:13:07Z</time>
      </trkpt>
      <trkpt lat="47.3857" lon="6.766">
        <ele>380</ele>
        <time>2024-03-17T10:13:11Z</time>
      </trkpt>
      <trkpt lat="47.38584" lon="6.76576">
        <ele>380.8</ele>
        <time>2024-03-17T10:13:17Z</time>
      </trkpt>
      <trkpt lat="47.38587" lon="6.76572">
        <ele>381</ele>
        <time>2024-03-17T10:13:18Z</time>
      </trkpt>
      <trkpt lat="47.38603" lon="6.76529">
        <ele>382</ele>
        <time>2024-03-17T10:13:27Z</time>
      </trkpt>
      <trkpt lat="47.38608" lon="6.7651">
        <ele>382.2</ele>
        <time>2024-03-17T10:13:30Z</time>
      </trkpt>
      <trkpt lat="47.38613" lon="6.76499">
        <ele>382.2</ele>
        <time>2024-03-17T10:13:32Z</time>
      </trkpt>
      <trkpt lat="47.38621" lon="6.76492">
        <ele>382.4</ele>
        <time>2024-03-17T10:13:34Z</time>
      </trkpt>
      <trkpt lat="47.38629" lon="6.76489">
        <ele>382.6</ele>
        <time>2024-03-17T10:13:36Z</time>
      </trkpt>
      <trkpt lat="47.38633" lon="6.76488">
        <ele>382.6</ele>
        <time>2024-03-17T10:13:37Z</time>
      </trkpt>
      <trkpt lat="47.38655" lon="6.76481">
        <ele>382.8</ele>
        <time>2024-03-17T10:13:43Z</time>
      </trkpt>
      <trkpt lat="47.38659" lon="6.7648">
        <ele>382.8</ele>
        <time>2024-03-17T10:13:44Z</time>
      </trkpt>
      <trkpt lat="47.38664" lon="6.76479">
        <ele>382.8</ele>
        <time>2024-03-17T10:13:45Z</time>
      </trkpt>
      <trkpt lat="47.38674" lon="6.76476">
        <ele>382.8</ele>
        <time>2024-03-17T10:13:47Z</time>
      </trkpt>
      <trkpt lat="47.38719" lon="6.76467">
        <ele>382.2</ele>
        <time>2024-03-17T10:13:57Z</time>
      </trkpt>
      <trkpt lat="47.38766" lon="6.76464">
        <ele>381.2</ele>
        <time>2024-03-17T10:14:07Z</time>
      </trkpt>
      <trkpt lat="47.38772" lon="6.76465">
        <ele>381</ele>
        <time>2024-03-17T10:14:08Z</time>
      </trkpt>
      <trkpt lat="47.38817" lon="6.76475">
        <ele>380.2</ele>
        <time>2024-03-17T10:14:17Z</time>
      </trkpt>
      <trkpt lat="47.38827" lon="6.76478">
        <ele>380</ele>
        <time>2024-03-17T10:14:19Z</time>
      </trkpt>
      <trkpt lat="47.38865" lon="6.7649">
        <ele>379.6</ele>
        <time>2024-03-17T10:14:27Z</time>
      </trkpt>
      <trkpt lat="47.38879" lon="6.76488">
        <ele>379.4</ele>
        <time>2024-03-17T10:14:30Z</time>
      </trkpt>
      <trkpt lat="47.38887" lon="6.76482">
        <ele>379.2</ele>
        <time>2024-03-17T10:14:32Z</time>
      </trkpt>
      <trkpt lat="47.38901" lon="6.76475">
        <ele>379</ele>
        <time>2024-03-17T10:14:35Z</time>
      </trkpt>
      <trkpt lat="47.38906" lon="6.76475">
        <ele>378.8</ele>
        <time>2024-03-17T10:14:36Z</time>
      </trkpt>
      <trkpt lat="47.38911" lon="6.76476">
        <ele>378.8</ele>
        <time>2024-03-17T10:14:37Z</time>
      </trkpt>
      <trkpt lat="47.38916" lon="6.76478">
        <ele>378.6</ele>
        <time>2024-03-17T10:14:38Z</time>
      </trkpt>
      <trkpt lat="47.38934" lon="6.76485">
        <ele>378.2</ele>
        <time>2024-03-17T10:14:42Z</time>
      </trkpt>
      <trkpt lat="47.38948" lon="6.76484">
        <ele>377.8</ele>
        <time>2024-03-17T10:14:45Z</time>
      </trkpt>
      <trkpt lat="47.38952" lon="6.76484">
        <ele>377.6</ele>
        <time>2024-03-17T10:14:46Z</time>
      </trkpt>
      <trkpt lat="47.38961" lon="6.76486">
        <ele>377.4</ele>
        <time>2024-03-17T10:14:48Z</time>
      </trkpt>
      <trkpt lat="47.38971" lon="6.76483">
        <ele>377</ele>
        <time>2024-03-17T10:14:51Z</time>
      </trkpt>
      <trkpt lat="47.38972" lon="6.7646">
        <ele>376.8</ele>
        <time>2024-03-17T10:14:55Z</time>
      </trkpt>
      <trkpt lat="47.38974" lon="6.76457">
        <ele>376.6</ele>
        <time>2024-03-17T10:14:56Z</time>
      </trkpt>
      <trkpt lat="47.38978" lon="6.76453">
        <ele>376.2</ele>
        <time>2024-03-17T10:14:58Z</time>
      </trkpt>
      <trkpt lat="47.38984" lon="6.76447">
        <ele>375.8</ele>
        <time>2024-03-17T10:15:08Z</time>
      </trkpt>
      <trkpt lat="47.38985" lon="6.76486">
        <ele>375.6</ele>
        <time>2024-03-17T10:15:16Z</time>
      </trkpt>
      <trkpt lat="47.38986" lon="6.76491">
        <ele>375.6</ele>
        <time>2024-03-17T10:15:17Z</time>
      </trkpt>
      <trkpt lat="47.38989" lon="6.76496">
        <ele>375.6</ele>
        <time>2024-03-17T10:15:18Z</time>
      </trkpt>
      <trkpt lat="47.38995" lon="6.76507">
        <ele>375.6</ele>
        <time>2024-03-17T10:15:20Z</time>
      </trkpt>
      <trkpt lat="47.39007" lon="6.7652">
        <ele>375.4</ele>
        <time>2024-03-17T10:15:24Z</time>
      </trkpt>
      <trkpt lat="47.3902" lon="6.76527">
        <ele>375.4</ele>
        <time>2024-03-17T10:15:28Z</time>
      </trkpt>
      <trkpt lat="47.39037" lon="6.76538">
        <ele>375.6</ele>
        <time>2024-03-17T10:15:35Z</time>
      </trkpt>
      <trkpt lat="47.3904" lon="6.76549">
        <ele>375.8</ele>
        <time>2024-03-17T10:15:38Z</time>
      </trkpt>
      <trkpt lat="47.39051" lon="6.76582">
        <ele>375.8</ele>
        <time>2024-03-17T10:15:48Z</time>
      </trkpt>
      <trkpt lat="47.39053" lon="6.76583">
        <ele>375.8</ele>
        <time>2024-03-17T10:15:49Z</time>
      </trkpt>
      <trkpt lat="47.39055" lon="6.7658">
        <ele>375.8</ele>
        <time>2024-03-17T10:15:58Z</time>
      </trkpt>
      <trkpt lat="47.39055" lon="6.76578">
        <ele>375.6</ele>
        <time>2024-03-17T10:16:08Z</time>
      </trkpt>
      <trkpt lat="47.39054" lon="6.76579">
        <ele>375.6</ele>
        <time>2024-03-17T10:16:18Z</time>
      </trkpt>
      <trkpt lat="47.39055" lon="6.76578">
        <ele>375.4</ele>
        <time>2024-03-17T10:16:28Z</time>
      </trkpt>
      <trkpt lat="47.39056" lon="6.76577">
        <ele>375.4</ele>
        <time>2024-03-17T10:16:38Z</time>
      </trkpt>
      <trkpt lat="47.39055" lon="6.76578">
        <ele>375.2</ele>
        <time>2024-03-17T10:16:48Z</time>
      </trkpt>
      <trkpt lat="47.39055" lon="6.76578">
        <ele>375.2</ele>
        <time>2024-03-17T10:16:56Z</time>
      </trkpt>
      <trkpt lat="47.39055" lon="6.76579">
        <ele>375.2</ele>
        <time>2024-03-17T10:16:58Z</time>
      </trkpt>
      <trkpt lat="47.39055" lon="6.7658">
        <ele>375.4</ele>
        <time>2024-03-17T10:17:08Z</time>
      </trkpt>
      <trkpt lat="47.39055" lon="6.7658">
        <ele>375.4</ele>
        <time>2024-03-17T10:17:15Z</time>
      </trkpt>
      <trkpt lat="47.39055" lon="6.7658">
        <ele>375.4</ele>
        <time>2024-03-17T10:17:16Z</time>
      </trkpt>
      <trkpt lat="47.39055" lon="6.7658">
        <ele>375.4</ele>
        <time>2024-03-17T10:17:18Z</time>
      </trkpt>
      <trkpt lat="47.39055" lon="6.7658">
        <ele>375.2</ele>
        <time>2024-03-17T10:17:28Z</time>
      </trkpt>
      <trkpt lat="47.39055" lon="6.7658">
        <ele>375.4</ele>
        <time>2024-03-17T10:17:31Z</time>
      </trkpt>
      <trkpt lat="47.39054" lon="6.76581">
        <ele>375.4</ele>
        <time>2024-03-17T10:17:38Z</time>
      </trkpt>
      <trkpt lat="47.39053" lon="6.7658">
        <ele>375.8</ele>
        <time>2024-03-17T10:17:48Z</time>
      </trkpt>
      <trkpt lat="47.39054" lon="6.76579">
        <ele>375.8</ele>
        <time>2024-03-17T10:17:54Z</time>
      </trkpt>
      <trkpt lat="47.39054" lon="6.76579">
        <ele>375.8</ele>
        <time>2024-03-17T10:17:58Z</time>
      </trkpt>
      <trkpt lat="47.39054" lon="6.76579">
        <ele>375.6</ele>
        <time>2024-03-17T10:18:03Z</time>
      </trkpt>
      <trkpt lat="47.39054" lon="6.76578">
        <ele>375.6</ele>
        <time>2024-03-17T10:18:08Z</time>
      </trkpt>
      <trkpt lat="47.39055" lon="6.7658">
        <ele>375.6</ele>
        <time>2024-03-17T10:18:16Z</time>
      </trkpt>
      <trkpt lat="47.39054" lon="6.7658">
        <ele>375.6</ele>
        <time>2024-03-17T10:18:18Z</time>
      </trkpt>
      <trkpt lat="47.39054" lon="6.76578">
        <ele>375.4</ele>
        <time>2024-03-17T10:18:28Z</time>
      </trkpt>
      <trkpt lat="47.39054" lon="6.76578">
        <ele>375.4</ele>
        <time>2024-03-17T10:18:29Z</time>
      </trkpt>
      <trkpt lat="47.39054" lon="6.76577">
        <ele>375.4</ele>
        <time>2024-03-17T10:18:33Z</time>
      </trkpt>
      <trkpt lat="47.39054" lon="6.76577">
        <ele>375.4</ele>
        <time>2024-03-17T10:18:35Z</time>
      </trkpt>
      <trkpt lat="47.39054" lon="6.76577">
        <ele>375.6</ele>
        <time>2024-03-17T10:18:36Z</time>
      </trkpt>
      <trkpt lat="47.39054" lon="6.76577">
        <ele>375.6</ele>
        <time>2024-03-17T10:18:37Z</time>
      </trkpt>
      <trkpt lat="47.39054" lon="6.76577">
        <ele>375.6</ele>
        <time>2024-03-17T10:18:38Z</time>
      </trkpt>
      <trkpt lat="47.39054" lon="6.76577">
        <ele>375.8</ele>
        <time>2024-03-17T10:18:40Z</time>
      </trkpt>
      <trkpt lat="47.39054" lon="6.76577">
        <ele>375.8</ele>
        <time>2024-03-17T10:18:41Z</time>
      </trkpt>
      <trkpt lat="47.39054" lon="6.76577">
        <ele>375.8</ele>
        <time>2024-03-17T10:18:43Z</time>
      </trkpt>
      <trkpt lat="47.39054" lon="6.76577">
        <ele>375.8</ele>
        <time>2024-03-17T10:18:45Z</time>
      </trkpt>
      <trkpt lat="47.39053" lon="6.76577">
        <ele>375.6</ele>
        <time>2024-03-17T10:18:47Z</time>
      </trkpt>
      <trkpt lat="47.39053" lon="6.76577">
        <ele>375.6</ele>
        <time>2024-03-17T10:18:48Z</time>
      </trkpt>
      <trkpt lat="47.39052" lon="6.76577">
        <ele>375.8</ele>
        <time>2024-03-17T10:18:49Z</time>
      </trkpt>
      <trkpt lat="47.39052" lon="6.76578">
        <ele>375.8</ele>
        <time>2024-03-17T10:18:50Z</time>
      </trkpt>
      <trkpt lat="47.39052" lon="6.76578">
        <ele>375.8</ele>
        <time>2024-03-17T10:18:51Z</time>
      </trkpt>
      <trkpt lat="47.39052" lon="6.76578">
        <ele>375.8</ele>
        <time>2024-03-17T10:18:53Z</time>
      </trkpt>
      <trkpt lat="47.39051" lon="6.76579">
        <ele>375.8</ele>
        <time>2024-03-17T10:18:59Z</time>
      </trkpt>
      <trkpt lat="47.39051" lon="6.76579">
        <ele>375.8</ele>
        <time>2024-03-17T10:19:00Z</time>
      </trkpt>
      <trkpt lat="47.39051" lon="6.76579">
        <ele>375.8</ele>
        <time>2024-03-17T10:19:04Z</time>
      </trkpt>
      <trkpt lat="47.39051" lon="6.76579">
        <ele>375.8</ele>
        <time>2024-03-17T10:19:10Z</time>
      </trkpt>
      <trkpt lat="47.39051" lon="6.7658">
        <ele>375.8</ele>
        <time>2024-03-17T10:19:14Z</time>
      </trkpt>
      <trkpt lat="47.39052" lon="6.76581">
        <ele>375.8</ele>
        <time>2024-03-17T10:19:20Z</time>
      </trkpt>
      <trkpt lat="47.39051" lon="6.76582">
        <ele>375.8</ele>
        <time>2024-03-17T10:19:30Z</time>
      </trkpt>
      <trkpt lat="47.39051" lon="6.7659">
        <ele>375.8</ele>
        <time>2024-03-17T10:19:37Z</time>
      </trkpt>
      <trkpt lat="47.39051" lon="6.76593">
        <ele>375.8</ele>
        <time>2024-03-17T10:19:40Z</time>
      </trkpt>
      <trkpt lat="47.39054" lon="6.76599">
        <ele>375.8</ele>
        <time>2024-03-17T10:19:50Z</time>
      </trkpt>
      <trkpt lat="47.39055" lon="6.76601">
        <ele>375.8</ele>
        <time>2024-03-17T10:19:54Z</time>
      </trkpt>
      <trkpt lat="47.39055" lon="6.76601">
        <ele>375.8</ele>
        <time>2024-03-17T10:19:55Z</time>
      </trkpt>
      <trkpt lat="47.39058" lon="6.76605">
        <ele>375.8</ele>
        <time>2024-03-17T10:20:00Z</time>
      </trkpt>
      <trkpt lat="47.39059" lon="6.76607">
        <ele>375.8</ele>
        <time>2024-03-17T10:20:02Z</time>
      </trkpt>
      <trkpt lat="47.39062" lon="6.76612">
        <ele>375.8</ele>
        <time>2024-03-17T10:20:06Z</time>
      </trkpt>
      <trkpt lat="47.39063" lon="6.76614">
        <ele>375.8</ele>
        <time>2024-03-17T10:20:08Z</time>
      </trkpt>
      <trkpt lat="47.39065" lon="6.76616">
        <ele>375.8</ele>
        <time>2024-03-17T10:20:10Z</time>
      </trkpt>
      <trkpt lat="47.39066" lon="6.76619">
        <ele>375.8</ele>
        <time>2024-03-17T10:20:13Z</time>
      </trkpt>
      <trkpt lat="47.39067" lon="6.76621">
        <ele>375.8</ele>
        <time>2024-03-17T10:20:14Z</time>
      </trkpt>
      <trkpt lat="47.39068" lon="6.76622">
        <ele>375.8</ele>
        <time>2024-03-17T10:20:15Z</time>
      </trkpt>
      <trkpt lat="47.39069" lon="6.76626">
        <ele>375.8</ele>
        <time>2024-03-17T10:20:18Z</time>
      </trkpt>
      <trkpt lat="47.39069" lon="6.76627">
        <ele>375.8</ele>
        <time>2024-03-17T10:20:20Z</time>
      </trkpt>
      <trkpt lat="47.39067" lon="6.76629">
        <ele>375.8</ele>
        <time>2024-03-17T10:20:23Z</time>
      </trkpt>
      <trkpt lat="47.39066" lon="6.76629">
        <ele>375.8</ele>
        <time>2024-03-17T10:20:24Z</time>
      </trkpt>
      <trkpt lat="47.39066" lon="6.7663">
        <ele>375.8</ele>
        <time>2024-03-17T10:20:26Z</time>
      </trkpt>
      <trkpt lat="47.39066" lon="6.76631">
        <ele>375.8</ele>
        <time>2024-03-17T10:20:28Z</time>
      </trkpt>
      <trkpt lat="47.39066" lon="6.76631">
        <ele>375.8</ele>
        <time>2024-03-17T10:20:30Z</time>
      </trkpt>
      <trkpt lat="47.39066" lon="6.76631">
        <ele>375.8</ele>
        <time>2024-03-17T10:20:31Z</time>
      </trkpt>
      <trkpt lat="47.39066" lon="6.76632">
        <ele>375.8</ele>
        <time>2024-03-17T10:20:32Z</time>
      </trkpt>
      <trkpt lat="47.39067" lon="6.76632">
        <ele>375.8</ele>
        <time>2024-03-17T10:20:33Z</time>
      </trkpt>
      <trkpt lat="47.39067" lon="6.76633">
        <ele>375.8</ele>
        <time>2024-03-17T10:20:35Z</time>
      </trkpt>
    </trkseg>
  </trk>
</gpx>